<?xml version='1.0' encoding='UTF-8'?><gpx version="1.1" creator="JPX - https://github.com/jenetics/jpx" xmlns="http://www.topografix.com/GPX/1/1"><trk><trkseg><trkpt lat="44.9501349" lon="8.0268062"><ele>243.99999999999997</ele><time>2026-05-06T12:44:29.882Z</time></trkpt><trkpt lat="44.9500868" lon="8.0267321"><ele>244.0</ele><time>2026-05-06T12:45:40.881Z</time></trkpt><trkpt lat="44.9501655" lon="8.026734"><ele>244.0</ele><time>2026-05-06T12:45:45.882Z</time></trkpt><trkpt lat="44.950229" lon="8.0267064"><ele>244.0</ele><time>2026-05-06T12:46:25.881Z</time></trkpt><trkpt lat="44.950279" lon="8.0266091"><ele>243.99999999999997</ele><time>2026-05-06T12:46:27.88Z</time></trkpt><trkpt lat="44.9503202" lon="8.0264677"><ele>244.0</ele><time>2026-05-06T12:46:29.881Z</time></trkpt><trkpt lat="44.9503642" lon="8.0263533"><ele>242.2</ele><time>2026-05-06T12:46:30.881Z</time></trkpt><trkpt lat="44.9503999" lon="8.0262534"><ele>240.39999999999998</ele><time>2026-05-06T12:46:31.881Z</time></trkpt><trkpt lat="44.9504237" lon="8.0261338"><ele>238.6</ele><time>2026-05-06T12:46:32.881Z</time></trkpt><trkpt lat="44.9504384" lon="8.0260021"><ele>236.8</ele><time>2026-05-06T12:46:33.881Z</time></trkpt><trkpt lat="44.9504455" lon="8.0258572"><ele>235.0</ele><time>2026-05-06T12:46:34.88Z</time></trkpt><trkpt lat="44.9504437" lon="8.0256884"><ele>234.0</ele><time>2026-05-06T12:46:35.881Z</time></trkpt><trkpt lat="44.9504361" lon="8.0255486"><ele>233.0</ele><time>2026-05-06T12:46:36.881Z</time></trkpt><trkpt lat="44.9504357" lon="8.0254179"><ele>232.0</ele><time>2026-05-06T12:46:37.881Z</time></trkpt><trkpt lat="44.9504232" lon="8.025287"><ele>231.0</ele><time>2026-05-06T12:46:38.881Z</time></trkpt><trkpt lat="44.9504095" lon="8.0251628"><ele>230.0</ele><time>2026-05-06T12:46:39.881Z</time></trkpt><trkpt lat="44.9503995" lon="8.0250345"><ele>229.16666666666669</ele><time>2026-05-06T12:46:40.881Z</time></trkpt><trkpt lat="44.9503898" lon="8.02492"><ele>228.33333333333334</ele><time>2026-05-06T12:46:41.881Z</time></trkpt><trkpt lat="44.950373" lon="8.0248041"><ele>227.5</ele><time>2026-05-06T12:46:42.881Z</time></trkpt><trkpt lat="44.9503571" lon="8.0246811"><ele>226.66666666666669</ele><time>2026-05-06T12:46:43.881Z</time></trkpt><trkpt lat="44.9503502" lon="8.0245599"><ele>225.83333333333334</ele><time>2026-05-06T12:46:44.881Z</time></trkpt><trkpt lat="44.9503542" lon="8.024455"><ele>225.0</ele><time>2026-05-06T12:46:45.881Z</time></trkpt><trkpt lat="44.9503458" lon="8.0243424"><ele>225.0</ele><time>2026-05-06T12:46:46.881Z</time></trkpt><trkpt lat="44.950372" lon="8.0241927"><ele>225.0</ele><time>2026-05-06T12:46:47.881Z</time></trkpt><trkpt lat="44.9503672" lon="8.0240876"><ele>225.0</ele><time>2026-05-06T12:46:48.881Z</time></trkpt><trkpt lat="44.9503268" lon="8.0239568"><ele>225.0</ele><time>2026-05-06T12:46:50.88Z</time></trkpt><trkpt lat="44.950215" lon="8.0239998"><ele>225.0</ele><time>2026-05-06T12:46:53.881Z</time></trkpt><trkpt lat="44.950175" lon="8.0240733"><ele>225.0</ele><time>2026-05-06T12:46:54.881Z</time></trkpt><trkpt lat="44.9501375" lon="8.0241774"><ele>225.0</ele><time>2026-05-06T12:46:55.881Z</time></trkpt><trkpt lat="44.9500946" lon="8.0242741"><ele>225.0</ele><time>2026-05-06T12:46:56.881Z</time></trkpt><trkpt lat="44.9500201" lon="8.0243472"><ele>225.0</ele><time>2026-05-06T12:46:57.881Z</time></trkpt><trkpt lat="44.9499525" lon="8.0243829"><ele>225.0</ele><time>2026-05-06T12:46:58.881Z</time></trkpt><trkpt lat="44.9498669" lon="8.0243811"><ele>225.0</ele><time>2026-05-06T12:46:59.881Z</time></trkpt><trkpt lat="44.949798" lon="8.0243198"><ele>221.6</ele><time>2026-05-06T12:47:00.88Z</time></trkpt><trkpt lat="44.9497618" lon="8.0242214"><ele>218.2</ele><time>2026-05-06T12:47:01.881Z</time></trkpt><trkpt lat="44.9497635" lon="8.024112"><ele>214.8</ele><time>2026-05-06T12:47:02.881Z</time></trkpt><trkpt lat="44.949802" lon="8.0239919"><ele>211.4</ele><time>2026-05-06T12:47:03.881Z</time></trkpt><trkpt lat="44.9498623" lon="8.0238702"><ele>208.0</ele><time>2026-05-06T12:47:04.881Z</time></trkpt><trkpt lat="44.949932" lon="8.0237349"><ele>208.75</ele><time>2026-05-06T12:47:05.881Z</time></trkpt><trkpt lat="44.9499817" lon="8.0235811"><ele>209.5</ele><time>2026-05-06T12:47:06.88Z</time></trkpt><trkpt lat="44.9500197" lon="8.0234142"><ele>210.25</ele><time>2026-05-06T12:47:07.88Z</time></trkpt><trkpt lat="44.9500388" lon="8.0232459"><ele>211.0</ele><time>2026-05-06T12:47:08.881Z</time></trkpt><trkpt lat="44.9500539" lon="8.0230572"><ele>211.0</ele><time>2026-05-06T12:47:09.88Z</time></trkpt><trkpt lat="44.9500703" lon="8.0228741"><ele>211.0</ele><time>2026-05-06T12:47:10.881Z</time></trkpt><trkpt lat="44.9500811" lon="8.0226779"><ele>211.0</ele><time>2026-05-06T12:47:11.881Z</time></trkpt><trkpt lat="44.9500934" lon="8.0224898"><ele>211.0</ele><time>2026-05-06T12:47:12.881Z</time></trkpt><trkpt lat="44.9500927" lon="8.0222963"><ele>209.0</ele><time>2026-05-06T12:47:13.881Z</time></trkpt><trkpt lat="44.9500848" lon="8.0220999"><ele>207.0</ele><time>2026-05-06T12:47:14.881Z</time></trkpt><trkpt lat="44.9500636" lon="8.0218959"><ele>205.0</ele><time>2026-05-06T12:47:15.881Z</time></trkpt><trkpt lat="44.9500501" lon="8.0216935"><ele>203.0</ele><time>2026-05-06T12:47:16.881Z</time></trkpt><trkpt lat="44.950039" lon="8.0214968"><ele>197.75</ele><time>2026-05-06T12:47:17.881Z</time></trkpt><trkpt lat="44.9500386" lon="8.0213075"><ele>192.5</ele><time>2026-05-06T12:47:18.881Z</time></trkpt><trkpt lat="44.950031" lon="8.0211126"><ele>187.25</ele><time>2026-05-06T12:47:19.881Z</time></trkpt><trkpt lat="44.9500231" lon="8.0209389"><ele>182.0</ele><time>2026-05-06T12:47:20.881Z</time></trkpt><trkpt lat="44.9500173" lon="8.0207669"><ele>181.2</ele><time>2026-05-06T12:47:21.881Z</time></trkpt><trkpt lat="44.9500109" lon="8.0206111"><ele>180.39999999999998</ele><time>2026-05-06T12:47:22.881Z</time></trkpt><trkpt lat="44.9500054" lon="8.020458"><ele>179.60000000000002</ele><time>2026-05-06T12:47:23.881Z</time></trkpt><trkpt lat="44.9500027" lon="8.0203315"><ele>178.8</ele><time>2026-05-06T12:47:24.881Z</time></trkpt><trkpt lat="44.9500026" lon="8.0202273"><ele>178.0</ele><time>2026-05-06T12:47:25.881Z</time></trkpt><trkpt lat="44.9500225" lon="8.0201086"><ele>178.0</ele><time>2026-05-06T12:47:27.881Z</time></trkpt><trkpt lat="44.9500141" lon="8.0200071"><ele>178.0</ele><time>2026-05-06T12:47:31.881Z</time></trkpt><trkpt lat="44.9499467" lon="8.0199603"><ele>178.0</ele><time>2026-05-06T12:47:33.881Z</time></trkpt><trkpt lat="44.9498806" lon="8.0199523"><ele>178.0</ele><time>2026-05-06T12:47:34.881Z</time></trkpt><trkpt lat="44.9497917" lon="8.0199463"><ele>178.0</ele><time>2026-05-06T12:47:35.881Z</time></trkpt><trkpt lat="44.9496855" lon="8.0199322"><ele>178.0</ele><time>2026-05-06T12:47:36.88Z</time></trkpt><trkpt lat="44.9495616" lon="8.0199173"><ele>177.0</ele><time>2026-05-06T12:47:37.881Z</time></trkpt><trkpt lat="44.9494314" lon="8.0199128"><ele>176.0</ele><time>2026-05-06T12:47:38.88Z</time></trkpt><trkpt lat="44.9492947" lon="8.0199044"><ele>175.0</ele><time>2026-05-06T12:47:39.881Z</time></trkpt><trkpt lat="44.9491522" lon="8.0198943"><ele>174.0</ele><time>2026-05-06T12:47:40.88Z</time></trkpt><trkpt lat="44.9490112" lon="8.0198811"><ele>173.33333333333334</ele><time>2026-05-06T12:47:41.881Z</time></trkpt><trkpt lat="44.948865" lon="8.0198695"><ele>172.66666666666669</ele><time>2026-05-06T12:47:42.881Z</time></trkpt><trkpt lat="44.9487158" lon="8.019847"><ele>172.0</ele><time>2026-05-06T12:47:43.88Z</time></trkpt><trkpt lat="44.9485615" lon="8.0198363"><ele>172.0</ele><time>2026-05-06T12:47:44.881Z</time></trkpt><trkpt lat="44.9484033" lon="8.0198196"><ele>172.0</ele><time>2026-05-06T12:47:45.881Z</time></trkpt><trkpt lat="44.9482413" lon="8.019808"><ele>172.0</ele><time>2026-05-06T12:47:46.881Z</time></trkpt><trkpt lat="44.94808" lon="8.0197883"><ele>171.66666666666669</ele><time>2026-05-06T12:47:47.881Z</time></trkpt><trkpt lat="44.9479173" lon="8.0197792"><ele>171.33333333333334</ele><time>2026-05-06T12:47:48.881Z</time></trkpt><trkpt lat="44.9477471" lon="8.0197746"><ele>171.0</ele><time>2026-05-06T12:47:49.881Z</time></trkpt><trkpt lat="44.9475652" lon="8.0197653"><ele>170.33333333333334</ele><time>2026-05-06T12:47:50.881Z</time></trkpt><trkpt lat="44.9473812" lon="8.0197543"><ele>169.66666666666669</ele><time>2026-05-06T12:47:51.881Z</time></trkpt><trkpt lat="44.9471966" lon="8.019742"><ele>169.0</ele><time>2026-05-06T12:47:52.881Z</time></trkpt><trkpt lat="44.9470243" lon="8.019734"><ele>169.0</ele><time>2026-05-06T12:47:53.881Z</time></trkpt><trkpt lat="44.9468275" lon="8.0197473"><ele>169.0</ele><time>2026-05-06T12:47:54.881Z</time></trkpt><trkpt lat="44.9466316" lon="8.0197768"><ele>169.0</ele><time>2026-05-06T12:47:55.881Z</time></trkpt><trkpt lat="44.9464461" lon="8.0198037"><ele>169.0</ele><time>2026-05-06T12:47:56.881Z</time></trkpt><trkpt lat="44.9462543" lon="8.0198326"><ele>169.0</ele><time>2026-05-06T12:47:57.881Z</time></trkpt><trkpt lat="44.9460568" lon="8.0198549"><ele>169.0</ele><time>2026-05-06T12:47:58.881Z</time></trkpt><trkpt lat="44.9458615" lon="8.01988"><ele>169.0</ele><time>2026-05-06T12:47:59.881Z</time></trkpt><trkpt lat="44.9456651" lon="8.0199112"><ele>169.0</ele><time>2026-05-06T12:48:00.881Z</time></trkpt><trkpt lat="44.9454535" lon="8.0199363"><ele>169.0</ele><time>2026-05-06T12:48:01.88Z</time></trkpt><trkpt lat="44.9452502" lon="8.0199577"><ele>170.66666666666669</ele><time>2026-05-06T12:48:02.88Z</time></trkpt><trkpt lat="44.9450462" lon="8.0199886"><ele>172.33333333333334</ele><time>2026-05-06T12:48:03.881Z</time></trkpt><trkpt lat="44.9448392" lon="8.0200153"><ele>174.0</ele><time>2026-05-06T12:48:04.881Z</time></trkpt><trkpt lat="44.9446358" lon="8.0200422"><ele>174.0</ele><time>2026-05-06T12:48:05.881Z</time></trkpt><trkpt lat="44.9444281" lon="8.0200805"><ele>174.0</ele><time>2026-05-06T12:48:06.881Z</time></trkpt><trkpt lat="44.9442261" lon="8.0200977"><ele>174.0</ele><time>2026-05-06T12:48:07.881Z</time></trkpt><trkpt lat="44.9440208" lon="8.0201443"><ele>175.33333333333334</ele><time>2026-05-06T12:48:08.881Z</time></trkpt><trkpt lat="44.943825" lon="8.0202148"><ele>176.66666666666669</ele><time>2026-05-06T12:48:09.881Z</time></trkpt><trkpt lat="44.9436197" lon="8.0203056"><ele>178.0</ele><time>2026-05-06T12:48:10.881Z</time></trkpt><trkpt lat="44.9434259" lon="8.0204055"><ele>176.0</ele><time>2026-05-06T12:48:11.881Z</time></trkpt><trkpt lat="44.9432285" lon="8.0205009"><ele>174.0</ele><time>2026-05-06T12:48:12.881Z</time></trkpt><trkpt lat="44.9430293" lon="8.0205962"><ele>172.0</ele><time>2026-05-06T12:48:13.881Z</time></trkpt><trkpt lat="44.9428378" lon="8.0206967"><ele>172.0</ele><time>2026-05-06T12:48:14.881Z</time></trkpt><trkpt lat="44.9426549" lon="8.0207822"><ele>172.0</ele><time>2026-05-06T12:48:15.881Z</time></trkpt><trkpt lat="44.9424641" lon="8.0208811"><ele>172.0</ele><time>2026-05-06T12:48:16.88Z</time></trkpt><trkpt lat="44.942284" lon="8.0209658"><ele>173.0</ele><time>2026-05-06T12:48:17.881Z</time></trkpt><trkpt lat="44.9421" lon="8.0210623"><ele>174.0</ele><time>2026-05-06T12:48:18.88Z</time></trkpt><trkpt lat="44.9419149" lon="8.0211528"><ele>175.0</ele><time>2026-05-06T12:48:19.881Z</time></trkpt><trkpt lat="44.9417284" lon="8.0212417"><ele>173.33333333333334</ele><time>2026-05-06T12:48:20.88Z</time></trkpt><trkpt lat="44.9415435" lon="8.0213384"><ele>171.66666666666666</ele><time>2026-05-06T12:48:21.881Z</time></trkpt><trkpt lat="44.9413609" lon="8.021435"><ele>170.0</ele><time>2026-05-06T12:48:22.88Z</time></trkpt><trkpt lat="44.9411873" lon="8.0215188"><ele>170.0</ele><time>2026-05-06T12:48:23.881Z</time></trkpt><trkpt lat="44.9410256" lon="8.0216004"><ele>170.0</ele><time>2026-05-06T12:48:24.88Z</time></trkpt><trkpt lat="44.9408491" lon="8.0216894"><ele>170.0</ele><time>2026-05-06T12:48:25.881Z</time></trkpt><trkpt lat="44.9406753" lon="8.0217732"><ele>170.33333333333331</ele><time>2026-05-06T12:48:26.881Z</time></trkpt><trkpt lat="44.9404913" lon="8.0218639"><ele>170.66666666666666</ele><time>2026-05-06T12:48:27.881Z</time></trkpt><trkpt lat="44.9403052" lon="8.0219568"><ele>171.0</ele><time>2026-05-06T12:48:28.881Z</time></trkpt><trkpt lat="44.9401108" lon="8.0220409"><ele>169.66666666666666</ele><time>2026-05-06T12:48:29.881Z</time></trkpt><trkpt lat="44.9399284" lon="8.0221341"><ele>168.33333333333331</ele><time>2026-05-06T12:48:30.881Z</time></trkpt><trkpt lat="44.9397494" lon="8.0222235"><ele>167.0</ele><time>2026-05-06T12:48:31.881Z</time></trkpt><trkpt lat="44.9395951" lon="8.0222964"><ele>167.0</ele><time>2026-05-06T12:48:32.881Z</time></trkpt><trkpt lat="44.9394395" lon="8.0223738"><ele>167.0</ele><time>2026-05-06T12:48:33.881Z</time></trkpt><trkpt lat="44.9392815" lon="8.0224548"><ele>167.0</ele><time>2026-05-06T12:48:34.881Z</time></trkpt><trkpt lat="44.9391165" lon="8.0225436"><ele>168.33333333333331</ele><time>2026-05-06T12:48:35.881Z</time></trkpt><trkpt lat="44.9389462" lon="8.0226347"><ele>169.66666666666666</ele><time>2026-05-06T12:48:36.881Z</time></trkpt><trkpt lat="44.9387654" lon="8.0227282"><ele>171.0</ele><time>2026-05-06T12:48:37.881Z</time></trkpt><trkpt lat="44.9385744" lon="8.0228259"><ele>170.0</ele><time>2026-05-06T12:48:38.881Z</time></trkpt><trkpt lat="44.9383743" lon="8.022926"><ele>169.0</ele><time>2026-05-06T12:48:39.881Z</time></trkpt><trkpt lat="44.9381676" lon="8.0230247"><ele>168.0</ele><time>2026-05-06T12:48:40.881Z</time></trkpt><trkpt lat="44.9379462" lon="8.0231368"><ele>168.0</ele><time>2026-05-06T12:48:41.88Z</time></trkpt><trkpt lat="44.9377234" lon="8.0232485"><ele>168.0</ele><time>2026-05-06T12:48:42.881Z</time></trkpt><trkpt lat="44.9375032" lon="8.0233522"><ele>167.33333333333334</ele><time>2026-05-06T12:48:43.881Z</time></trkpt><trkpt lat="44.9373" lon="8.0234452"><ele>166.66666666666669</ele><time>2026-05-06T12:48:44.88Z</time></trkpt><trkpt lat="44.9371062" lon="8.023545"><ele>166.0</ele><time>2026-05-06T12:48:45.88Z</time></trkpt><trkpt lat="44.936917" lon="8.0236437"><ele>166.0</ele><time>2026-05-06T12:48:46.881Z</time></trkpt><trkpt lat="44.9367297" lon="8.0237445"><ele>166.0</ele><time>2026-05-06T12:48:47.88Z</time></trkpt><trkpt lat="44.9365386" lon="8.0238279"><ele>166.0</ele><time>2026-05-06T12:48:48.88Z</time></trkpt><trkpt lat="44.9363466" lon="8.0239237"><ele>166.66666666666669</ele><time>2026-05-06T12:48:49.881Z</time></trkpt><trkpt lat="44.936159" lon="8.0240154"><ele>167.33333333333334</ele><time>2026-05-06T12:48:50.881Z</time></trkpt><trkpt lat="44.9359658" lon="8.024119"><ele>168.0</ele><time>2026-05-06T12:48:51.881Z</time></trkpt><trkpt lat="44.9357777" lon="8.0242161"><ele>168.0</ele><time>2026-05-06T12:48:52.881Z</time></trkpt><trkpt lat="44.9355939" lon="8.0243287"><ele>168.0</ele><time>2026-05-06T12:48:53.881Z</time></trkpt><trkpt lat="44.9354026" lon="8.0244528"><ele>168.0</ele><time>2026-05-06T12:48:54.881Z</time></trkpt><trkpt lat="44.9352155" lon="8.024574"><ele>168.33333333333334</ele><time>2026-05-06T12:48:55.881Z</time></trkpt><trkpt lat="44.9350308" lon="8.024704"><ele>168.66666666666669</ele><time>2026-05-06T12:48:56.88Z</time></trkpt><trkpt lat="44.9348487" lon="8.0248313"><ele>169.0</ele><time>2026-05-06T12:48:57.881Z</time></trkpt><trkpt lat="44.9346629" lon="8.024952"><ele>169.66666666666669</ele><time>2026-05-06T12:48:58.881Z</time></trkpt><trkpt lat="44.9344828" lon="8.0250746"><ele>170.33333333333334</ele><time>2026-05-06T12:48:59.88Z</time></trkpt><trkpt lat="44.9343051" lon="8.0251908"><ele>171.0</ele><time>2026-05-06T12:49:00.881Z</time></trkpt><trkpt lat="44.9341353" lon="8.0253113"><ele>171.0</ele><time>2026-05-06T12:49:01.88Z</time></trkpt><trkpt lat="44.9339637" lon="8.0254434"><ele>171.0</ele><time>2026-05-06T12:49:02.881Z</time></trkpt><trkpt lat="44.9337889" lon="8.0255601"><ele>171.0</ele><time>2026-05-06T12:49:03.881Z</time></trkpt><trkpt lat="44.9336269" lon="8.0256711"><ele>171.0</ele><time>2026-05-06T12:49:04.881Z</time></trkpt><trkpt lat="44.9334619" lon="8.0257841"><ele>171.0</ele><time>2026-05-06T12:49:05.881Z</time></trkpt><trkpt lat="44.9332962" lon="8.0259008"><ele>171.0</ele><time>2026-05-06T12:49:06.881Z</time></trkpt><trkpt lat="44.9331366" lon="8.0260239"><ele>170.0</ele><time>2026-05-06T12:49:07.881Z</time></trkpt><trkpt lat="44.9329715" lon="8.0261436"><ele>169.0</ele><time>2026-05-06T12:49:08.881Z</time></trkpt><trkpt lat="44.9328118" lon="8.0262639"><ele>168.0</ele><time>2026-05-06T12:49:09.881Z</time></trkpt><trkpt lat="44.9326552" lon="8.0263747"><ele>167.66666666666666</ele><time>2026-05-06T12:49:10.881Z</time></trkpt><trkpt lat="44.932482" lon="8.0264962"><ele>167.33333333333331</ele><time>2026-05-06T12:49:11.881Z</time></trkpt><trkpt lat="44.932315" lon="8.0266088"><ele>167.0</ele><time>2026-05-06T12:49:12.881Z</time></trkpt><trkpt lat="44.9321371" lon="8.0267346"><ele>167.0</ele><time>2026-05-06T12:49:13.881Z</time></trkpt><trkpt lat="44.9319715" lon="8.0268525"><ele>167.0</ele><time>2026-05-06T12:49:14.88Z</time></trkpt><trkpt lat="44.9318064" lon="8.0269686"><ele>167.0</ele><time>2026-05-06T12:49:15.881Z</time></trkpt><trkpt lat="44.931655" lon="8.0270754"><ele>166.0</ele><time>2026-05-06T12:49:16.881Z</time></trkpt><trkpt lat="44.9315073" lon="8.0271763"><ele>165.0</ele><time>2026-05-06T12:49:17.881Z</time></trkpt><trkpt lat="44.931373" lon="8.027269"><ele>164.0</ele><time>2026-05-06T12:49:18.881Z</time></trkpt><trkpt lat="44.9312304" lon="8.0273704"><ele>164.0</ele><time>2026-05-06T12:49:19.881Z</time></trkpt><trkpt lat="44.931084" lon="8.0274761"><ele>164.0</ele><time>2026-05-06T12:49:20.881Z</time></trkpt><trkpt lat="44.9309386" lon="8.0275833"><ele>164.0</ele><time>2026-05-06T12:49:21.881Z</time></trkpt><trkpt lat="44.930785" lon="8.0276912"><ele>163.66666666666666</ele><time>2026-05-06T12:49:22.881Z</time></trkpt><trkpt lat="44.9306247" lon="8.0278209"><ele>163.33333333333334</ele><time>2026-05-06T12:49:23.881Z</time></trkpt><trkpt lat="44.9304649" lon="8.0279496"><ele>163.0</ele><time>2026-05-06T12:49:24.881Z</time></trkpt><trkpt lat="44.9303" lon="8.0281088"><ele>163.0</ele><time>2026-05-06T12:49:25.881Z</time></trkpt><trkpt lat="44.9301383" lon="8.0282683"><ele>163.0</ele><time>2026-05-06T12:49:26.881Z</time></trkpt><trkpt lat="44.9299859" lon="8.0284409"><ele>163.0</ele><time>2026-05-06T12:49:27.881Z</time></trkpt><trkpt lat="44.9298378" lon="8.0285955"><ele>162.0</ele><time>2026-05-06T12:49:28.881Z</time></trkpt><trkpt lat="44.9296755" lon="8.0287729"><ele>161.0</ele><time>2026-05-06T12:49:29.881Z</time></trkpt><trkpt lat="44.9295211" lon="8.0289472"><ele>160.0</ele><time>2026-05-06T12:49:30.881Z</time></trkpt><trkpt lat="44.9293662" lon="8.0291278"><ele>159.33333333333334</ele><time>2026-05-06T12:49:31.88Z</time></trkpt><trkpt lat="44.9292153" lon="8.0293036"><ele>158.66666666666666</ele><time>2026-05-06T12:49:32.88Z</time></trkpt><trkpt lat="44.9290551" lon="8.0294883"><ele>158.0</ele><time>2026-05-06T12:49:33.881Z</time></trkpt><trkpt lat="44.9288969" lon="8.0296697"><ele>158.0</ele><time>2026-05-06T12:49:34.88Z</time></trkpt><trkpt lat="44.9287281" lon="8.0298721"><ele>158.0</ele><time>2026-05-06T12:49:35.881Z</time></trkpt><trkpt lat="44.9285641" lon="8.0300709"><ele>158.0</ele><time>2026-05-06T12:49:36.88Z</time></trkpt><trkpt lat="44.9283919" lon="8.0302629"><ele>158.66666666666666</ele><time>2026-05-06T12:49:37.881Z</time></trkpt><trkpt lat="44.9282154" lon="8.0304422"><ele>159.33333333333334</ele><time>2026-05-06T12:49:38.881Z</time></trkpt><trkpt lat="44.9280314" lon="8.0306272"><ele>160.0</ele><time>2026-05-06T12:49:39.881Z</time></trkpt><trkpt lat="44.9278562" lon="8.0308013"><ele>160.33333333333334</ele><time>2026-05-06T12:49:40.88Z</time></trkpt><trkpt lat="44.9276761" lon="8.0309806"><ele>160.66666666666666</ele><time>2026-05-06T12:49:41.88Z</time></trkpt><trkpt lat="44.9274977" lon="8.0311649"><ele>161.0</ele><time>2026-05-06T12:49:42.881Z</time></trkpt><trkpt lat="44.9273191" lon="8.0313481"><ele>161.0</ele><time>2026-05-06T12:49:43.88Z</time></trkpt><trkpt lat="44.9271351" lon="8.0315322"><ele>161.0</ele><time>2026-05-06T12:49:44.881Z</time></trkpt><trkpt lat="44.9269579" lon="8.031714"><ele>161.0</ele><time>2026-05-06T12:49:45.88Z</time></trkpt><trkpt lat="44.9267735" lon="8.0318992"><ele>161.66666666666666</ele><time>2026-05-06T12:49:46.881Z</time></trkpt><trkpt lat="44.9265836" lon="8.0320634"><ele>162.33333333333334</ele><time>2026-05-06T12:49:47.881Z</time></trkpt><trkpt lat="44.9263914" lon="8.0322237"><ele>163.0</ele><time>2026-05-06T12:49:48.881Z</time></trkpt><trkpt lat="44.9261718" lon="8.0323226"><ele>163.0</ele><time>2026-05-06T12:49:49.881Z</time></trkpt><trkpt lat="44.9259592" lon="8.032436"><ele>163.0</ele><time>2026-05-06T12:49:50.88Z</time></trkpt><trkpt lat="44.925744" lon="8.0325477"><ele>164.66666666666669</ele><time>2026-05-06T12:49:51.881Z</time></trkpt><trkpt lat="44.9255304" lon="8.0326559"><ele>166.33333333333334</ele><time>2026-05-06T12:49:52.881Z</time></trkpt><trkpt lat="44.9253239" lon="8.0327631"><ele>168.0</ele><time>2026-05-06T12:49:53.881Z</time></trkpt><trkpt lat="44.9251175" lon="8.0328654"><ele>166.33333333333334</ele><time>2026-05-06T12:49:54.881Z</time></trkpt><trkpt lat="44.9249231" lon="8.0329648"><ele>164.66666666666669</ele><time>2026-05-06T12:49:55.881Z</time></trkpt><trkpt lat="44.9247289" lon="8.0330623"><ele>163.0</ele><time>2026-05-06T12:49:56.881Z</time></trkpt><trkpt lat="44.9245337" lon="8.0331621"><ele>163.0</ele><time>2026-05-06T12:49:57.881Z</time></trkpt><trkpt lat="44.9243482" lon="8.0332565"><ele>163.0</ele><time>2026-05-06T12:49:58.881Z</time></trkpt><trkpt lat="44.9241563" lon="8.0333533"><ele>163.0</ele><time>2026-05-06T12:49:59.881Z</time></trkpt><trkpt lat="44.923967" lon="8.0334623"><ele>162.66666666666669</ele><time>2026-05-06T12:50:00.88Z</time></trkpt><trkpt lat="44.9237978" lon="8.0335885"><ele>162.33333333333334</ele><time>2026-05-06T12:50:01.881Z</time></trkpt><trkpt lat="44.9236393" lon="8.0337434"><ele>162.0</ele><time>2026-05-06T12:50:02.881Z</time></trkpt><trkpt lat="44.9234912" lon="8.0339079"><ele>161.33333333333334</ele><time>2026-05-06T12:50:03.88Z</time></trkpt><trkpt lat="44.9233395" lon="8.0341146"><ele>160.66666666666669</ele><time>2026-05-06T12:50:04.881Z</time></trkpt><trkpt lat="44.9231856" lon="8.0343322"><ele>160.0</ele><time>2026-05-06T12:50:05.881Z</time></trkpt><trkpt lat="44.9230214" lon="8.0345443"><ele>160.0</ele><time>2026-05-06T12:50:06.881Z</time></trkpt><trkpt lat="44.9228592" lon="8.0347554"><ele>160.0</ele><time>2026-05-06T12:50:07.881Z</time></trkpt><trkpt lat="44.9226929" lon="8.0349641"><ele>160.0</ele><time>2026-05-06T12:50:08.881Z</time></trkpt><trkpt lat="44.9225295" lon="8.0351753"><ele>161.33333333333334</ele><time>2026-05-06T12:50:09.881Z</time></trkpt><trkpt lat="44.9223734" lon="8.0354012"><ele>162.66666666666666</ele><time>2026-05-06T12:50:10.881Z</time></trkpt><trkpt lat="44.9222183" lon="8.0356039"><ele>164.0</ele><time>2026-05-06T12:50:11.881Z</time></trkpt><trkpt lat="44.922057" lon="8.0358111"><ele>164.66666666666666</ele><time>2026-05-06T12:50:12.881Z</time></trkpt><trkpt lat="44.9218966" lon="8.0360135"><ele>165.33333333333334</ele><time>2026-05-06T12:50:13.88Z</time></trkpt><trkpt lat="44.921745" lon="8.0362192"><ele>166.0</ele><time>2026-05-06T12:50:14.881Z</time></trkpt><trkpt lat="44.9216024" lon="8.0364066"><ele>164.33333333333334</ele><time>2026-05-06T12:50:15.881Z</time></trkpt><trkpt lat="44.9214705" lon="8.0365834"><ele>162.66666666666666</ele><time>2026-05-06T12:50:16.88Z</time></trkpt><trkpt lat="44.9213446" lon="8.0367272"><ele>161.0</ele><time>2026-05-06T12:50:17.881Z</time></trkpt><trkpt lat="44.9212073" lon="8.0368498"><ele>161.0</ele><time>2026-05-06T12:50:18.881Z</time></trkpt><trkpt lat="44.9210559" lon="8.0369308"><ele>161.0</ele><time>2026-05-06T12:50:19.881Z</time></trkpt><trkpt lat="44.9208883" lon="8.036966"><ele>161.0</ele><time>2026-05-06T12:50:20.881Z</time></trkpt><trkpt lat="44.9207084" lon="8.0369502"><ele>159.66666666666666</ele><time>2026-05-06T12:50:21.881Z</time></trkpt><trkpt lat="44.9205242" lon="8.0369071"><ele>158.33333333333334</ele><time>2026-05-06T12:50:22.881Z</time></trkpt><trkpt lat="44.9203218" lon="8.0368595"><ele>157.0</ele><time>2026-05-06T12:50:23.881Z</time></trkpt><trkpt lat="44.9201122" lon="8.0368139"><ele>156.33333333333334</ele><time>2026-05-06T12:50:24.881Z</time></trkpt><trkpt lat="44.9199062" lon="8.0367673"><ele>155.66666666666666</ele><time>2026-05-06T12:50:25.881Z</time></trkpt><trkpt lat="44.9197051" lon="8.0367144"><ele>155.0</ele><time>2026-05-06T12:50:26.881Z</time></trkpt><trkpt lat="44.9195057" lon="8.0366617"><ele>155.0</ele><time>2026-05-06T12:50:27.881Z</time></trkpt><trkpt lat="44.9193093" lon="8.0366126"><ele>155.0</ele><time>2026-05-06T12:50:28.88Z</time></trkpt><trkpt lat="44.9191045" lon="8.0365625"><ele>155.0</ele><time>2026-05-06T12:50:29.881Z</time></trkpt><trkpt lat="44.9189038" lon="8.0365117"><ele>155.33333333333331</ele><time>2026-05-06T12:50:30.881Z</time></trkpt><trkpt lat="44.918702" lon="8.0364555"><ele>155.66666666666666</ele><time>2026-05-06T12:50:31.881Z</time></trkpt><trkpt lat="44.9185015" lon="8.0363899"><ele>156.0</ele><time>2026-05-06T12:50:32.88Z</time></trkpt><trkpt lat="44.918301" lon="8.0363317"><ele>156.0</ele><time>2026-05-06T12:50:33.881Z</time></trkpt><trkpt lat="44.9180981" lon="8.0362658"><ele>156.0</ele><time>2026-05-06T12:50:34.88Z</time></trkpt><trkpt lat="44.9178884" lon="8.0361969"><ele>156.0</ele><time>2026-05-06T12:50:35.881Z</time></trkpt><trkpt lat="44.9176752" lon="8.0361284"><ele>157.0</ele><time>2026-05-06T12:50:36.881Z</time></trkpt><trkpt lat="44.9174694" lon="8.0360578"><ele>158.0</ele><time>2026-05-06T12:50:37.881Z</time></trkpt><trkpt lat="44.9172687" lon="8.0359899"><ele>159.0</ele><time>2026-05-06T12:50:38.881Z</time></trkpt><trkpt lat="44.9170721" lon="8.0359191"><ele>159.0</ele><time>2026-05-06T12:50:39.881Z</time></trkpt><trkpt lat="44.9168883" lon="8.035851"><ele>159.0</ele><time>2026-05-06T12:50:40.88Z</time></trkpt><trkpt lat="44.9167166" lon="8.0357945"><ele>159.0</ele><time>2026-05-06T12:50:41.88Z</time></trkpt><trkpt lat="44.9165564" lon="8.0357285"><ele>158.33333333333334</ele><time>2026-05-06T12:50:42.881Z</time></trkpt><trkpt lat="44.9164057" lon="8.0356707"><ele>157.66666666666669</ele><time>2026-05-06T12:50:43.881Z</time></trkpt><trkpt lat="44.9162618" lon="8.0355835"><ele>157.0</ele><time>2026-05-06T12:50:44.881Z</time></trkpt><trkpt lat="44.9161213" lon="8.0354868"><ele>157.0</ele><time>2026-05-06T12:50:45.881Z</time></trkpt><trkpt lat="44.9159875" lon="8.03538"><ele>157.0</ele><time>2026-05-06T12:50:46.88Z</time></trkpt><trkpt lat="44.9158697" lon="8.0352727"><ele>157.0</ele><time>2026-05-06T12:50:47.881Z</time></trkpt><trkpt lat="44.9157639" lon="8.0351734"><ele>157.0</ele><time>2026-05-06T12:50:48.881Z</time></trkpt><trkpt lat="44.9156797" lon="8.0350773"><ele>157.8</ele><time>2026-05-06T12:50:49.88Z</time></trkpt><trkpt lat="44.9156149" lon="8.0349711"><ele>158.6</ele><time>2026-05-06T12:50:50.881Z</time></trkpt><trkpt lat="44.9155852" lon="8.034833"><ele>159.4</ele><time>2026-05-06T12:50:51.88Z</time></trkpt><trkpt lat="44.9155782" lon="8.0346804"><ele>160.20000000000002</ele><time>2026-05-06T12:50:52.88Z</time></trkpt><trkpt lat="44.9156132" lon="8.0345192"><ele>161.0</ele><time>2026-05-06T12:50:53.881Z</time></trkpt><trkpt lat="44.9156774" lon="8.0343464"><ele>161.0</ele><time>2026-05-06T12:50:54.881Z</time></trkpt><trkpt lat="44.9157554" lon="8.0341682"><ele>161.0</ele><time>2026-05-06T12:50:55.881Z</time></trkpt><trkpt lat="44.9158318" lon="8.0339897"><ele>161.0</ele><time>2026-05-06T12:50:56.881Z</time></trkpt><trkpt lat="44.9159027" lon="8.0338214"><ele>161.0</ele><time>2026-05-06T12:50:57.881Z</time></trkpt><trkpt lat="44.9159876" lon="8.0336696"><ele>161.25</ele><time>2026-05-06T12:50:58.881Z</time></trkpt><trkpt lat="44.9160986" lon="8.0335376"><ele>161.5</ele><time>2026-05-06T12:50:59.881Z</time></trkpt><trkpt lat="44.9162149" lon="8.033445"><ele>161.75</ele><time>2026-05-06T12:51:00.881Z</time></trkpt><trkpt lat="44.9163345" lon="8.0333496"><ele>162.0</ele><time>2026-05-06T12:51:01.881Z</time></trkpt><trkpt lat="44.9164398" lon="8.0332663"><ele>162.2</ele><time>2026-05-06T12:51:02.881Z</time></trkpt><trkpt lat="44.9165202" lon="8.0331771"><ele>162.39999999999998</ele><time>2026-05-06T12:51:03.881Z</time></trkpt><trkpt lat="44.9165844" lon="8.0330781"><ele>162.60000000000002</ele><time>2026-05-06T12:51:04.881Z</time></trkpt><trkpt lat="44.9166138" lon="8.0329554"><ele>162.8</ele><time>2026-05-06T12:51:05.88Z</time></trkpt><trkpt lat="44.9166131" lon="8.0328301"><ele>163.0</ele><time>2026-05-06T12:51:06.881Z</time></trkpt><trkpt lat="44.9165889" lon="8.0327177"><ele>163.0</ele><time>2026-05-06T12:51:07.88Z</time></trkpt><trkpt lat="44.9165325" lon="8.0326217"><ele>163.0</ele><time>2026-05-06T12:51:08.88Z</time></trkpt><trkpt lat="44.9164785" lon="8.0325387"><ele>163.0</ele><time>2026-05-06T12:51:09.881Z</time></trkpt><trkpt lat="44.9164365" lon="8.0324462"><ele>163.0</ele><time>2026-05-06T12:51:10.88Z</time></trkpt><trkpt lat="44.9164114" lon="8.0323418"><ele>163.0</ele><time>2026-05-06T12:51:11.881Z</time></trkpt><trkpt lat="44.9163909" lon="8.0322535"><ele>163.0</ele><time>2026-05-06T12:51:12.881Z</time></trkpt><trkpt lat="44.9163593" lon="8.0321662"><ele>163.33333333333334</ele><time>2026-05-06T12:51:13.88Z</time></trkpt><trkpt lat="44.9163024" lon="8.0320782"><ele>163.66666666666669</ele><time>2026-05-06T12:51:14.88Z</time></trkpt><trkpt lat="44.9162324" lon="8.0320412"><ele>164.0</ele><time>2026-05-06T12:51:15.881Z</time></trkpt><trkpt lat="44.9161598" lon="8.0320412"><ele>164.33333333333334</ele><time>2026-05-06T12:51:16.88Z</time></trkpt><trkpt lat="44.9160957" lon="8.0321035"><ele>164.66666666666666</ele><time>2026-05-06T12:51:17.881Z</time></trkpt><trkpt lat="44.9160515" lon="8.032203"><ele>165.0</ele><time>2026-05-06T12:51:18.881Z</time></trkpt><trkpt lat="44.916029" lon="8.0323304"><ele>164.75</ele><time>2026-05-06T12:51:19.881Z</time></trkpt><trkpt lat="44.9160093" lon="8.0324817"><ele>164.5</ele><time>2026-05-06T12:51:20.881Z</time></trkpt><trkpt lat="44.915977" lon="8.0326448"><ele>164.25</ele><time>2026-05-06T12:51:21.881Z</time></trkpt><trkpt lat="44.9159153" lon="8.0328028"><ele>164.0</ele><time>2026-05-06T12:51:22.881Z</time></trkpt><trkpt lat="44.9158329" lon="8.0329783"><ele>164.0</ele><time>2026-05-06T12:51:23.881Z</time></trkpt><trkpt lat="44.9157393" lon="8.0331628"><ele>164.0</ele><time>2026-05-06T12:51:24.881Z</time></trkpt><trkpt lat="44.9156414" lon="8.0333544"><ele>164.0</ele><time>2026-05-06T12:51:25.881Z</time></trkpt><trkpt lat="44.9155481" lon="8.0335566"><ele>163.66666666666666</ele><time>2026-05-06T12:51:26.88Z</time></trkpt><trkpt lat="44.9154503" lon="8.033748"><ele>163.33333333333334</ele><time>2026-05-06T12:51:27.881Z</time></trkpt><trkpt lat="44.9153521" lon="8.033945"><ele>163.0</ele><time>2026-05-06T12:51:28.881Z</time></trkpt><trkpt lat="44.9152588" lon="8.0341423"><ele>163.0</ele><time>2026-05-06T12:51:29.881Z</time></trkpt><trkpt lat="44.9151736" lon="8.0343447"><ele>163.0</ele><time>2026-05-06T12:51:30.881Z</time></trkpt><trkpt lat="44.9150838" lon="8.0345217"><ele>163.0</ele><time>2026-05-06T12:51:31.881Z</time></trkpt><trkpt lat="44.9150013" lon="8.0346907"><ele>163.0</ele><time>2026-05-06T12:51:32.88Z</time></trkpt><trkpt lat="44.9149179" lon="8.0348404"><ele>163.0</ele><time>2026-05-06T12:51:33.881Z</time></trkpt><trkpt lat="44.9148436" lon="8.0349917"><ele>163.0</ele><time>2026-05-06T12:51:34.881Z</time></trkpt><trkpt lat="44.9147751" lon="8.0351212"><ele>163.0</ele><time>2026-05-06T12:51:35.881Z</time></trkpt><trkpt lat="44.9147123" lon="8.0352415"><ele>162.8</ele><time>2026-05-06T12:51:36.881Z</time></trkpt><trkpt lat="44.9146514" lon="8.0353428"><ele>162.60000000000002</ele><time>2026-05-06T12:51:37.881Z</time></trkpt><trkpt lat="44.9145783" lon="8.0354128"><ele>162.39999999999998</ele><time>2026-05-06T12:51:38.88Z</time></trkpt><trkpt lat="44.914486" lon="8.0354399"><ele>162.2</ele><time>2026-05-06T12:51:39.881Z</time></trkpt><trkpt lat="44.9143943" lon="8.0354191"><ele>162.0</ele><time>2026-05-06T12:51:40.88Z</time></trkpt><trkpt lat="44.9143028" lon="8.0354184"><ele>162.2</ele><time>2026-05-06T12:51:41.881Z</time></trkpt><trkpt lat="44.9142214" lon="8.0354485"><ele>162.39999999999998</ele><time>2026-05-06T12:51:42.88Z</time></trkpt><trkpt lat="44.914144" lon="8.0355333"><ele>162.60000000000002</ele><time>2026-05-06T12:51:43.881Z</time></trkpt><trkpt lat="44.9140877" lon="8.0356662"><ele>162.8</ele><time>2026-05-06T12:51:44.881Z</time></trkpt><trkpt lat="44.9140538" lon="8.0358112"><ele>163.0</ele><time>2026-05-06T12:51:45.88Z</time></trkpt><trkpt lat="44.9140161" lon="8.0359683"><ele>163.0</ele><time>2026-05-06T12:51:46.881Z</time></trkpt><trkpt lat="44.9139621" lon="8.0360925"><ele>163.0</ele><time>2026-05-06T12:51:47.881Z</time></trkpt><trkpt lat="44.9138908" lon="8.0361904"><ele>163.0</ele><time>2026-05-06T12:51:48.88Z</time></trkpt><trkpt lat="44.9137919" lon="8.0362203"><ele>163.0</ele><time>2026-05-06T12:51:49.881Z</time></trkpt><trkpt lat="44.9136962" lon="8.0362034"><ele>163.0</ele><time>2026-05-06T12:51:50.88Z</time></trkpt><trkpt lat="44.9135987" lon="8.0361283"><ele>163.0</ele><time>2026-05-06T12:51:51.881Z</time></trkpt><trkpt lat="44.9134984" lon="8.0360152"><ele>163.0</ele><time>2026-05-06T12:51:52.881Z</time></trkpt><trkpt lat="44.9134135" lon="8.0358924"><ele>163.0</ele><time>2026-05-06T12:51:53.881Z</time></trkpt><trkpt lat="44.9133636" lon="8.0357545"><ele>163.0</ele><time>2026-05-06T12:51:54.881Z</time></trkpt><trkpt lat="44.9133245" lon="8.0356214"><ele>165.2</ele><time>2026-05-06T12:51:55.881Z</time></trkpt><trkpt lat="44.9132825" lon="8.0355017"><ele>167.4</ele><time>2026-05-06T12:51:56.88Z</time></trkpt><trkpt lat="44.913248" lon="8.0353967"><ele>169.6</ele><time>2026-05-06T12:51:57.881Z</time></trkpt><trkpt lat="44.913188" lon="8.0353065"><ele>171.79999999999998</ele><time>2026-05-06T12:51:58.881Z</time></trkpt><trkpt lat="44.9131139" lon="8.0352365"><ele>174.0</ele><time>2026-05-06T12:51:59.881Z</time></trkpt><trkpt lat="44.9130186" lon="8.0351876"><ele>174.0</ele><time>2026-05-06T12:52:00.881Z</time></trkpt><trkpt lat="44.9129028" lon="8.0351449"><ele>174.0</ele><time>2026-05-06T12:52:01.88Z</time></trkpt><trkpt lat="44.9127834" lon="8.0350839"><ele>174.0</ele><time>2026-05-06T12:52:02.881Z</time></trkpt><trkpt lat="44.9126663" lon="8.0350103"><ele>174.0</ele><time>2026-05-06T12:52:03.881Z</time></trkpt><trkpt lat="44.9125513" lon="8.0349286"><ele>173.0</ele><time>2026-05-06T12:52:04.881Z</time></trkpt><trkpt lat="44.9124374" lon="8.034819"><ele>172.0</ele><time>2026-05-06T12:52:05.881Z</time></trkpt><trkpt lat="44.9123405" lon="8.0346794"><ele>171.0</ele><time>2026-05-06T12:52:06.881Z</time></trkpt><trkpt lat="44.9122479" lon="8.0345296"><ele>170.0</ele><time>2026-05-06T12:52:07.88Z</time></trkpt><trkpt lat="44.9121551" lon="8.0343694"><ele>170.0</ele><time>2026-05-06T12:52:08.881Z</time></trkpt><trkpt lat="44.9120625" lon="8.0342088"><ele>170.0</ele><time>2026-05-06T12:52:09.881Z</time></trkpt><trkpt lat="44.9119714" lon="8.0340559"><ele>170.0</ele><time>2026-05-06T12:52:10.881Z</time></trkpt><trkpt lat="44.9118778" lon="8.0338845"><ele>170.0</ele><time>2026-05-06T12:52:11.88Z</time></trkpt><trkpt lat="44.911794" lon="8.0337308"><ele>169.5</ele><time>2026-05-06T12:52:12.88Z</time></trkpt><trkpt lat="44.9117019" lon="8.0335811"><ele>169.0</ele><time>2026-05-06T12:52:13.881Z</time></trkpt><trkpt lat="44.9116097" lon="8.0334329"><ele>168.5</ele><time>2026-05-06T12:52:14.881Z</time></trkpt><trkpt lat="44.9115209" lon="8.033278"><ele>168.0</ele><time>2026-05-06T12:52:15.881Z</time></trkpt><trkpt lat="44.9114239" lon="8.033113"><ele>168.0</ele><time>2026-05-06T12:52:16.881Z</time></trkpt><trkpt lat="44.9113261" lon="8.0329521"><ele>168.0</ele><time>2026-05-06T12:52:17.88Z</time></trkpt><trkpt lat="44.9112271" lon="8.0327968"><ele>168.0</ele><time>2026-05-06T12:52:18.881Z</time></trkpt><trkpt lat="44.9111404" lon="8.0326494"><ele>168.0</ele><time>2026-05-06T12:52:19.88Z</time></trkpt><trkpt lat="44.9110556" lon="8.0325143"><ele>167.75</ele><time>2026-05-06T12:52:20.881Z</time></trkpt><trkpt lat="44.9109822" lon="8.032379"><ele>167.5</ele><time>2026-05-06T12:52:21.881Z</time></trkpt><trkpt lat="44.9109135" lon="8.0322509"><ele>167.25</ele><time>2026-05-06T12:52:22.88Z</time></trkpt><trkpt lat="44.9108523" lon="8.0321135"><ele>167.0</ele><time>2026-05-06T12:52:23.881Z</time></trkpt><trkpt lat="44.9107789" lon="8.0319815"><ele>167.0</ele><time>2026-05-06T12:52:24.881Z</time></trkpt><trkpt lat="44.9106863" lon="8.0318546"><ele>167.0</ele><time>2026-05-06T12:52:25.881Z</time></trkpt><trkpt lat="44.9105963" lon="8.0317114"><ele>167.0</ele><time>2026-05-06T12:52:26.88Z</time></trkpt><trkpt lat="44.9105078" lon="8.0315575"><ele>167.0</ele><time>2026-05-06T12:52:27.881Z</time></trkpt><trkpt lat="44.9104097" lon="8.0314041"><ele>167.0</ele><time>2026-05-06T12:52:28.881Z</time></trkpt><trkpt lat="44.9103171" lon="8.0312367"><ele>167.0</ele><time>2026-05-06T12:52:29.881Z</time></trkpt><trkpt lat="44.9102186" lon="8.0310553"><ele>167.0</ele><time>2026-05-06T12:52:30.881Z</time></trkpt><trkpt lat="44.9101121" lon="8.030875"><ele>167.66666666666666</ele><time>2026-05-06T12:52:31.88Z</time></trkpt><trkpt lat="44.9100075" lon="8.0306936"><ele>168.33333333333334</ele><time>2026-05-06T12:52:32.881Z</time></trkpt><trkpt lat="44.9098978" lon="8.0305137"><ele>169.0</ele><time>2026-05-06T12:52:33.881Z</time></trkpt><trkpt lat="44.9097829" lon="8.0303333"><ele>169.0</ele><time>2026-05-06T12:52:34.881Z</time></trkpt><trkpt lat="44.909675" lon="8.030161"><ele>169.0</ele><time>2026-05-06T12:52:35.881Z</time></trkpt><trkpt lat="44.9095645" lon="8.0299698"><ele>169.0</ele><time>2026-05-06T12:52:36.881Z</time></trkpt><trkpt lat="44.909442" lon="8.0297726"><ele>169.0</ele><time>2026-05-06T12:52:37.88Z</time></trkpt><trkpt lat="44.9093211" lon="8.0295574"><ele>169.0</ele><time>2026-05-06T12:52:38.881Z</time></trkpt><trkpt lat="44.9092016" lon="8.0293471"><ele>169.0</ele><time>2026-05-06T12:52:39.881Z</time></trkpt><trkpt lat="44.9090794" lon="8.0291273"><ele>168.0</ele><time>2026-05-06T12:52:40.88Z</time></trkpt><trkpt lat="44.9089507" lon="8.0289104"><ele>167.0</ele><time>2026-05-06T12:52:41.881Z</time></trkpt><trkpt lat="44.9088141" lon="8.028699"><ele>166.0</ele><time>2026-05-06T12:52:42.881Z</time></trkpt><trkpt lat="44.9086916" lon="8.0284862"><ele>166.66666666666669</ele><time>2026-05-06T12:52:43.88Z</time></trkpt><trkpt lat="44.9085606" lon="8.0282802"><ele>167.33333333333334</ele><time>2026-05-06T12:52:44.88Z</time></trkpt><trkpt lat="44.9084358" lon="8.0280794"><ele>168.0</ele><time>2026-05-06T12:52:45.881Z</time></trkpt><trkpt lat="44.9083032" lon="8.0278728"><ele>168.0</ele><time>2026-05-06T12:52:46.881Z</time></trkpt><trkpt lat="44.9081801" lon="8.0276626"><ele>168.0</ele><time>2026-05-06T12:52:47.881Z</time></trkpt><trkpt lat="44.9080501" lon="8.0274542"><ele>168.0</ele><time>2026-05-06T12:52:48.881Z</time></trkpt><trkpt lat="44.9079243" lon="8.0272317"><ele>168.66666666666666</ele><time>2026-05-06T12:52:49.881Z</time></trkpt><trkpt lat="44.9077911" lon="8.0270109"><ele>169.33333333333331</ele><time>2026-05-06T12:52:50.881Z</time></trkpt><trkpt lat="44.9076557" lon="8.026782"><ele>170.0</ele><time>2026-05-06T12:52:51.881Z</time></trkpt><trkpt lat="44.9075235" lon="8.0265608"><ele>170.33333333333331</ele><time>2026-05-06T12:52:52.881Z</time></trkpt><trkpt lat="44.9073869" lon="8.0263384"><ele>170.66666666666666</ele><time>2026-05-06T12:52:53.881Z</time></trkpt><trkpt lat="44.9072492" lon="8.0261108"><ele>171.0</ele><time>2026-05-06T12:52:54.881Z</time></trkpt><trkpt lat="44.9071127" lon="8.0258899"><ele>171.33333333333334</ele><time>2026-05-06T12:52:55.881Z</time></trkpt><trkpt lat="44.9069748" lon="8.0256652"><ele>171.66666666666669</ele><time>2026-05-06T12:52:56.881Z</time></trkpt><trkpt lat="44.906837" lon="8.0254371"><ele>172.0</ele><time>2026-05-06T12:52:57.88Z</time></trkpt><trkpt lat="44.9066977" lon="8.0252093"><ele>173.66666666666669</ele><time>2026-05-06T12:52:58.881Z</time></trkpt><trkpt lat="44.9065612" lon="8.0249756"><ele>175.33333333333334</ele><time>2026-05-06T12:52:59.881Z</time></trkpt><trkpt lat="44.9064206" lon="8.02474"><ele>177.0</ele><time>2026-05-06T12:53:00.881Z</time></trkpt><trkpt lat="44.9062715" lon="8.0245039"><ele>177.0</ele><time>2026-05-06T12:53:01.881Z</time></trkpt><trkpt lat="44.9061243" lon="8.0242586"><ele>177.0</ele><time>2026-05-06T12:53:02.881Z</time></trkpt><trkpt lat="44.9059773" lon="8.0240222"><ele>176.0</ele><time>2026-05-06T12:53:03.88Z</time></trkpt><trkpt lat="44.9058267" lon="8.023785"><ele>175.0</ele><time>2026-05-06T12:53:04.88Z</time></trkpt><trkpt lat="44.9056796" lon="8.0235436"><ele>177.5</ele><time>2026-05-06T12:53:05.881Z</time></trkpt><trkpt lat="44.9055399" lon="8.0232991"><ele>180.0</ele><time>2026-05-06T12:53:06.881Z</time></trkpt><trkpt lat="44.9053988" lon="8.0230438"><ele>180.0</ele><time>2026-05-06T12:53:07.881Z</time></trkpt><trkpt lat="44.9052525" lon="8.0227967"><ele>180.0</ele><time>2026-05-06T12:53:08.88Z</time></trkpt><trkpt lat="44.9050977" lon="8.0225571"><ele>174.5</ele><time>2026-05-06T12:53:09.881Z</time></trkpt><trkpt lat="44.9049394" lon="8.0223247"><ele>169.0</ele><time>2026-05-06T12:53:10.881Z</time></trkpt><trkpt lat="44.9047646" lon="8.0221019"><ele>169.0</ele><time>2026-05-06T12:53:11.881Z</time></trkpt><trkpt lat="44.904587" lon="8.0218829"><ele>169.0</ele><time>2026-05-06T12:53:12.881Z</time></trkpt><trkpt lat="44.9044081" lon="8.0216703"><ele>170.5</ele><time>2026-05-06T12:53:13.88Z</time></trkpt><trkpt lat="44.9042226" lon="8.0214595"><ele>172.0</ele><time>2026-05-06T12:53:14.88Z</time></trkpt><trkpt lat="44.9040368" lon="8.021256"><ele>172.0</ele><time>2026-05-06T12:53:15.881Z</time></trkpt><trkpt lat="44.9038534" lon="8.0210477"><ele>172.0</ele><time>2026-05-06T12:53:16.881Z</time></trkpt><trkpt lat="44.9036704" lon="8.0208393"><ele>174.5</ele><time>2026-05-06T12:53:17.881Z</time></trkpt><trkpt lat="44.9034808" lon="8.0206315"><ele>177.0</ele><time>2026-05-06T12:53:18.881Z</time></trkpt><trkpt lat="44.9032989" lon="8.0204202"><ele>177.0</ele><time>2026-05-06T12:53:19.881Z</time></trkpt><trkpt lat="44.9031259" lon="8.0201976"><ele>177.0</ele><time>2026-05-06T12:53:20.881Z</time></trkpt><trkpt lat="44.9029513" lon="8.0199692"><ele>178.5</ele><time>2026-05-06T12:53:21.881Z</time></trkpt><trkpt lat="44.902785" lon="8.0197319"><ele>180.0</ele><time>2026-05-06T12:53:22.881Z</time></trkpt><trkpt lat="44.9026109" lon="8.0194981"><ele>179.0</ele><time>2026-05-06T12:53:23.881Z</time></trkpt><trkpt lat="44.9024422" lon="8.0192692"><ele>178.0</ele><time>2026-05-06T12:53:24.88Z</time></trkpt><trkpt lat="44.902276" lon="8.0190347"><ele>178.0</ele><time>2026-05-06T12:53:25.881Z</time></trkpt><trkpt lat="44.902112" lon="8.0188067"><ele>178.0</ele><time>2026-05-06T12:53:26.88Z</time></trkpt><trkpt lat="44.9019448" lon="8.0185728"><ele>178.0</ele><time>2026-05-06T12:53:27.881Z</time></trkpt><trkpt lat="44.9017776" lon="8.0183445"><ele>178.0</ele><time>2026-05-06T12:53:28.881Z</time></trkpt><trkpt lat="44.9016083" lon="8.0181157"><ele>177.5</ele><time>2026-05-06T12:53:29.881Z</time></trkpt><trkpt lat="44.9014426" lon="8.0178893"><ele>177.0</ele><time>2026-05-06T12:53:30.881Z</time></trkpt><trkpt lat="44.9012809" lon="8.0176563"><ele>177.5</ele><time>2026-05-06T12:53:31.881Z</time></trkpt><trkpt lat="44.9011165" lon="8.0174258"><ele>178.0</ele><time>2026-05-06T12:53:32.88Z</time></trkpt><trkpt lat="44.9009561" lon="8.0171941"><ele>179.0</ele><time>2026-05-06T12:53:33.881Z</time></trkpt><trkpt lat="44.9007878" lon="8.0169721"><ele>180.0</ele><time>2026-05-06T12:53:34.881Z</time></trkpt><trkpt lat="44.9006291" lon="8.0167564"><ele>180.0</ele><time>2026-05-06T12:53:35.88Z</time></trkpt><trkpt lat="44.9004661" lon="8.0165279"><ele>180.0</ele><time>2026-05-06T12:53:36.881Z</time></trkpt><trkpt lat="44.9003019" lon="8.016292"><ele>180.0</ele><time>2026-05-06T12:53:37.88Z</time></trkpt><trkpt lat="44.9001377" lon="8.0160529"><ele>180.0</ele><time>2026-05-06T12:53:38.881Z</time></trkpt><trkpt lat="44.8999693" lon="8.0158138"><ele>179.5</ele><time>2026-05-06T12:53:39.881Z</time></trkpt><trkpt lat="44.8997985" lon="8.015577"><ele>179.0</ele><time>2026-05-06T12:53:40.881Z</time></trkpt><trkpt lat="44.8996323" lon="8.0153416"><ele>179.0</ele><time>2026-05-06T12:53:41.881Z</time></trkpt><trkpt lat="44.8994713" lon="8.015112"><ele>179.0</ele><time>2026-05-06T12:53:42.881Z</time></trkpt><trkpt lat="44.8993107" lon="8.0148877"><ele>179.0</ele><time>2026-05-06T12:53:43.881Z</time></trkpt><trkpt lat="44.8991489" lon="8.0146594"><ele>179.0</ele><time>2026-05-06T12:53:44.881Z</time></trkpt><trkpt lat="44.8989885" lon="8.014436"><ele>179.0</ele><time>2026-05-06T12:53:45.881Z</time></trkpt><trkpt lat="44.8988242" lon="8.0142085"><ele>179.0</ele><time>2026-05-06T12:53:46.881Z</time></trkpt><trkpt lat="44.8986565" lon="8.0139739"><ele>179.5</ele><time>2026-05-06T12:53:47.881Z</time></trkpt><trkpt lat="44.8984881" lon="8.0137384"><ele>180.0</ele><time>2026-05-06T12:53:48.881Z</time></trkpt><trkpt lat="44.8983166" lon="8.0135028"><ele>180.0</ele><time>2026-05-06T12:53:49.881Z</time></trkpt><trkpt lat="44.8981305" lon="8.0132615"><ele>180.0</ele><time>2026-05-06T12:53:50.88Z</time></trkpt><trkpt lat="44.8979511" lon="8.0130142"><ele>180.0</ele><time>2026-05-06T12:53:51.881Z</time></trkpt><trkpt lat="44.8977697" lon="8.0127637"><ele>180.0</ele><time>2026-05-06T12:53:52.88Z</time></trkpt><trkpt lat="44.8975988" lon="8.0125139"><ele>180.0</ele><time>2026-05-06T12:53:53.881Z</time></trkpt><trkpt lat="44.8974332" lon="8.0122571"><ele>180.0</ele><time>2026-05-06T12:53:54.881Z</time></trkpt><trkpt lat="44.8972642" lon="8.0120179"><ele>180.0</ele><time>2026-05-06T12:53:55.881Z</time></trkpt><trkpt lat="44.8970864" lon="8.0117668"><ele>180.0</ele><time>2026-05-06T12:53:56.881Z</time></trkpt><trkpt lat="44.8969085" lon="8.0115184"><ele>179.0</ele><time>2026-05-06T12:53:57.881Z</time></trkpt><trkpt lat="44.8967341" lon="8.0112688"><ele>178.0</ele><time>2026-05-06T12:53:58.881Z</time></trkpt><trkpt lat="44.8965547" lon="8.0110334"><ele>177.5</ele><time>2026-05-06T12:53:59.881Z</time></trkpt><trkpt lat="44.8963774" lon="8.010817"><ele>177.0</ele><time>2026-05-06T12:54:00.881Z</time></trkpt><trkpt lat="44.8962056" lon="8.0106208"><ele>177.0</ele><time>2026-05-06T12:54:01.881Z</time></trkpt><trkpt lat="44.8960267" lon="8.0104382"><ele>177.0</ele><time>2026-05-06T12:54:02.881Z</time></trkpt><trkpt lat="44.895852" lon="8.0102657"><ele>177.0</ele><time>2026-05-06T12:54:03.881Z</time></trkpt><trkpt lat="44.8956667" lon="8.0101092"><ele>180.66666666666666</ele><time>2026-05-06T12:54:04.881Z</time></trkpt><trkpt lat="44.8954769" lon="8.0099413"><ele>184.33333333333331</ele><time>2026-05-06T12:54:05.88Z</time></trkpt><trkpt lat="44.8952895" lon="8.0097759"><ele>188.0</ele><time>2026-05-06T12:54:06.881Z</time></trkpt><trkpt lat="44.8950972" lon="8.0096176"><ele>188.5</ele><time>2026-05-06T12:54:07.881Z</time></trkpt><trkpt lat="44.8949026" lon="8.0094509"><ele>189.0</ele><time>2026-05-06T12:54:08.881Z</time></trkpt><trkpt lat="44.8947024" lon="8.0092883"><ele>189.66666666666666</ele><time>2026-05-06T12:54:09.881Z</time></trkpt><trkpt lat="44.8945027" lon="8.0091264"><ele>190.33333333333331</ele><time>2026-05-06T12:54:10.88Z</time></trkpt><trkpt lat="44.8943226" lon="8.0089697"><ele>191.0</ele><time>2026-05-06T12:54:11.881Z</time></trkpt><trkpt lat="44.8941358" lon="8.0088135"><ele>191.0</ele><time>2026-05-06T12:54:12.881Z</time></trkpt><trkpt lat="44.8939472" lon="8.0086566"><ele>191.0</ele><time>2026-05-06T12:54:13.881Z</time></trkpt><trkpt lat="44.8937585" lon="8.0084871"><ele>191.0</ele><time>2026-05-06T12:54:14.881Z</time></trkpt><trkpt lat="44.8935695" lon="8.0083409"><ele>191.0</ele><time>2026-05-06T12:54:15.881Z</time></trkpt><trkpt lat="44.8933807" lon="8.0081852"><ele>191.0</ele><time>2026-05-06T12:54:16.881Z</time></trkpt><trkpt lat="44.8931966" lon="8.0080395"><ele>191.0</ele><time>2026-05-06T12:54:17.881Z</time></trkpt><trkpt lat="44.8930122" lon="8.0078861"><ele>191.0</ele><time>2026-05-06T12:54:18.881Z</time></trkpt><trkpt lat="44.8928248" lon="8.007742"><ele>191.0</ele><time>2026-05-06T12:54:19.881Z</time></trkpt><trkpt lat="44.892647" lon="8.0075982"><ele>191.0</ele><time>2026-05-06T12:54:20.881Z</time></trkpt><trkpt lat="44.8924591" lon="8.0074486"><ele>190.0</ele><time>2026-05-06T12:54:21.881Z</time></trkpt><trkpt lat="44.8922753" lon="8.0073021"><ele>189.0</ele><time>2026-05-06T12:54:22.881Z</time></trkpt><trkpt lat="44.8921079" lon="8.0071714"><ele>188.0</ele><time>2026-05-06T12:54:23.88Z</time></trkpt><trkpt lat="44.8919362" lon="8.0070242"><ele>188.0</ele><time>2026-05-06T12:54:24.881Z</time></trkpt><trkpt lat="44.8917651" lon="8.0068985"><ele>188.0</ele><time>2026-05-06T12:54:25.881Z</time></trkpt><trkpt lat="44.8916059" lon="8.0067754"><ele>188.0</ele><time>2026-05-06T12:54:26.881Z</time></trkpt><trkpt lat="44.8914545" lon="8.0066611"><ele>188.0</ele><time>2026-05-06T12:54:27.881Z</time></trkpt><trkpt lat="44.8913063" lon="8.0065543"><ele>188.0</ele><time>2026-05-06T12:54:28.881Z</time></trkpt><trkpt lat="44.8911652" lon="8.0064528"><ele>188.0</ele><time>2026-05-06T12:54:29.881Z</time></trkpt><trkpt lat="44.8910405" lon="8.0063616"><ele>188.0</ele><time>2026-05-06T12:54:30.881Z</time></trkpt><trkpt lat="44.8909396" lon="8.0062821"><ele>188.0</ele><time>2026-05-06T12:54:31.88Z</time></trkpt><trkpt lat="44.8908471" lon="8.0062002"><ele>188.0</ele><time>2026-05-06T12:54:32.881Z</time></trkpt><trkpt lat="44.8907808" lon="8.0061505"><ele>188.0</ele><time>2026-05-06T12:54:33.881Z</time></trkpt><trkpt lat="44.8907258" lon="8.0060154"><ele>188.0</ele><time>2026-05-06T12:54:35.881Z</time></trkpt><trkpt lat="44.8907583" lon="8.0058558"><ele>190.0</ele><time>2026-05-06T12:54:37.881Z</time></trkpt><trkpt lat="44.8907558" lon="8.0057427"><ele>192.0</ele><time>2026-05-06T12:54:38.881Z</time></trkpt><trkpt lat="44.8907371" lon="8.0056071"><ele>194.0</ele><time>2026-05-06T12:54:39.881Z</time></trkpt><trkpt lat="44.8907015" lon="8.0054674"><ele>196.0</ele><time>2026-05-06T12:54:40.881Z</time></trkpt><trkpt lat="44.8906805" lon="8.005299"><ele>198.0</ele><time>2026-05-06T12:54:41.881Z</time></trkpt><trkpt lat="44.8906429" lon="8.0051282"><ele>198.25</ele><time>2026-05-06T12:54:42.881Z</time></trkpt><trkpt lat="44.8906102" lon="8.0049506"><ele>198.5</ele><time>2026-05-06T12:54:43.881Z</time></trkpt><trkpt lat="44.8905771" lon="8.0047773"><ele>198.75</ele><time>2026-05-06T12:54:44.881Z</time></trkpt><trkpt lat="44.8905397" lon="8.0046022"><ele>199.0</ele><time>2026-05-06T12:54:45.881Z</time></trkpt><trkpt lat="44.89049" lon="8.0044193"><ele>199.0</ele><time>2026-05-06T12:54:46.88Z</time></trkpt><trkpt lat="44.8904292" lon="8.0042391"><ele>199.0</ele><time>2026-05-06T12:54:47.881Z</time></trkpt><trkpt lat="44.8903425" lon="8.0041026"><ele>199.0</ele><time>2026-05-06T12:54:48.881Z</time></trkpt><trkpt lat="44.8902407" lon="8.0039943"><ele>199.0</ele><time>2026-05-06T12:54:49.88Z</time></trkpt><trkpt lat="44.8901354" lon="8.0039131"><ele>200.79999999999998</ele><time>2026-05-06T12:54:50.881Z</time></trkpt><trkpt lat="44.8900372" lon="8.0038391"><ele>202.6</ele><time>2026-05-06T12:54:51.88Z</time></trkpt><trkpt lat="44.8899576" lon="8.0037295"><ele>204.4</ele><time>2026-05-06T12:54:52.881Z</time></trkpt><trkpt lat="44.8899236" lon="8.0035908"><ele>206.2</ele><time>2026-05-06T12:54:53.881Z</time></trkpt><trkpt lat="44.8899359" lon="8.0034259"><ele>208.0</ele><time>2026-05-06T12:54:54.881Z</time></trkpt><trkpt lat="44.8899764" lon="8.003263"><ele>208.75</ele><time>2026-05-06T12:54:55.881Z</time></trkpt><trkpt lat="44.8900447" lon="8.0031109"><ele>209.5</ele><time>2026-05-06T12:54:56.881Z</time></trkpt><trkpt lat="44.8901232" lon="8.0029779"><ele>210.25</ele><time>2026-05-06T12:54:57.881Z</time></trkpt><trkpt lat="44.8902018" lon="8.0028624"><ele>211.0</ele><time>2026-05-06T12:54:58.881Z</time></trkpt><trkpt lat="44.8902698" lon="8.0027277"><ele>211.0</ele><time>2026-05-06T12:54:59.881Z</time></trkpt><trkpt lat="44.890309" lon="8.0025699"><ele>211.0</ele><time>2026-05-06T12:55:00.881Z</time></trkpt><trkpt lat="44.8903269" lon="8.0023889"><ele>211.0</ele><time>2026-05-06T12:55:01.881Z</time></trkpt><trkpt lat="44.8903131" lon="8.002181"><ele>211.0</ele><time>2026-05-06T12:55:02.881Z</time></trkpt><trkpt lat="44.8902893" lon="8.0019589"><ele>211.75</ele><time>2026-05-06T12:55:03.88Z</time></trkpt><trkpt lat="44.8902657" lon="8.0017526"><ele>212.5</ele><time>2026-05-06T12:55:04.881Z</time></trkpt><trkpt lat="44.8902417" lon="8.0015411"><ele>213.25</ele><time>2026-05-06T12:55:05.88Z</time></trkpt><trkpt lat="44.8902134" lon="8.001341"><ele>214.0</ele><time>2026-05-06T12:55:06.881Z</time></trkpt><trkpt lat="44.890182" lon="8.0011446"><ele>214.0</ele><time>2026-05-06T12:55:07.881Z</time></trkpt><trkpt lat="44.8901142" lon="8.0009713"><ele>214.0</ele><time>2026-05-06T12:55:08.881Z</time></trkpt><trkpt lat="44.8900219" lon="8.000813"><ele>214.0</ele><time>2026-05-06T12:55:09.881Z</time></trkpt><trkpt lat="44.889916" lon="8.0006506"><ele>214.0</ele><time>2026-05-06T12:55:10.881Z</time></trkpt><trkpt lat="44.889801" lon="8.0004933"><ele>220.66666666666666</ele><time>2026-05-06T12:55:11.881Z</time></trkpt><trkpt lat="44.8896926" lon="8.0003424"><ele>227.33333333333331</ele><time>2026-05-06T12:55:12.88Z</time></trkpt><trkpt lat="44.8895813" lon="8.0001928"><ele>234.0</ele><time>2026-05-06T12:55:13.88Z</time></trkpt><trkpt lat="44.88947" lon="8.0000418"><ele>234.0</ele><time>2026-05-06T12:55:14.881Z</time></trkpt><trkpt lat="44.889378" lon="7.999901"><ele>234.0</ele><time>2026-05-06T12:55:15.881Z</time></trkpt><trkpt lat="44.8892785" lon="7.9997553"><ele>234.0</ele><time>2026-05-06T12:55:16.881Z</time></trkpt><trkpt lat="44.8891899" lon="7.9995832"><ele>234.0</ele><time>2026-05-06T12:55:17.881Z</time></trkpt><trkpt lat="44.8890866" lon="7.999441"><ele>234.0</ele><time>2026-05-06T12:55:18.88Z</time></trkpt><trkpt lat="44.8889913" lon="7.9993085"><ele>234.0</ele><time>2026-05-06T12:55:19.881Z</time></trkpt><trkpt lat="44.8888881" lon="7.9991651"><ele>234.0</ele><time>2026-05-06T12:55:20.881Z</time></trkpt><trkpt lat="44.8887846" lon="7.9990222"><ele>234.0</ele><time>2026-05-06T12:55:21.881Z</time></trkpt><trkpt lat="44.8886754" lon="7.9988898"><ele>233.75</ele><time>2026-05-06T12:55:22.881Z</time></trkpt><trkpt lat="44.8885637" lon="7.9987479"><ele>233.5</ele><time>2026-05-06T12:55:23.881Z</time></trkpt><trkpt lat="44.8884593" lon="7.9986335"><ele>233.25</ele><time>2026-05-06T12:55:24.881Z</time></trkpt><trkpt lat="44.8883652" lon="7.9985068"><ele>233.0</ele><time>2026-05-06T12:55:25.881Z</time></trkpt><trkpt lat="44.8882693" lon="7.9983755"><ele>235.0</ele><time>2026-05-06T12:55:26.881Z</time></trkpt><trkpt lat="44.8881711" lon="7.9982429"><ele>237.0</ele><time>2026-05-06T12:55:27.881Z</time></trkpt><trkpt lat="44.8880696" lon="7.9981313"><ele>239.0</ele><time>2026-05-06T12:55:28.881Z</time></trkpt><trkpt lat="44.8879686" lon="7.9980198"><ele>241.0</ele><time>2026-05-06T12:55:29.881Z</time></trkpt><trkpt lat="44.8878681" lon="7.997908"><ele>241.0</ele><time>2026-05-06T12:55:30.881Z</time></trkpt><trkpt lat="44.887768" lon="7.9978018"><ele>241.0</ele><time>2026-05-06T12:55:31.881Z</time></trkpt><trkpt lat="44.887663" lon="7.9976903"><ele>241.0</ele><time>2026-05-06T12:55:32.881Z</time></trkpt><trkpt lat="44.8875746" lon="7.9975786"><ele>241.0</ele><time>2026-05-06T12:55:33.881Z</time></trkpt><trkpt lat="44.8874848" lon="7.997465"><ele>241.75</ele><time>2026-05-06T12:55:34.881Z</time></trkpt><trkpt lat="44.8874071" lon="7.997333"><ele>242.5</ele><time>2026-05-06T12:55:35.881Z</time></trkpt><trkpt lat="44.8873473" lon="7.9971867"><ele>243.25</ele><time>2026-05-06T12:55:36.881Z</time></trkpt><trkpt lat="44.8872956" lon="7.997028"><ele>244.0</ele><time>2026-05-06T12:55:37.881Z</time></trkpt><trkpt lat="44.8872477" lon="7.9968697"><ele>244.0</ele><time>2026-05-06T12:55:38.88Z</time></trkpt><trkpt lat="44.8872032" lon="7.996701"><ele>244.0</ele><time>2026-05-06T12:55:39.881Z</time></trkpt><trkpt lat="44.8871594" lon="7.9965185"><ele>244.0</ele><time>2026-05-06T12:55:40.881Z</time></trkpt><trkpt lat="44.8871155" lon="7.9963268"><ele>244.0</ele><time>2026-05-06T12:55:41.881Z</time></trkpt><trkpt lat="44.8870644" lon="7.9961209"><ele>244.33333333333331</ele><time>2026-05-06T12:55:42.88Z</time></trkpt><trkpt lat="44.8870106" lon="7.9959024"><ele>244.66666666666669</ele><time>2026-05-06T12:55:43.881Z</time></trkpt><trkpt lat="44.8869522" lon="7.9957079"><ele>245.0</ele><time>2026-05-06T12:55:44.88Z</time></trkpt><trkpt lat="44.8868837" lon="7.9954904"><ele>245.66666666666669</ele><time>2026-05-06T12:55:45.881Z</time></trkpt><trkpt lat="44.8868009" lon="7.9952859"><ele>246.33333333333331</ele><time>2026-05-06T12:55:46.88Z</time></trkpt><trkpt lat="44.8867027" lon="7.995084"><ele>247.0</ele><time>2026-05-06T12:55:47.88Z</time></trkpt><trkpt lat="44.8866046" lon="7.9948879"><ele>247.0</ele><time>2026-05-06T12:55:48.881Z</time></trkpt><trkpt lat="44.8864847" lon="7.9947163"><ele>247.0</ele><time>2026-05-06T12:55:49.88Z</time></trkpt><trkpt lat="44.8863612" lon="7.994548"><ele>247.0</ele><time>2026-05-06T12:55:50.881Z</time></trkpt><trkpt lat="44.886243" lon="7.9943924"><ele>247.0</ele><time>2026-05-06T12:55:51.88Z</time></trkpt><trkpt lat="44.8861074" lon="7.9942339"><ele>247.0</ele><time>2026-05-06T12:55:52.881Z</time></trkpt><trkpt lat="44.8859763" lon="7.9940707"><ele>247.0</ele><time>2026-05-06T12:55:53.881Z</time></trkpt><trkpt lat="44.8858419" lon="7.9939199"><ele>248.33333333333331</ele><time>2026-05-06T12:55:54.881Z</time></trkpt><trkpt lat="44.885716" lon="7.9937719"><ele>249.66666666666669</ele><time>2026-05-06T12:55:55.881Z</time></trkpt><trkpt lat="44.8856009" lon="7.9936343"><ele>251.0</ele><time>2026-05-06T12:55:56.881Z</time></trkpt><trkpt lat="44.8854991" lon="7.9935093"><ele>251.0</ele><time>2026-05-06T12:55:57.881Z</time></trkpt><trkpt lat="44.885429" lon="7.9933738"><ele>251.0</ele><time>2026-05-06T12:55:58.88Z</time></trkpt><trkpt lat="44.8853819" lon="7.9932097"><ele>251.0</ele><time>2026-05-06T12:55:59.88Z</time></trkpt><trkpt lat="44.8853723" lon="7.9930324"><ele>251.0</ele><time>2026-05-06T12:56:00.881Z</time></trkpt><trkpt lat="44.8854084" lon="7.9928567"><ele>249.33333333333334</ele><time>2026-05-06T12:56:01.881Z</time></trkpt><trkpt lat="44.88547" lon="7.992659"><ele>247.66666666666669</ele><time>2026-05-06T12:56:02.881Z</time></trkpt><trkpt lat="44.8855432" lon="7.9924767"><ele>246.0</ele><time>2026-05-06T12:56:03.881Z</time></trkpt><trkpt lat="44.8856481" lon="7.9923131"><ele>245.33333333333331</ele><time>2026-05-06T12:56:04.881Z</time></trkpt><trkpt lat="44.8857769" lon="7.9921713"><ele>244.66666666666666</ele><time>2026-05-06T12:56:05.881Z</time></trkpt><trkpt lat="44.8859076" lon="7.9920468"><ele>244.0</ele><time>2026-05-06T12:56:06.881Z</time></trkpt><trkpt lat="44.8860302" lon="7.9919371"><ele>244.2</ele><time>2026-05-06T12:56:07.881Z</time></trkpt><trkpt lat="44.8861473" lon="7.9918215"><ele>244.39999999999998</ele><time>2026-05-06T12:56:08.881Z</time></trkpt><trkpt lat="44.886237" lon="7.9917401"><ele>244.6</ele><time>2026-05-06T12:56:09.881Z</time></trkpt><trkpt lat="44.8863182" lon="7.9916533"><ele>244.8</ele><time>2026-05-06T12:56:10.88Z</time></trkpt><trkpt lat="44.8863826" lon="7.9915919"><ele>245.0</ele><time>2026-05-06T12:56:11.881Z</time></trkpt><trkpt lat="44.8864275" lon="7.9914996"><ele>245.0</ele><time>2026-05-06T12:56:12.881Z</time></trkpt><trkpt lat="44.8863934" lon="7.9913347"><ele>245.0</ele><time>2026-05-06T12:56:14.881Z</time></trkpt><trkpt lat="44.886263" lon="7.9913129"><ele>245.0</ele><time>2026-05-06T12:56:16.881Z</time></trkpt><trkpt lat="44.8861888" lon="7.9913809"><ele>245.0</ele><time>2026-05-06T12:56:17.88Z</time></trkpt><trkpt lat="44.8861231" lon="7.9914936"><ele>245.0</ele><time>2026-05-06T12:56:18.881Z</time></trkpt><trkpt lat="44.8860396" lon="7.9916042"><ele>244.75</ele><time>2026-05-06T12:56:19.88Z</time></trkpt><trkpt lat="44.8859263" lon="7.991692"><ele>244.5</ele><time>2026-05-06T12:56:20.881Z</time></trkpt><trkpt lat="44.8857806" lon="7.9917449"><ele>244.25</ele><time>2026-05-06T12:56:21.88Z</time></trkpt><trkpt lat="44.8856334" lon="7.9917959"><ele>244.0</ele><time>2026-05-06T12:56:22.88Z</time></trkpt><trkpt lat="44.8854787" lon="7.9918471"><ele>244.0</ele><time>2026-05-06T12:56:23.881Z</time></trkpt><trkpt lat="44.8853352" lon="7.991899"><ele>244.0</ele><time>2026-05-06T12:56:24.881Z</time></trkpt><trkpt lat="44.8851916" lon="7.9919467"><ele>244.0</ele><time>2026-05-06T12:56:25.881Z</time></trkpt><trkpt lat="44.8850553" lon="7.9919883"><ele>244.0</ele><time>2026-05-06T12:56:26.881Z</time></trkpt><trkpt lat="44.8849197" lon="7.9920154"><ele>244.0</ele><time>2026-05-06T12:56:27.881Z</time></trkpt><trkpt lat="44.8847753" lon="7.9920241"><ele>244.0</ele><time>2026-05-06T12:56:28.881Z</time></trkpt><trkpt lat="44.8846272" lon="7.9920087"><ele>244.0</ele><time>2026-05-06T12:56:29.881Z</time></trkpt><trkpt lat="44.8844736" lon="7.9919747"><ele>244.0</ele><time>2026-05-06T12:56:30.881Z</time></trkpt><trkpt lat="44.8843303" lon="7.9919259"><ele>244.0</ele><time>2026-05-06T12:56:31.881Z</time></trkpt><trkpt lat="44.8841796" lon="7.9918852"><ele>244.0</ele><time>2026-05-06T12:56:32.88Z</time></trkpt><trkpt lat="44.8840335" lon="7.9918483"><ele>244.0</ele><time>2026-05-06T12:56:33.881Z</time></trkpt><trkpt lat="44.8838903" lon="7.9918223"><ele>244.0</ele><time>2026-05-06T12:56:34.881Z</time></trkpt><trkpt lat="44.8837363" lon="7.9918007"><ele>244.0</ele><time>2026-05-06T12:56:35.881Z</time></trkpt><trkpt lat="44.8835839" lon="7.9917952"><ele>244.0</ele><time>2026-05-06T12:56:36.881Z</time></trkpt><trkpt lat="44.8834475" lon="7.9917989"><ele>244.0</ele><time>2026-05-06T12:56:37.881Z</time></trkpt><trkpt lat="44.8833183" lon="7.9918233"><ele>244.0</ele><time>2026-05-06T12:56:38.881Z</time></trkpt><trkpt lat="44.8831984" lon="7.9918799"><ele>242.75</ele><time>2026-05-06T12:56:39.881Z</time></trkpt><trkpt lat="44.8830712" lon="7.9919524"><ele>241.5</ele><time>2026-05-06T12:56:40.881Z</time></trkpt><trkpt lat="44.8829371" lon="7.9920388"><ele>240.25</ele><time>2026-05-06T12:56:41.88Z</time></trkpt><trkpt lat="44.8827901" lon="7.9921267"><ele>239.0</ele><time>2026-05-06T12:56:42.881Z</time></trkpt><trkpt lat="44.8826343" lon="7.9922037"><ele>234.66666666666669</ele><time>2026-05-06T12:56:43.881Z</time></trkpt><trkpt lat="44.8824809" lon="7.9922673"><ele>230.33333333333331</ele><time>2026-05-06T12:56:44.881Z</time></trkpt><trkpt lat="44.8823387" lon="7.992333"><ele>226.0</ele><time>2026-05-06T12:56:45.88Z</time></trkpt><trkpt lat="44.8822011" lon="7.9923929"><ele>226.0</ele><time>2026-05-06T12:56:46.881Z</time></trkpt><trkpt lat="44.8820759" lon="7.9924528"><ele>226.00000000000003</ele><time>2026-05-06T12:56:47.881Z</time></trkpt><trkpt lat="44.8819655" lon="7.9925047"><ele>226.00000000000003</ele><time>2026-05-06T12:56:48.881Z</time></trkpt><trkpt lat="44.8818625" lon="7.9925544"><ele>226.0</ele><time>2026-05-06T12:56:49.881Z</time></trkpt><trkpt lat="44.8817715" lon="7.9925722"><ele>226.0</ele><time>2026-05-06T12:56:50.881Z</time></trkpt><trkpt lat="44.8816778" lon="7.9925602"><ele>224.49999999999997</ele><time>2026-05-06T12:56:51.881Z</time></trkpt><trkpt lat="44.8815816" lon="7.9925013"><ele>223.0</ele><time>2026-05-06T12:56:52.88Z</time></trkpt><trkpt lat="44.8815206" lon="7.9924148"><ele>221.5</ele><time>2026-05-06T12:56:53.88Z</time></trkpt><trkpt lat="44.8814794" lon="7.9923306"><ele>220.0</ele><time>2026-05-06T12:56:54.881Z</time></trkpt><trkpt lat="44.8814305" lon="7.9922094"><ele>218.49999999999997</ele><time>2026-05-06T12:56:56.881Z</time></trkpt><trkpt lat="44.8813678" lon="7.9921301"><ele>217.0</ele><time>2026-05-06T12:56:59.881Z</time></trkpt><trkpt lat="44.8812611" lon="7.9921397"><ele>217.0</ele><time>2026-05-06T12:57:02.881Z</time></trkpt><trkpt lat="44.8811922" lon="7.9921801"><ele>217.0</ele><time>2026-05-06T12:57:03.881Z</time></trkpt><trkpt lat="44.8811227" lon="7.992237"><ele>217.0</ele><time>2026-05-06T12:57:04.881Z</time></trkpt><trkpt lat="44.8810284" lon="7.9922963"><ele>217.0</ele><time>2026-05-06T12:57:05.88Z</time></trkpt><trkpt lat="44.8809206" lon="7.9923713"><ele>217.0</ele><time>2026-05-06T12:57:06.88Z</time></trkpt><trkpt lat="44.8808046" lon="7.9924598"><ele>217.0</ele><time>2026-05-06T12:57:07.881Z</time></trkpt><trkpt lat="44.8806777" lon="7.9925596"><ele>217.0</ele><time>2026-05-06T12:57:08.881Z</time></trkpt><trkpt lat="44.8805508" lon="7.9926487"><ele>217.0</ele><time>2026-05-06T12:57:09.881Z</time></trkpt><trkpt lat="44.8804227" lon="7.9927461"><ele>217.0</ele><time>2026-05-06T12:57:10.881Z</time></trkpt><trkpt lat="44.8803026" lon="7.9928325"><ele>217.0</ele><time>2026-05-06T12:57:11.881Z</time></trkpt><trkpt lat="44.8801895" lon="7.9929188"><ele>217.0</ele><time>2026-05-06T12:57:12.881Z</time></trkpt><trkpt lat="44.8800737" lon="7.9930104"><ele>217.0</ele><time>2026-05-06T12:57:13.881Z</time></trkpt><trkpt lat="44.8799477" lon="7.9930972"><ele>217.0</ele><time>2026-05-06T12:57:14.881Z</time></trkpt><trkpt lat="44.8798213" lon="7.9931829"><ele>217.25</ele><time>2026-05-06T12:57:15.881Z</time></trkpt><trkpt lat="44.8796943" lon="7.9932788"><ele>217.5</ele><time>2026-05-06T12:57:16.881Z</time></trkpt><trkpt lat="44.879571" lon="7.9933772"><ele>217.75</ele><time>2026-05-06T12:57:17.881Z</time></trkpt><trkpt lat="44.8794512" lon="7.9934729"><ele>218.0</ele><time>2026-05-06T12:57:18.881Z</time></trkpt><trkpt lat="44.8793267" lon="7.9935643"><ele>218.0</ele><time>2026-05-06T12:57:19.88Z</time></trkpt><trkpt lat="44.879206" lon="7.9936427"><ele>218.0</ele><time>2026-05-06T12:57:20.88Z</time></trkpt><trkpt lat="44.8790877" lon="7.9937252"><ele>218.0</ele><time>2026-05-06T12:57:21.881Z</time></trkpt><trkpt lat="44.878972" lon="7.9938116"><ele>218.0</ele><time>2026-05-06T12:57:22.881Z</time></trkpt><trkpt lat="44.878867" lon="7.9938926"><ele>218.0</ele><time>2026-05-06T12:57:23.881Z</time></trkpt><trkpt lat="44.8787573" lon="7.9939685"><ele>218.0</ele><time>2026-05-06T12:57:24.881Z</time></trkpt><trkpt lat="44.8786521" lon="7.9940523"><ele>218.0</ele><time>2026-05-06T12:57:25.881Z</time></trkpt><trkpt lat="44.8785453" lon="7.9941215"><ele>218.0</ele><time>2026-05-06T12:57:26.881Z</time></trkpt><trkpt lat="44.8784378" lon="7.9941979"><ele>218.00000000000003</ele><time>2026-05-06T12:57:27.88Z</time></trkpt><trkpt lat="44.8783417" lon="7.9942675"><ele>218.0</ele><time>2026-05-06T12:57:28.881Z</time></trkpt><trkpt lat="44.8782692" lon="7.994321"><ele>218.0</ele><time>2026-05-06T12:57:29.881Z</time></trkpt><trkpt lat="44.8782013" lon="7.9943559"><ele>218.0</ele><time>2026-05-06T12:57:30.881Z</time></trkpt><trkpt lat="44.8781334" lon="7.9943443"><ele>218.00000000000003</ele><time>2026-05-06T12:57:31.88Z</time></trkpt><trkpt lat="44.8780813" lon="7.9942906"><ele>218.0</ele><time>2026-05-06T12:57:32.881Z</time></trkpt><trkpt lat="44.8780372" lon="7.9942048"><ele>217.8</ele><time>2026-05-06T12:57:33.881Z</time></trkpt><trkpt lat="44.8779925" lon="7.9940935"><ele>217.60000000000002</ele><time>2026-05-06T12:57:34.881Z</time></trkpt><trkpt lat="44.8779364" lon="7.9939589"><ele>217.39999999999998</ele><time>2026-05-06T12:57:35.88Z</time></trkpt><trkpt lat="44.8778729" lon="7.9938125"><ele>217.2</ele><time>2026-05-06T12:57:36.881Z</time></trkpt><trkpt lat="44.8777981" lon="7.9936703"><ele>217.0</ele><time>2026-05-06T12:57:37.881Z</time></trkpt><trkpt lat="44.877731" lon="7.9935387"><ele>217.0</ele><time>2026-05-06T12:57:38.881Z</time></trkpt><trkpt lat="44.8776588" lon="7.9934184"><ele>217.0</ele><time>2026-05-06T12:57:39.881Z</time></trkpt><trkpt lat="44.8775976" lon="7.9933089"><ele>217.0</ele><time>2026-05-06T12:57:40.881Z</time></trkpt><trkpt lat="44.877547" lon="7.9932067"><ele>217.0</ele><time>2026-05-06T12:57:41.881Z</time></trkpt><trkpt lat="44.8774976" lon="7.9931103"><ele>217.0</ele><time>2026-05-06T12:57:42.881Z</time></trkpt><trkpt lat="44.8774518" lon="7.9930085"><ele>216.83333333333331</ele><time>2026-05-06T12:57:43.88Z</time></trkpt><trkpt lat="44.8774242" lon="7.9929137"><ele>216.66666666666666</ele><time>2026-05-06T12:57:44.881Z</time></trkpt><trkpt lat="44.877408" lon="7.9928129"><ele>216.5</ele><time>2026-05-06T12:57:45.88Z</time></trkpt><trkpt lat="44.8774121" lon="7.9927047"><ele>216.33333333333331</ele><time>2026-05-06T12:57:46.881Z</time></trkpt><trkpt lat="44.8774321" lon="7.9925847"><ele>216.16666666666666</ele><time>2026-05-06T12:57:47.881Z</time></trkpt><trkpt lat="44.8774603" lon="7.9924502"><ele>216.0</ele><time>2026-05-06T12:57:48.881Z</time></trkpt><trkpt lat="44.8774962" lon="7.9923222"><ele>215.8</ele><time>2026-05-06T12:57:49.881Z</time></trkpt><trkpt lat="44.8775295" lon="7.992188"><ele>215.60000000000002</ele><time>2026-05-06T12:57:50.881Z</time></trkpt><trkpt lat="44.8775564" lon="7.9920615"><ele>215.4</ele><time>2026-05-06T12:57:51.881Z</time></trkpt><trkpt lat="44.8776004" lon="7.9919594"><ele>215.2</ele><time>2026-05-06T12:57:52.881Z</time></trkpt><trkpt lat="44.8776585" lon="7.9918911"><ele>215.0</ele><time>2026-05-06T12:57:53.881Z</time></trkpt><trkpt lat="44.8777538" lon="7.991836"><ele>214.8</ele><time>2026-05-06T12:57:54.881Z</time></trkpt><trkpt lat="44.8778552" lon="7.9917723"><ele>214.6</ele><time>2026-05-06T12:57:55.881Z</time></trkpt><trkpt lat="44.8779491" lon="7.9916952"><ele>214.39999999999998</ele><time>2026-05-06T12:57:56.881Z</time></trkpt><trkpt lat="44.8780339" lon="7.9916295"><ele>214.2</ele><time>2026-05-06T12:57:57.881Z</time></trkpt><trkpt lat="44.8781044" lon="7.9915626"><ele>214.0</ele><time>2026-05-06T12:57:58.88Z</time></trkpt><trkpt lat="44.8781731" lon="7.9914601"><ele>214.39999999999998</ele><time>2026-05-06T12:57:59.88Z</time></trkpt><trkpt lat="44.8782328" lon="7.9913433"><ele>214.79999999999998</ele><time>2026-05-06T12:58:00.881Z</time></trkpt><trkpt lat="44.8782835" lon="7.9912235"><ele>215.20000000000002</ele><time>2026-05-06T12:58:01.881Z</time></trkpt><trkpt lat="44.8783243" lon="7.9911"><ele>215.60000000000002</ele><time>2026-05-06T12:58:02.881Z</time></trkpt><trkpt lat="44.8783539" lon="7.9909636"><ele>216.0</ele><time>2026-05-06T12:58:03.881Z</time></trkpt><trkpt lat="44.8783558" lon="7.9908041"><ele>217.20000000000002</ele><time>2026-05-06T12:58:04.881Z</time></trkpt><trkpt lat="44.8783532" lon="7.9906538"><ele>218.40000000000003</ele><time>2026-05-06T12:58:05.881Z</time></trkpt><trkpt lat="44.87837" lon="7.9904924"><ele>219.6</ele><time>2026-05-06T12:58:06.881Z</time></trkpt><trkpt lat="44.8784134" lon="7.9903508"><ele>220.8</ele><time>2026-05-06T12:58:07.881Z</time></trkpt><trkpt lat="44.878461" lon="7.9902178"><ele>222.0</ele><time>2026-05-06T12:58:08.88Z</time></trkpt><trkpt lat="44.8784809" lon="7.9900939"><ele>224.2</ele><time>2026-05-06T12:58:09.881Z</time></trkpt><trkpt lat="44.8784734" lon="7.9899748"><ele>226.39999999999998</ele><time>2026-05-06T12:58:10.881Z</time></trkpt><trkpt lat="44.8784257" lon="7.9898586"><ele>228.60000000000002</ele><time>2026-05-06T12:58:11.88Z</time></trkpt><trkpt lat="44.8783504" lon="7.9897423"><ele>230.8</ele><time>2026-05-06T12:58:12.881Z</time></trkpt><trkpt lat="44.8782625" lon="7.989631"><ele>233.0</ele><time>2026-05-06T12:58:13.881Z</time></trkpt><trkpt lat="44.878162" lon="7.9894961"><ele>233.0</ele><time>2026-05-06T12:58:14.881Z</time></trkpt><trkpt lat="44.8780557" lon="7.9893641"><ele>233.0</ele><time>2026-05-06T12:58:15.881Z</time></trkpt><trkpt lat="44.8779392" lon="7.9892299"><ele>233.0</ele><time>2026-05-06T12:58:16.881Z</time></trkpt><trkpt lat="44.8778401" lon="7.9891072"><ele>233.0</ele><time>2026-05-06T12:58:17.881Z</time></trkpt><trkpt lat="44.8777478" lon="7.9889916"><ele>234.25</ele><time>2026-05-06T12:58:18.881Z</time></trkpt><trkpt lat="44.8776696" lon="7.9888566"><ele>235.5</ele><time>2026-05-06T12:58:19.88Z</time></trkpt><trkpt lat="44.8776093" lon="7.9887"><ele>236.75</ele><time>2026-05-06T12:58:20.88Z</time></trkpt><trkpt lat="44.8775492" lon="7.9885348"><ele>238.0</ele><time>2026-05-06T12:58:21.881Z</time></trkpt><trkpt lat="44.8774714" lon="7.9883757"><ele>242.5</ele><time>2026-05-06T12:58:22.881Z</time></trkpt><trkpt lat="44.8773837" lon="7.9882184"><ele>247.0</ele><time>2026-05-06T12:58:23.881Z</time></trkpt><trkpt lat="44.8772825" lon="7.9880767"><ele>251.5</ele><time>2026-05-06T12:58:24.881Z</time></trkpt><trkpt lat="44.8771823" lon="7.9879619"><ele>256.0</ele><time>2026-05-06T12:58:25.88Z</time></trkpt><trkpt lat="44.8770542" lon="7.9878576"><ele>256.0</ele><time>2026-05-06T12:58:26.881Z</time></trkpt><trkpt lat="44.8769338" lon="7.9877429"><ele>256.0</ele><time>2026-05-06T12:58:27.881Z</time></trkpt><trkpt lat="44.8768246" lon="7.9876271"><ele>256.0</ele><time>2026-05-06T12:58:28.881Z</time></trkpt><trkpt lat="44.8767197" lon="7.9875114"><ele>256.0</ele><time>2026-05-06T12:58:29.88Z</time></trkpt><trkpt lat="44.8766025" lon="7.987408"><ele>258.75</ele><time>2026-05-06T12:58:30.881Z</time></trkpt><trkpt lat="44.8764683" lon="7.9873168"><ele>261.5</ele><time>2026-05-06T12:58:31.881Z</time></trkpt><trkpt lat="44.8763347" lon="7.9872396"><ele>264.25</ele><time>2026-05-06T12:58:32.881Z</time></trkpt><trkpt lat="44.8762054" lon="7.9871922"><ele>267.0</ele><time>2026-05-06T12:58:33.881Z</time></trkpt><trkpt lat="44.8760738" lon="7.9871376"><ele>267.0</ele><time>2026-05-06T12:58:34.881Z</time></trkpt><trkpt lat="44.8759396" lon="7.9870753"><ele>267.0</ele><time>2026-05-06T12:58:35.881Z</time></trkpt><trkpt lat="44.8758085" lon="7.9870136"><ele>267.0</ele><time>2026-05-06T12:58:36.881Z</time></trkpt><trkpt lat="44.8756702" lon="7.9869539"><ele>267.0</ele><time>2026-05-06T12:58:37.881Z</time></trkpt><trkpt lat="44.875529" lon="7.9868776"><ele>269.25</ele><time>2026-05-06T12:58:38.881Z</time></trkpt><trkpt lat="44.8753906" lon="7.9867908"><ele>271.5</ele><time>2026-05-06T12:58:39.881Z</time></trkpt><trkpt lat="44.8752699" lon="7.9866943"><ele>273.75</ele><time>2026-05-06T12:58:40.881Z</time></trkpt><trkpt lat="44.8751764" lon="7.9865824"><ele>276.0</ele><time>2026-05-06T12:58:41.881Z</time></trkpt><trkpt lat="44.8750982" lon="7.9864537"><ele>276.75</ele><time>2026-05-06T12:58:42.881Z</time></trkpt><trkpt lat="44.8750287" lon="7.9862984"><ele>277.5</ele><time>2026-05-06T12:58:43.88Z</time></trkpt><trkpt lat="44.8749679" lon="7.9861337"><ele>278.25</ele><time>2026-05-06T12:58:44.88Z</time></trkpt><trkpt lat="44.8749181" lon="7.9859524"><ele>279.0</ele><time>2026-05-06T12:58:45.881Z</time></trkpt><trkpt lat="44.8748799" lon="7.9857631"><ele>280.25</ele><time>2026-05-06T12:58:46.881Z</time></trkpt><trkpt lat="44.8748386" lon="7.9855714"><ele>281.5</ele><time>2026-05-06T12:58:47.881Z</time></trkpt><trkpt lat="44.8747679" lon="7.9853927"><ele>282.75</ele><time>2026-05-06T12:58:48.88Z</time></trkpt><trkpt lat="44.8746986" lon="7.9852408"><ele>284.0</ele><time>2026-05-06T12:58:49.881Z</time></trkpt><trkpt lat="44.8746444" lon="7.9850824"><ele>284.25</ele><time>2026-05-06T12:58:50.881Z</time></trkpt><trkpt lat="44.8746123" lon="7.9849193"><ele>284.5</ele><time>2026-05-06T12:58:51.88Z</time></trkpt><trkpt lat="44.8746076" lon="7.9847543"><ele>284.75</ele><time>2026-05-06T12:58:52.881Z</time></trkpt><trkpt lat="44.8745935" lon="7.9845967"><ele>285.0</ele><time>2026-05-06T12:58:53.881Z</time></trkpt><trkpt lat="44.8745683" lon="7.9844494"><ele>285.0</ele><time>2026-05-06T12:58:54.881Z</time></trkpt><trkpt lat="44.8745347" lon="7.9843021"><ele>285.0</ele><time>2026-05-06T12:58:55.881Z</time></trkpt><trkpt lat="44.8744853" lon="7.9841755"><ele>285.0</ele><time>2026-05-06T12:58:56.881Z</time></trkpt><trkpt lat="44.8744104" lon="7.9840483"><ele>285.0</ele><time>2026-05-06T12:58:57.881Z</time></trkpt><trkpt lat="44.8743083" lon="7.9839373"><ele>289.6666666666667</ele><time>2026-05-06T12:58:58.881Z</time></trkpt><trkpt lat="44.8741857" lon="7.9838249"><ele>294.33333333333337</ele><time>2026-05-06T12:58:59.881Z</time></trkpt><trkpt lat="44.8740573" lon="7.9837153"><ele>299.0</ele><time>2026-05-06T12:59:00.881Z</time></trkpt><trkpt lat="44.8739192" lon="7.9836158"><ele>299.0</ele><time>2026-05-06T12:59:01.881Z</time></trkpt><trkpt lat="44.8737718" lon="7.9835374"><ele>299.0</ele><time>2026-05-06T12:59:02.88Z</time></trkpt><trkpt lat="44.8736189" lon="7.9834851"><ele>299.0</ele><time>2026-05-06T12:59:03.88Z</time></trkpt><trkpt lat="44.8734705" lon="7.9834492"><ele>299.0</ele><time>2026-05-06T12:59:04.881Z</time></trkpt><trkpt lat="44.8733355" lon="7.9834133"><ele>299.0</ele><time>2026-05-06T12:59:05.88Z</time></trkpt><trkpt lat="44.8732185" lon="7.9833614"><ele>299.0</ele><time>2026-05-06T12:59:06.881Z</time></trkpt><trkpt lat="44.8731091" lon="7.9832955"><ele>299.0</ele><time>2026-05-06T12:59:07.88Z</time></trkpt><trkpt lat="44.8730038" lon="7.9831963"><ele>299.25</ele><time>2026-05-06T12:59:08.881Z</time></trkpt><trkpt lat="44.872902" lon="7.9830628"><ele>299.5</ele><time>2026-05-06T12:59:09.881Z</time></trkpt><trkpt lat="44.872797" lon="7.9829081"><ele>299.75</ele><time>2026-05-06T12:59:10.881Z</time></trkpt><trkpt lat="44.8726961" lon="7.9827534"><ele>300.0</ele><time>2026-05-06T12:59:11.88Z</time></trkpt><trkpt lat="44.8725938" lon="7.9825957"><ele>298.6666666666667</ele><time>2026-05-06T12:59:12.881Z</time></trkpt><trkpt lat="44.8724864" lon="7.9824413"><ele>297.33333333333337</ele><time>2026-05-06T12:59:13.881Z</time></trkpt><trkpt lat="44.872364" lon="7.9823112"><ele>296.0</ele><time>2026-05-06T12:59:14.881Z</time></trkpt><trkpt lat="44.8722222" lon="7.9822165"><ele>296.0</ele><time>2026-05-06T12:59:15.881Z</time></trkpt><trkpt lat="44.8720875" lon="7.9821314"><ele>296.0</ele><time>2026-05-06T12:59:16.881Z</time></trkpt><trkpt lat="44.8719587" lon="7.9820476"><ele>296.0</ele><time>2026-05-06T12:59:17.881Z</time></trkpt><trkpt lat="44.8718398" lon="7.9819651"><ele>296.0</ele><time>2026-05-06T12:59:18.881Z</time></trkpt><trkpt lat="44.8717289" lon="7.9818547"><ele>294.0</ele><time>2026-05-06T12:59:19.88Z</time></trkpt><trkpt lat="44.8716393" lon="7.9817092"><ele>292.0</ele><time>2026-05-06T12:59:20.881Z</time></trkpt><trkpt lat="44.8715768" lon="7.9815346"><ele>290.0</ele><time>2026-05-06T12:59:21.881Z</time></trkpt><trkpt lat="44.8715317" lon="7.9813477"><ele>288.0</ele><time>2026-05-06T12:59:22.881Z</time></trkpt><trkpt lat="44.8714715" lon="7.9811622"><ele>288.0</ele><time>2026-05-06T12:59:23.881Z</time></trkpt><trkpt lat="44.8713814" lon="7.9809791"><ele>288.0</ele><time>2026-05-06T12:59:24.881Z</time></trkpt><trkpt lat="44.8712794" lon="7.9807926"><ele>288.0</ele><time>2026-05-06T12:59:25.881Z</time></trkpt><trkpt lat="44.8711743" lon="7.980588"><ele>289.3333333333333</ele><time>2026-05-06T12:59:26.881Z</time></trkpt><trkpt lat="44.8710652" lon="7.9803878"><ele>290.66666666666663</ele><time>2026-05-06T12:59:27.881Z</time></trkpt><trkpt lat="44.8709527" lon="7.9801897"><ele>292.0</ele><time>2026-05-06T12:59:28.881Z</time></trkpt><trkpt lat="44.8708423" lon="7.9799868"><ele>292.0</ele><time>2026-05-06T12:59:29.881Z</time></trkpt><trkpt lat="44.8707266" lon="7.9797785"><ele>292.0</ele><time>2026-05-06T12:59:30.88Z</time></trkpt><trkpt lat="44.870607" lon="7.9795868"><ele>292.0</ele><time>2026-05-06T12:59:31.881Z</time></trkpt><trkpt lat="44.8704925" lon="7.979412"><ele>292.0</ele><time>2026-05-06T12:59:32.88Z</time></trkpt><trkpt lat="44.8703915" lon="7.9792464"><ele>292.0</ele><time>2026-05-06T12:59:33.881Z</time></trkpt><trkpt lat="44.870307" lon="7.979073"><ele>292.0</ele><time>2026-05-06T12:59:34.881Z</time></trkpt><trkpt lat="44.8702447" lon="7.9788935"><ele>292.0</ele><time>2026-05-06T12:59:35.881Z</time></trkpt><trkpt lat="44.8701899" lon="7.9787212"><ele>291.66666666666663</ele><time>2026-05-06T12:59:36.881Z</time></trkpt><trkpt lat="44.8701303" lon="7.9785345"><ele>291.3333333333333</ele><time>2026-05-06T12:59:37.881Z</time></trkpt><trkpt lat="44.8700696" lon="7.978334"><ele>291.0</ele><time>2026-05-06T12:59:38.881Z</time></trkpt><trkpt lat="44.8700069" lon="7.9781188"><ele>293.0</ele><time>2026-05-06T12:59:39.88Z</time></trkpt><trkpt lat="44.8699486" lon="7.9778997"><ele>295.0</ele><time>2026-05-06T12:59:40.881Z</time></trkpt><trkpt lat="44.869887" lon="7.9776804"><ele>297.0</ele><time>2026-05-06T12:59:41.881Z</time></trkpt><trkpt lat="44.8698322" lon="7.977444"><ele>297.0</ele><time>2026-05-06T12:59:42.881Z</time></trkpt><trkpt lat="44.8697753" lon="7.9772151"><ele>297.0</ele><time>2026-05-06T12:59:43.881Z</time></trkpt><trkpt lat="44.8697266" lon="7.9770138"><ele>297.0</ele><time>2026-05-06T12:59:44.88Z</time></trkpt><trkpt lat="44.8696778" lon="7.9768193"><ele>298.75</ele><time>2026-05-06T12:59:45.881Z</time></trkpt><trkpt lat="44.8696216" lon="7.9766501"><ele>300.5</ele><time>2026-05-06T12:59:46.88Z</time></trkpt><trkpt lat="44.8695683" lon="7.976509"><ele>302.25</ele><time>2026-05-06T12:59:47.881Z</time></trkpt><trkpt lat="44.8695283" lon="7.9763513"><ele>304.0</ele><time>2026-05-06T12:59:48.88Z</time></trkpt><trkpt lat="44.8695077" lon="7.9761702"><ele>304.0</ele><time>2026-05-06T12:59:49.881Z</time></trkpt><trkpt lat="44.8695179" lon="7.9759727"><ele>304.0</ele><time>2026-05-06T12:59:50.881Z</time></trkpt><trkpt lat="44.8695466" lon="7.9757603"><ele>304.0</ele><time>2026-05-06T12:59:51.88Z</time></trkpt><trkpt lat="44.8695755" lon="7.9755312"><ele>304.0</ele><time>2026-05-06T12:59:52.881Z</time></trkpt><trkpt lat="44.8696038" lon="7.9753101"><ele>304.0</ele><time>2026-05-06T12:59:53.881Z</time></trkpt><trkpt lat="44.8696336" lon="7.975069"><ele>304.0</ele><time>2026-05-06T12:59:54.881Z</time></trkpt><trkpt lat="44.8696621" lon="7.9748448"><ele>300.3333333333333</ele><time>2026-05-06T12:59:55.881Z</time></trkpt><trkpt lat="44.869703" lon="7.9746127"><ele>296.6666666666667</ele><time>2026-05-06T12:59:56.881Z</time></trkpt><trkpt lat="44.8697502" lon="7.9743692"><ele>293.0</ele><time>2026-05-06T12:59:57.881Z</time></trkpt><trkpt lat="44.8697964" lon="7.9741311"><ele>292.33333333333337</ele><time>2026-05-06T12:59:58.88Z</time></trkpt><trkpt lat="44.8698353" lon="7.9738903"><ele>291.6666666666667</ele><time>2026-05-06T12:59:59.881Z</time></trkpt><trkpt lat="44.8698669" lon="7.9736615"><ele>291.0</ele><time>2026-05-06T13:00:00.881Z</time></trkpt><trkpt lat="44.8698838" lon="7.9734353"><ele>290.6666666666667</ele><time>2026-05-06T13:00:01.881Z</time></trkpt><trkpt lat="44.8698754" lon="7.9732194"><ele>290.33333333333337</ele><time>2026-05-06T13:00:02.881Z</time></trkpt><trkpt lat="44.8698326" lon="7.9730201"><ele>290.0</ele><time>2026-05-06T13:00:03.881Z</time></trkpt><trkpt lat="44.8697709" lon="7.9728141"><ele>290.0</ele><time>2026-05-06T13:00:04.881Z</time></trkpt><trkpt lat="44.8696863" lon="7.9726047"><ele>290.0</ele><time>2026-05-06T13:00:05.881Z</time></trkpt><trkpt lat="44.869575" lon="7.9724128"><ele>290.0</ele><time>2026-05-06T13:00:06.881Z</time></trkpt><trkpt lat="44.8694608" lon="7.9722261"><ele>291.0</ele><time>2026-05-06T13:00:07.881Z</time></trkpt><trkpt lat="44.8693623" lon="7.9720301"><ele>292.0</ele><time>2026-05-06T13:00:08.881Z</time></trkpt><trkpt lat="44.8692747" lon="7.971821"><ele>293.0</ele><time>2026-05-06T13:00:09.881Z</time></trkpt><trkpt lat="44.8691968" lon="7.9716306"><ele>298.33333333333337</ele><time>2026-05-06T13:00:10.881Z</time></trkpt><trkpt lat="44.8691352" lon="7.9714315"><ele>303.6666666666667</ele><time>2026-05-06T13:00:11.881Z</time></trkpt><trkpt lat="44.8690942" lon="7.9712199"><ele>309.0</ele><time>2026-05-06T13:00:12.881Z</time></trkpt><trkpt lat="44.8690786" lon="7.9709925"><ele>311.5</ele><time>2026-05-06T13:00:13.881Z</time></trkpt><trkpt lat="44.8690809" lon="7.9707952"><ele>314.0</ele><time>2026-05-06T13:00:14.881Z</time></trkpt><trkpt lat="44.8690819" lon="7.9706076"><ele>316.5</ele><time>2026-05-06T13:00:15.881Z</time></trkpt><trkpt lat="44.869069" lon="7.9704405"><ele>319.0</ele><time>2026-05-06T13:00:16.881Z</time></trkpt><trkpt lat="44.869049" lon="7.9702693"><ele>319.0</ele><time>2026-05-06T13:00:17.881Z</time></trkpt><trkpt lat="44.8690166" lon="7.9701092"><ele>319.0</ele><time>2026-05-06T13:00:18.881Z</time></trkpt><trkpt lat="44.8689802" lon="7.9699435"><ele>319.0</ele><time>2026-05-06T13:00:19.881Z</time></trkpt><trkpt lat="44.8689346" lon="7.9697696"><ele>319.0</ele><time>2026-05-06T13:00:20.881Z</time></trkpt><trkpt lat="44.8688816" lon="7.9695809"><ele>318.5</ele><time>2026-05-06T13:00:21.881Z</time></trkpt><trkpt lat="44.8688266" lon="7.9693896"><ele>318.0</ele><time>2026-05-06T13:00:22.881Z</time></trkpt><trkpt lat="44.8687701" lon="7.9692019"><ele>317.5</ele><time>2026-05-06T13:00:23.881Z</time></trkpt><trkpt lat="44.8687397" lon="7.9690157"><ele>317.0</ele><time>2026-05-06T13:00:24.881Z</time></trkpt><trkpt lat="44.8687213" lon="7.9688374"><ele>317.0</ele><time>2026-05-06T13:00:25.881Z</time></trkpt><trkpt lat="44.8686963" lon="7.9686426"><ele>317.0</ele><time>2026-05-06T13:00:26.881Z</time></trkpt><trkpt lat="44.8686627" lon="7.968458"><ele>317.0</ele><time>2026-05-06T13:00:27.881Z</time></trkpt><trkpt lat="44.8686338" lon="7.9682663"><ele>317.0</ele><time>2026-05-06T13:00:28.881Z</time></trkpt><trkpt lat="44.8686014" lon="7.9680657"><ele>317.25</ele><time>2026-05-06T13:00:29.881Z</time></trkpt><trkpt lat="44.868595" lon="7.9678574"><ele>317.5</ele><time>2026-05-06T13:00:30.881Z</time></trkpt><trkpt lat="44.86861" lon="7.9676581"><ele>317.75</ele><time>2026-05-06T13:00:31.881Z</time></trkpt><trkpt lat="44.8686355" lon="7.9674472"><ele>318.0</ele><time>2026-05-06T13:00:32.881Z</time></trkpt><trkpt lat="44.8686725" lon="7.9672365"><ele>317.25</ele><time>2026-05-06T13:00:33.881Z</time></trkpt><trkpt lat="44.8687158" lon="7.9670273"><ele>316.5</ele><time>2026-05-06T13:00:34.881Z</time></trkpt><trkpt lat="44.8687528" lon="7.9668292"><ele>315.75</ele><time>2026-05-06T13:00:35.881Z</time></trkpt><trkpt lat="44.8687862" lon="7.9666468"><ele>315.0</ele><time>2026-05-06T13:00:36.881Z</time></trkpt><trkpt lat="44.8688066" lon="7.9664789"><ele>315.0</ele><time>2026-05-06T13:00:37.881Z</time></trkpt><trkpt lat="44.8688015" lon="7.966312"><ele>315.0</ele><time>2026-05-06T13:00:38.881Z</time></trkpt><trkpt lat="44.8687775" lon="7.9661399"><ele>315.0</ele><time>2026-05-06T13:00:39.881Z</time></trkpt><trkpt lat="44.8687157" lon="7.9659585"><ele>315.0</ele><time>2026-05-06T13:00:40.881Z</time></trkpt><trkpt lat="44.8686592" lon="7.9657835"><ele>315.75</ele><time>2026-05-06T13:00:41.881Z</time></trkpt><trkpt lat="44.868594" lon="7.9656111"><ele>316.5</ele><time>2026-05-06T13:00:42.881Z</time></trkpt><trkpt lat="44.8685481" lon="7.9654393"><ele>317.25</ele><time>2026-05-06T13:00:43.881Z</time></trkpt><trkpt lat="44.8685185" lon="7.9652664"><ele>318.0</ele><time>2026-05-06T13:00:44.88Z</time></trkpt><trkpt lat="44.8684896" lon="7.9650921"><ele>317.75</ele><time>2026-05-06T13:00:45.88Z</time></trkpt><trkpt lat="44.8684741" lon="7.9649133"><ele>317.5</ele><time>2026-05-06T13:00:46.881Z</time></trkpt><trkpt lat="44.8684639" lon="7.9647435"><ele>317.25</ele><time>2026-05-06T13:00:47.88Z</time></trkpt><trkpt lat="44.8684566" lon="7.9645831"><ele>317.0</ele><time>2026-05-06T13:00:48.88Z</time></trkpt><trkpt lat="44.8684515" lon="7.9644277"><ele>317.0</ele><time>2026-05-06T13:00:49.881Z</time></trkpt><trkpt lat="44.8684435" lon="7.9642956"><ele>317.0</ele><time>2026-05-06T13:00:50.881Z</time></trkpt><trkpt lat="44.8684335" lon="7.9641801"><ele>317.0</ele><time>2026-05-06T13:00:51.881Z</time></trkpt><trkpt lat="44.8684337" lon="7.9640487"><ele>317.0</ele><time>2026-05-06T13:00:53.88Z</time></trkpt><trkpt lat="44.8683762" lon="7.9639289"><ele>317.0</ele><time>2026-05-06T13:00:56.881Z</time></trkpt><trkpt lat="44.8683202" lon="7.9638821"><ele>317.0</ele><time>2026-05-06T13:00:57.881Z</time></trkpt><trkpt lat="44.8682586" lon="7.9638328"><ele>318.2</ele><time>2026-05-06T13:00:58.881Z</time></trkpt><trkpt lat="44.8681901" lon="7.9637915"><ele>319.4</ele><time>2026-05-06T13:00:59.881Z</time></trkpt><trkpt lat="44.8681016" lon="7.9637593"><ele>320.59999999999997</ele><time>2026-05-06T13:01:00.881Z</time></trkpt><trkpt lat="44.8679982" lon="7.9637463"><ele>321.79999999999995</ele><time>2026-05-06T13:01:01.881Z</time></trkpt><trkpt lat="44.8678806" lon="7.9637656"><ele>323.0</ele><time>2026-05-06T13:01:02.881Z</time></trkpt><trkpt lat="44.8677412" lon="7.9638002"><ele>322.33333333333337</ele><time>2026-05-06T13:01:03.881Z</time></trkpt><trkpt lat="44.8675857" lon="7.9638624"><ele>321.6666666666667</ele><time>2026-05-06T13:01:04.881Z</time></trkpt><trkpt lat="44.8674225" lon="7.9639239"><ele>321.0</ele><time>2026-05-06T13:01:05.881Z</time></trkpt><trkpt lat="44.8672583" lon="7.963996"><ele>321.0</ele><time>2026-05-06T13:01:06.88Z</time></trkpt><trkpt lat="44.8670945" lon="7.9640643"><ele>321.0</ele><time>2026-05-06T13:01:07.88Z</time></trkpt><trkpt lat="44.8669274" lon="7.9641309"><ele>321.0</ele><time>2026-05-06T13:01:08.881Z</time></trkpt><trkpt lat="44.8667693" lon="7.9641742"><ele>316.3333333333333</ele><time>2026-05-06T13:01:09.881Z</time></trkpt><trkpt lat="44.8666108" lon="7.9642197"><ele>311.66666666666663</ele><time>2026-05-06T13:01:10.881Z</time></trkpt><trkpt lat="44.8664526" lon="7.9642463"><ele>307.0</ele><time>2026-05-06T13:01:11.881Z</time></trkpt><trkpt lat="44.866288" lon="7.9642948"><ele>307.0</ele><time>2026-05-06T13:01:12.881Z</time></trkpt><trkpt lat="44.8661292" lon="7.9643682"><ele>307.0</ele><time>2026-05-06T13:01:13.881Z</time></trkpt><trkpt lat="44.8659652" lon="7.9644628"><ele>307.0</ele><time>2026-05-06T13:01:14.88Z</time></trkpt><trkpt lat="44.8658049" lon="7.96456"><ele>307.0</ele><time>2026-05-06T13:01:15.881Z</time></trkpt><trkpt lat="44.8656376" lon="7.9646425"><ele>307.0</ele><time>2026-05-06T13:01:16.881Z</time></trkpt><trkpt lat="44.865469" lon="7.9646865"><ele>307.0</ele><time>2026-05-06T13:01:17.881Z</time></trkpt><trkpt lat="44.8652962" lon="7.9647233"><ele>307.0</ele><time>2026-05-06T13:01:18.881Z</time></trkpt><trkpt lat="44.8651308" lon="7.9647553"><ele>307.0</ele><time>2026-05-06T13:01:19.881Z</time></trkpt><trkpt lat="44.8649548" lon="7.9647868"><ele>307.0</ele><time>2026-05-06T13:01:20.881Z</time></trkpt><trkpt lat="44.8647826" lon="7.9648151"><ele>309.3333333333333</ele><time>2026-05-06T13:01:21.88Z</time></trkpt><trkpt lat="44.8646203" lon="7.9648255"><ele>311.6666666666667</ele><time>2026-05-06T13:01:22.88Z</time></trkpt><trkpt lat="44.8644694" lon="7.9647962"><ele>314.0</ele><time>2026-05-06T13:01:23.88Z</time></trkpt><trkpt lat="44.8643321" lon="7.9647128"><ele>313.6666666666667</ele><time>2026-05-06T13:01:24.881Z</time></trkpt><trkpt lat="44.8641927" lon="7.9646065"><ele>313.3333333333333</ele><time>2026-05-06T13:01:25.88Z</time></trkpt><trkpt lat="44.8640601" lon="7.9644741"><ele>313.0</ele><time>2026-05-06T13:01:26.881Z</time></trkpt><trkpt lat="44.863956" lon="7.9643101"><ele>315.3333333333333</ele><time>2026-05-06T13:01:27.881Z</time></trkpt><trkpt lat="44.8638656" lon="7.9641177"><ele>317.6666666666667</ele><time>2026-05-06T13:01:28.881Z</time></trkpt><trkpt lat="44.8638092" lon="7.9639006"><ele>320.0</ele><time>2026-05-06T13:01:29.881Z</time></trkpt><trkpt lat="44.8637471" lon="7.963672"><ele>320.0</ele><time>2026-05-06T13:01:30.881Z</time></trkpt><trkpt lat="44.8636956" lon="7.9634366"><ele>320.0</ele><time>2026-05-06T13:01:31.881Z</time></trkpt><trkpt lat="44.8636366" lon="7.9632099"><ele>320.0</ele><time>2026-05-06T13:01:32.881Z</time></trkpt><trkpt lat="44.8635854" lon="7.9629887"><ele>320.0</ele><time>2026-05-06T13:01:33.881Z</time></trkpt><trkpt lat="44.8635318" lon="7.9627652"><ele>320.0</ele><time>2026-05-06T13:01:34.881Z</time></trkpt><trkpt lat="44.8634794" lon="7.9625777"><ele>320.0</ele><time>2026-05-06T13:01:35.881Z</time></trkpt><trkpt lat="44.8633971" lon="7.9624163"><ele>320.0</ele><time>2026-05-06T13:01:36.881Z</time></trkpt><trkpt lat="44.8632907" lon="7.962271"><ele>320.0</ele><time>2026-05-06T13:01:37.88Z</time></trkpt><trkpt lat="44.8631521" lon="7.9621658"><ele>320.0</ele><time>2026-05-06T13:01:38.881Z</time></trkpt><trkpt lat="44.8629924" lon="7.9620808"><ele>320.0</ele><time>2026-05-06T13:01:39.881Z</time></trkpt><trkpt lat="44.8628262" lon="7.96202"><ele>320.0</ele><time>2026-05-06T13:01:40.881Z</time></trkpt><trkpt lat="44.8626506" lon="7.961962"><ele>320.0</ele><time>2026-05-06T13:01:41.881Z</time></trkpt><trkpt lat="44.8624783" lon="7.9619075"><ele>318.0</ele><time>2026-05-06T13:01:42.881Z</time></trkpt><trkpt lat="44.8622987" lon="7.961847"><ele>316.0</ele><time>2026-05-06T13:01:43.881Z</time></trkpt><trkpt lat="44.86212" lon="7.9617875"><ele>314.0</ele><time>2026-05-06T13:01:44.881Z</time></trkpt><trkpt lat="44.8619522" lon="7.961729"><ele>317.0</ele><time>2026-05-06T13:01:45.881Z</time></trkpt><trkpt lat="44.8617834" lon="7.9616711"><ele>320.0</ele><time>2026-05-06T13:01:46.881Z</time></trkpt><trkpt lat="44.8616265" lon="7.961628"><ele>323.0</ele><time>2026-05-06T13:01:47.881Z</time></trkpt><trkpt lat="44.8614671" lon="7.9616006"><ele>323.0</ele><time>2026-05-06T13:01:48.88Z</time></trkpt><trkpt lat="44.8613021" lon="7.9616086"><ele>323.0</ele><time>2026-05-06T13:01:49.881Z</time></trkpt><trkpt lat="44.8611346" lon="7.9616521"><ele>323.0</ele><time>2026-05-06T13:01:50.881Z</time></trkpt><trkpt lat="44.8609636" lon="7.9617097"><ele>320.6666666666667</ele><time>2026-05-06T13:01:51.881Z</time></trkpt><trkpt lat="44.8607843" lon="7.9617689"><ele>318.3333333333333</ele><time>2026-05-06T13:01:52.881Z</time></trkpt><trkpt lat="44.8606014" lon="7.9618106"><ele>316.0</ele><time>2026-05-06T13:01:53.881Z</time></trkpt><trkpt lat="44.8604148" lon="7.9618296"><ele>316.0</ele><time>2026-05-06T13:01:54.881Z</time></trkpt><trkpt lat="44.8602311" lon="7.9618406"><ele>316.0</ele><time>2026-05-06T13:01:55.881Z</time></trkpt><trkpt lat="44.8600452" lon="7.9618534"><ele>316.0</ele><time>2026-05-06T13:01:56.88Z</time></trkpt><trkpt lat="44.859863" lon="7.9618637"><ele>317.66666666666663</ele><time>2026-05-06T13:01:57.881Z</time></trkpt><trkpt lat="44.8596784" lon="7.9618635"><ele>319.3333333333333</ele><time>2026-05-06T13:01:58.881Z</time></trkpt><trkpt lat="44.8594947" lon="7.96187"><ele>321.0</ele><time>2026-05-06T13:01:59.881Z</time></trkpt><trkpt lat="44.859326" lon="7.961844"><ele>319.75</ele><time>2026-05-06T13:02:00.881Z</time></trkpt><trkpt lat="44.8591668" lon="7.9618584"><ele>318.5</ele><time>2026-05-06T13:02:01.881Z</time></trkpt><trkpt lat="44.8590166" lon="7.9618873"><ele>317.25</ele><time>2026-05-06T13:02:02.881Z</time></trkpt><trkpt lat="44.858892" lon="7.9618463"><ele>316.0</ele><time>2026-05-06T13:02:03.88Z</time></trkpt><trkpt lat="44.8587933" lon="7.9617537"><ele>318.75</ele><time>2026-05-06T13:02:04.881Z</time></trkpt><trkpt lat="44.8587207" lon="7.9616157"><ele>321.5</ele><time>2026-05-06T13:02:05.881Z</time></trkpt><trkpt lat="44.8586641" lon="7.961489"><ele>324.25</ele><time>2026-05-06T13:02:06.881Z</time></trkpt><trkpt lat="44.8586366" lon="7.9613156"><ele>327.0</ele><time>2026-05-06T13:02:07.881Z</time></trkpt><trkpt lat="44.8586283" lon="7.961114"><ele>327.0</ele><time>2026-05-06T13:02:08.881Z</time></trkpt><trkpt lat="44.8586226" lon="7.9609162"><ele>327.0</ele><time>2026-05-06T13:02:09.881Z</time></trkpt><trkpt lat="44.858604" lon="7.9607229"><ele>327.0</ele><time>2026-05-06T13:02:10.881Z</time></trkpt><trkpt lat="44.8585903" lon="7.9605289"><ele>327.0</ele><time>2026-05-06T13:02:11.881Z</time></trkpt><trkpt lat="44.8585476" lon="7.9603659"><ele>327.5</ele><time>2026-05-06T13:02:12.88Z</time></trkpt><trkpt lat="44.8584756" lon="7.9602071"><ele>328.0</ele><time>2026-05-06T13:02:13.881Z</time></trkpt><trkpt lat="44.8583595" lon="7.9600824"><ele>328.5</ele><time>2026-05-06T13:02:14.881Z</time></trkpt><trkpt lat="44.8582164" lon="7.9599873"><ele>329.0</ele><time>2026-05-06T13:02:15.881Z</time></trkpt><trkpt lat="44.8580502" lon="7.9599037"><ele>326.33333333333337</ele><time>2026-05-06T13:02:16.881Z</time></trkpt><trkpt lat="44.8578831" lon="7.9598356"><ele>323.6666666666667</ele><time>2026-05-06T13:02:17.881Z</time></trkpt><trkpt lat="44.8576933" lon="7.9597788"><ele>321.0</ele><time>2026-05-06T13:02:18.881Z</time></trkpt><trkpt lat="44.857514" lon="7.9597306"><ele>321.0</ele><time>2026-05-06T13:02:19.88Z</time></trkpt><trkpt lat="44.8573243" lon="7.9597019"><ele>321.0</ele><time>2026-05-06T13:02:20.881Z</time></trkpt><trkpt lat="44.8571355" lon="7.9596779"><ele>321.0</ele><time>2026-05-06T13:02:21.881Z</time></trkpt><trkpt lat="44.8569458" lon="7.9596502"><ele>320.6666666666667</ele><time>2026-05-06T13:02:22.881Z</time></trkpt><trkpt lat="44.856764" lon="7.9595909"><ele>320.33333333333337</ele><time>2026-05-06T13:02:23.88Z</time></trkpt><trkpt lat="44.8565942" lon="7.9594897"><ele>320.0</ele><time>2026-05-06T13:02:24.881Z</time></trkpt><trkpt lat="44.8564332" lon="7.9593429"><ele>320.6666666666667</ele><time>2026-05-06T13:02:25.88Z</time></trkpt><trkpt lat="44.8562911" lon="7.9591553"><ele>321.3333333333333</ele><time>2026-05-06T13:02:26.881Z</time></trkpt><trkpt lat="44.8561329" lon="7.9589651"><ele>322.0</ele><time>2026-05-06T13:02:27.88Z</time></trkpt><trkpt lat="44.8559851" lon="7.9587752"><ele>322.66666666666663</ele><time>2026-05-06T13:02:28.881Z</time></trkpt><trkpt lat="44.8558376" lon="7.9585915"><ele>323.3333333333333</ele><time>2026-05-06T13:02:29.881Z</time></trkpt><trkpt lat="44.8557023" lon="7.9584144"><ele>324.0</ele><time>2026-05-06T13:02:30.881Z</time></trkpt><trkpt lat="44.8555784" lon="7.9582374"><ele>325.3333333333333</ele><time>2026-05-06T13:02:31.881Z</time></trkpt><trkpt lat="44.8554738" lon="7.9580586"><ele>326.66666666666663</ele><time>2026-05-06T13:02:32.881Z</time></trkpt><trkpt lat="44.8553796" lon="7.9578845"><ele>328.0</ele><time>2026-05-06T13:02:33.881Z</time></trkpt><trkpt lat="44.8552789" lon="7.9577118"><ele>328.0</ele><time>2026-05-06T13:02:34.881Z</time></trkpt><trkpt lat="44.8551698" lon="7.9575444"><ele>328.0</ele><time>2026-05-06T13:02:35.881Z</time></trkpt><trkpt lat="44.8550457" lon="7.9574031"><ele>328.0</ele><time>2026-05-06T13:02:36.88Z</time></trkpt><trkpt lat="44.8549009" lon="7.9572833"><ele>329.66666666666663</ele><time>2026-05-06T13:02:37.881Z</time></trkpt><trkpt lat="44.8547464" lon="7.9571759"><ele>331.3333333333333</ele><time>2026-05-06T13:02:38.88Z</time></trkpt><trkpt lat="44.8546001" lon="7.9570593"><ele>333.0</ele><time>2026-05-06T13:02:39.881Z</time></trkpt><trkpt lat="44.8544617" lon="7.9569222"><ele>333.0</ele><time>2026-05-06T13:02:40.881Z</time></trkpt><trkpt lat="44.8543217" lon="7.9567902"><ele>333.0</ele><time>2026-05-06T13:02:41.881Z</time></trkpt><trkpt lat="44.8541605" lon="7.9566536"><ele>333.0</ele><time>2026-05-06T13:02:42.881Z</time></trkpt><trkpt lat="44.8540006" lon="7.9565071"><ele>334.6666666666667</ele><time>2026-05-06T13:02:43.88Z</time></trkpt><trkpt lat="44.8538383" lon="7.9563608"><ele>336.33333333333337</ele><time>2026-05-06T13:02:44.881Z</time></trkpt><trkpt lat="44.853673" lon="7.9562014"><ele>338.0</ele><time>2026-05-06T13:02:45.881Z</time></trkpt><trkpt lat="44.853511" lon="7.9560549"><ele>337.6666666666667</ele><time>2026-05-06T13:02:46.881Z</time></trkpt><trkpt lat="44.8533544" lon="7.955915"><ele>337.3333333333333</ele><time>2026-05-06T13:02:47.881Z</time></trkpt><trkpt lat="44.8531985" lon="7.9557634"><ele>337.0</ele><time>2026-05-06T13:02:48.881Z</time></trkpt><trkpt lat="44.8530389" lon="7.9556105"><ele>337.0</ele><time>2026-05-06T13:02:49.88Z</time></trkpt><trkpt lat="44.8528709" lon="7.9554742"><ele>337.0</ele><time>2026-05-06T13:02:50.881Z</time></trkpt><trkpt lat="44.8526843" lon="7.9553502"><ele>337.0</ele><time>2026-05-06T13:02:51.881Z</time></trkpt><trkpt lat="44.8524968" lon="7.9552335"><ele>336.66666666666663</ele><time>2026-05-06T13:02:52.88Z</time></trkpt><trkpt lat="44.8523098" lon="7.955117"><ele>336.3333333333333</ele><time>2026-05-06T13:02:53.881Z</time></trkpt><trkpt lat="44.8521199" lon="7.9550078"><ele>336.0</ele><time>2026-05-06T13:02:54.881Z</time></trkpt><trkpt lat="44.8519319" lon="7.9548934"><ele>336.6666666666667</ele><time>2026-05-06T13:02:55.881Z</time></trkpt><trkpt lat="44.8517441" lon="7.9547704"><ele>337.33333333333337</ele><time>2026-05-06T13:02:56.88Z</time></trkpt><trkpt lat="44.8515585" lon="7.9546504"><ele>338.0</ele><time>2026-05-06T13:02:57.881Z</time></trkpt><trkpt lat="44.8513808" lon="7.9545376"><ele>338.0</ele><time>2026-05-06T13:02:58.881Z</time></trkpt><trkpt lat="44.8511895" lon="7.9544329"><ele>338.0</ele><time>2026-05-06T13:02:59.881Z</time></trkpt><trkpt lat="44.8510064" lon="7.9543217"><ele>338.0</ele><time>2026-05-06T13:03:00.88Z</time></trkpt><trkpt lat="44.8508191" lon="7.9542179"><ele>338.33333333333337</ele><time>2026-05-06T13:03:01.881Z</time></trkpt><trkpt lat="44.8506414" lon="7.9541087"><ele>338.6666666666667</ele><time>2026-05-06T13:03:02.88Z</time></trkpt><trkpt lat="44.8504712" lon="7.9540008"><ele>339.0</ele><time>2026-05-06T13:03:03.881Z</time></trkpt><trkpt lat="44.8503092" lon="7.9539027"><ele>339.0</ele><time>2026-05-06T13:03:04.881Z</time></trkpt><trkpt lat="44.8501481" lon="7.95382"><ele>339.0</ele><time>2026-05-06T13:03:05.881Z</time></trkpt><trkpt lat="44.8499863" lon="7.9537664"><ele>339.0</ele><time>2026-05-06T13:03:06.881Z</time></trkpt><trkpt lat="44.8498199" lon="7.9537504"><ele>339.0</ele><time>2026-05-06T13:03:07.881Z</time></trkpt><trkpt lat="44.8496478" lon="7.953771"><ele>339.0</ele><time>2026-05-06T13:03:08.88Z</time></trkpt><trkpt lat="44.8494672" lon="7.9538306"><ele>339.0</ele><time>2026-05-06T13:03:09.881Z</time></trkpt><trkpt lat="44.8492868" lon="7.9539138"><ele>339.0</ele><time>2026-05-06T13:03:10.881Z</time></trkpt><trkpt lat="44.8490969" lon="7.9539927"><ele>339.0</ele><time>2026-05-06T13:03:11.881Z</time></trkpt><trkpt lat="44.8488935" lon="7.9540887"><ele>339.0</ele><time>2026-05-06T13:03:12.881Z</time></trkpt><trkpt lat="44.8486858" lon="7.9541764"><ele>339.3333333333333</ele><time>2026-05-06T13:03:13.881Z</time></trkpt><trkpt lat="44.8484881" lon="7.9542429"><ele>339.66666666666663</ele><time>2026-05-06T13:03:14.881Z</time></trkpt><trkpt lat="44.8482852" lon="7.9542947"><ele>340.0</ele><time>2026-05-06T13:03:15.881Z</time></trkpt><trkpt lat="44.8480866" lon="7.9543251"><ele>340.0</ele><time>2026-05-06T13:03:16.881Z</time></trkpt><trkpt lat="44.8478861" lon="7.954352"><ele>340.0</ele><time>2026-05-06T13:03:17.881Z</time></trkpt><trkpt lat="44.8476845" lon="7.9543721"><ele>340.0</ele><time>2026-05-06T13:03:18.881Z</time></trkpt><trkpt lat="44.847492" lon="7.9543766"><ele>343.0</ele><time>2026-05-06T13:03:19.881Z</time></trkpt><trkpt lat="44.8472991" lon="7.9543761"><ele>346.0</ele><time>2026-05-06T13:03:20.881Z</time></trkpt><trkpt lat="44.8471096" lon="7.9543839"><ele>349.0</ele><time>2026-05-06T13:03:21.88Z</time></trkpt><trkpt lat="44.846923" lon="7.9543988"><ele>349.3333333333333</ele><time>2026-05-06T13:03:22.881Z</time></trkpt><trkpt lat="44.8467331" lon="7.9544195"><ele>349.6666666666667</ele><time>2026-05-06T13:03:23.881Z</time></trkpt><trkpt lat="44.8465467" lon="7.9544365"><ele>350.0</ele><time>2026-05-06T13:03:24.881Z</time></trkpt><trkpt lat="44.8463569" lon="7.9544592"><ele>350.0</ele><time>2026-05-06T13:03:25.881Z</time></trkpt><trkpt lat="44.8461593" lon="7.9544836"><ele>350.0</ele><time>2026-05-06T13:03:26.881Z</time></trkpt><trkpt lat="44.8459536" lon="7.9545184"><ele>350.0</ele><time>2026-05-06T13:03:27.88Z</time></trkpt><trkpt lat="44.8457423" lon="7.9545618"><ele>348.0</ele><time>2026-05-06T13:03:28.881Z</time></trkpt><trkpt lat="44.8455245" lon="7.9546163"><ele>346.0</ele><time>2026-05-06T13:03:29.881Z</time></trkpt><trkpt lat="44.8453043" lon="7.9546783"><ele>344.0</ele><time>2026-05-06T13:03:30.881Z</time></trkpt><trkpt lat="44.8450783" lon="7.9547593"><ele>344.0</ele><time>2026-05-06T13:03:31.881Z</time></trkpt><trkpt lat="44.844856" lon="7.9548438"><ele>344.0</ele><time>2026-05-06T13:03:32.881Z</time></trkpt><trkpt lat="44.8446306" lon="7.9549391"><ele>344.5</ele><time>2026-05-06T13:03:33.88Z</time></trkpt><trkpt lat="44.8444049" lon="7.9550478"><ele>345.0</ele><time>2026-05-06T13:03:34.881Z</time></trkpt><trkpt lat="44.8441847" lon="7.9551548"><ele>347.5</ele><time>2026-05-06T13:03:35.881Z</time></trkpt><trkpt lat="44.8439574" lon="7.9552644"><ele>350.0</ele><time>2026-05-06T13:03:36.881Z</time></trkpt><trkpt lat="44.8437339" lon="7.9553819"><ele>350.0</ele><time>2026-05-06T13:03:37.881Z</time></trkpt><trkpt lat="44.843507" lon="7.9554906"><ele>350.0</ele><time>2026-05-06T13:03:38.881Z</time></trkpt><trkpt lat="44.8432801" lon="7.9556086"><ele>350.0</ele><time>2026-05-06T13:03:39.881Z</time></trkpt><trkpt lat="44.8430507" lon="7.9557248"><ele>350.0</ele><time>2026-05-06T13:03:40.88Z</time></trkpt><trkpt lat="44.8428213" lon="7.9558439"><ele>347.5</ele><time>2026-05-06T13:03:41.88Z</time></trkpt><trkpt lat="44.842597" lon="7.9559545"><ele>345.0</ele><time>2026-05-06T13:03:42.881Z</time></trkpt><trkpt lat="44.8423767" lon="7.9560656"><ele>345.0</ele><time>2026-05-06T13:03:43.881Z</time></trkpt><trkpt lat="44.8421597" lon="7.9561674"><ele>345.0</ele><time>2026-05-06T13:03:44.881Z</time></trkpt><trkpt lat="44.8419459" lon="7.9562745"><ele>346.6666666666667</ele><time>2026-05-06T13:03:45.881Z</time></trkpt><trkpt lat="44.8417444" lon="7.9563662"><ele>348.33333333333337</ele><time>2026-05-06T13:03:46.881Z</time></trkpt><trkpt lat="44.8415563" lon="7.95646"><ele>350.0</ele><time>2026-05-06T13:03:47.881Z</time></trkpt><trkpt lat="44.8413754" lon="7.9565357"><ele>350.0</ele><time>2026-05-06T13:03:48.881Z</time></trkpt><trkpt lat="44.8411972" lon="7.9565875"><ele>350.0</ele><time>2026-05-06T13:03:49.881Z</time></trkpt><trkpt lat="44.8410054" lon="7.9566159"><ele>350.0</ele><time>2026-05-06T13:03:50.881Z</time></trkpt><trkpt lat="44.8408249" lon="7.9566106"><ele>351.0</ele><time>2026-05-06T13:03:51.881Z</time></trkpt><trkpt lat="44.8406475" lon="7.9566009"><ele>352.0</ele><time>2026-05-06T13:03:52.88Z</time></trkpt><trkpt lat="44.8404838" lon="7.9566071"><ele>353.0</ele><time>2026-05-06T13:03:53.881Z</time></trkpt><trkpt lat="44.8403241" lon="7.9565879"><ele>353.0</ele><time>2026-05-06T13:03:54.881Z</time></trkpt><trkpt lat="44.84016" lon="7.9565402"><ele>353.0</ele><time>2026-05-06T13:03:55.88Z</time></trkpt><trkpt lat="44.8399888" lon="7.9564709"><ele>353.0</ele><time>2026-05-06T13:03:56.881Z</time></trkpt><trkpt lat="44.8398318" lon="7.9563587"><ele>353.6666666666667</ele><time>2026-05-06T13:03:57.881Z</time></trkpt><trkpt lat="44.8396818" lon="7.9562648"><ele>354.3333333333333</ele><time>2026-05-06T13:03:58.881Z</time></trkpt><trkpt lat="44.8395371" lon="7.9561857"><ele>355.0</ele><time>2026-05-06T13:03:59.88Z</time></trkpt><trkpt lat="44.8393887" lon="7.9561283"><ele>354.0</ele><time>2026-05-06T13:04:00.881Z</time></trkpt><trkpt lat="44.8392404" lon="7.9561247"><ele>353.0</ele><time>2026-05-06T13:04:01.881Z</time></trkpt><trkpt lat="44.8390975" lon="7.9561796"><ele>352.0</ele><time>2026-05-06T13:04:02.881Z</time></trkpt><trkpt lat="44.8389581" lon="7.9562724"><ele>352.0</ele><time>2026-05-06T13:04:03.881Z</time></trkpt><trkpt lat="44.838817" lon="7.9563672"><ele>352.0</ele><time>2026-05-06T13:04:04.881Z</time></trkpt><trkpt lat="44.8386733" lon="7.9564391"><ele>352.0</ele><time>2026-05-06T13:04:05.881Z</time></trkpt><trkpt lat="44.8385242" lon="7.9564749"><ele>354.0</ele><time>2026-05-06T13:04:06.881Z</time></trkpt><trkpt lat="44.8383789" lon="7.9564638"><ele>356.0</ele><time>2026-05-06T13:04:07.88Z</time></trkpt><trkpt lat="44.8382421" lon="7.9564193"><ele>358.0</ele><time>2026-05-06T13:04:08.881Z</time></trkpt><trkpt lat="44.8381266" lon="7.9563782"><ele>360.0</ele><time>2026-05-06T13:04:09.881Z</time></trkpt><trkpt lat="44.8380303" lon="7.9563419"><ele>360.0</ele><time>2026-05-06T13:04:10.881Z</time></trkpt><trkpt lat="44.8379635" lon="7.9563113"><ele>360.0</ele><time>2026-05-06T13:04:11.881Z</time></trkpt><trkpt lat="44.8378766" lon="7.9562278"><ele>360.0</ele><time>2026-05-06T13:04:13.881Z</time></trkpt><trkpt lat="44.8377343" lon="7.9562035"><ele>360.0</ele><time>2026-05-06T13:04:15.881Z</time></trkpt><trkpt lat="44.8376315" lon="7.9562105"><ele>360.0</ele><time>2026-05-06T13:04:16.881Z</time></trkpt><trkpt lat="44.8375295" lon="7.9562094"><ele>360.5</ele><time>2026-05-06T13:04:17.881Z</time></trkpt><trkpt lat="44.8373952" lon="7.9562119"><ele>361.0</ele><time>2026-05-06T13:04:18.881Z</time></trkpt><trkpt lat="44.837256" lon="7.9562036"><ele>361.5</ele><time>2026-05-06T13:04:19.88Z</time></trkpt><trkpt lat="44.8371038" lon="7.956193"><ele>362.0</ele><time>2026-05-06T13:04:20.88Z</time></trkpt><trkpt lat="44.8369614" lon="7.956203"><ele>362.0</ele><time>2026-05-06T13:04:21.88Z</time></trkpt><trkpt lat="44.8368409" lon="7.9561798"><ele>362.0</ele><time>2026-05-06T13:04:22.881Z</time></trkpt><trkpt lat="44.8367288" lon="7.9561328"><ele>362.0</ele><time>2026-05-06T13:04:23.881Z</time></trkpt><trkpt lat="44.8366418" lon="7.9560378"><ele>362.0</ele><time>2026-05-06T13:04:24.881Z</time></trkpt><trkpt lat="44.8365894" lon="7.9559206"><ele>362.0</ele><time>2026-05-06T13:04:25.88Z</time></trkpt><trkpt lat="44.8365752" lon="7.9557514"><ele>362.0</ele><time>2026-05-06T13:04:26.881Z</time></trkpt><trkpt lat="44.8365956" lon="7.9555611"><ele>362.0</ele><time>2026-05-06T13:04:27.881Z</time></trkpt><trkpt lat="44.8366106" lon="7.9553606"><ele>362.0</ele><time>2026-05-06T13:04:28.881Z</time></trkpt><trkpt lat="44.8366306" lon="7.9551351"><ele>362.0</ele><time>2026-05-06T13:04:29.881Z</time></trkpt><trkpt lat="44.8366516" lon="7.9548945"><ele>362.0</ele><time>2026-05-06T13:04:30.881Z</time></trkpt><trkpt lat="44.8366675" lon="7.9546712"><ele>362.0</ele><time>2026-05-06T13:04:31.881Z</time></trkpt><trkpt lat="44.8366838" lon="7.9544403"><ele>362.0</ele><time>2026-05-06T13:04:32.881Z</time></trkpt><trkpt lat="44.836694" lon="7.9542275"><ele>361.33333333333337</ele><time>2026-05-06T13:04:33.881Z</time></trkpt><trkpt lat="44.8366829" lon="7.9539891"><ele>360.6666666666667</ele><time>2026-05-06T13:04:34.881Z</time></trkpt><trkpt lat="44.8366414" lon="7.9537591"><ele>360.0</ele><time>2026-05-06T13:04:35.881Z</time></trkpt><trkpt lat="44.8365688" lon="7.9535334"><ele>358.6666666666667</ele><time>2026-05-06T13:04:36.88Z</time></trkpt><trkpt lat="44.8364839" lon="7.9533082"><ele>357.33333333333337</ele><time>2026-05-06T13:04:37.88Z</time></trkpt><trkpt lat="44.8364088" lon="7.953081"><ele>356.0</ele><time>2026-05-06T13:04:38.881Z</time></trkpt><trkpt lat="44.836332" lon="7.9528683"><ele>356.0</ele><time>2026-05-06T13:04:39.88Z</time></trkpt><trkpt lat="44.8362511" lon="7.952648"><ele>356.0</ele><time>2026-05-06T13:04:40.881Z</time></trkpt><trkpt lat="44.8361642" lon="7.9524287"><ele>356.0</ele><time>2026-05-06T13:04:41.881Z</time></trkpt><trkpt lat="44.836074" lon="7.9522179"><ele>356.33333333333337</ele><time>2026-05-06T13:04:42.88Z</time></trkpt><trkpt lat="44.8359784" lon="7.951978"><ele>356.6666666666667</ele><time>2026-05-06T13:04:43.881Z</time></trkpt><trkpt lat="44.8358697" lon="7.9517412"><ele>357.0</ele><time>2026-05-06T13:04:44.881Z</time></trkpt><trkpt lat="44.8357608" lon="7.9515072"><ele>357.0</ele><time>2026-05-06T13:04:45.881Z</time></trkpt><trkpt lat="44.8356538" lon="7.9512696"><ele>357.0</ele><time>2026-05-06T13:04:46.881Z</time></trkpt><trkpt lat="44.8355534" lon="7.9510486"><ele>357.0</ele><time>2026-05-06T13:04:47.881Z</time></trkpt><trkpt lat="44.8354524" lon="7.9508142"><ele>357.0</ele><time>2026-05-06T13:04:48.881Z</time></trkpt><trkpt lat="44.8353657" lon="7.9505807"><ele>357.0</ele><time>2026-05-06T13:04:49.88Z</time></trkpt><trkpt lat="44.8352682" lon="7.9503538"><ele>357.0</ele><time>2026-05-06T13:04:50.881Z</time></trkpt><trkpt lat="44.8351704" lon="7.9501295"><ele>358.0</ele><time>2026-05-06T13:04:51.881Z</time></trkpt><trkpt lat="44.8350585" lon="7.9499065"><ele>359.0</ele><time>2026-05-06T13:04:52.881Z</time></trkpt><trkpt lat="44.8349499" lon="7.9496991"><ele>360.0</ele><time>2026-05-06T13:04:53.881Z</time></trkpt><trkpt lat="44.8348279" lon="7.9495052"><ele>360.0</ele><time>2026-05-06T13:04:54.88Z</time></trkpt><trkpt lat="44.8346979" lon="7.9493021"><ele>360.0</ele><time>2026-05-06T13:04:55.881Z</time></trkpt><trkpt lat="44.8345726" lon="7.9490951"><ele>360.0</ele><time>2026-05-06T13:04:56.881Z</time></trkpt><trkpt lat="44.8344425" lon="7.9488754"><ele>359.0</ele><time>2026-05-06T13:04:57.881Z</time></trkpt><trkpt lat="44.834312" lon="7.9486504"><ele>358.0</ele><time>2026-05-06T13:04:58.881Z</time></trkpt><trkpt lat="44.8341843" lon="7.9484467"><ele>357.0</ele><time>2026-05-06T13:04:59.881Z</time></trkpt><trkpt lat="44.8340542" lon="7.9482507"><ele>354.6666666666667</ele><time>2026-05-06T13:05:00.881Z</time></trkpt><trkpt lat="44.8339384" lon="7.9480636"><ele>352.33333333333337</ele><time>2026-05-06T13:05:01.881Z</time></trkpt><trkpt lat="44.8338304" lon="7.9478866"><ele>350.0</ele><time>2026-05-06T13:05:02.881Z</time></trkpt><trkpt lat="44.833719" lon="7.947723"><ele>350.0</ele><time>2026-05-06T13:05:03.881Z</time></trkpt><trkpt lat="44.8336145" lon="7.9475812"><ele>350.0</ele><time>2026-05-06T13:05:04.881Z</time></trkpt><trkpt lat="44.8334907" lon="7.9474642"><ele>350.0</ele><time>2026-05-06T13:05:05.881Z</time></trkpt><trkpt lat="44.8333506" lon="7.9473886"><ele>350.0</ele><time>2026-05-06T13:05:06.881Z</time></trkpt><trkpt lat="44.8332009" lon="7.9473396"><ele>351.0</ele><time>2026-05-06T13:05:07.881Z</time></trkpt><trkpt lat="44.8330486" lon="7.9473213"><ele>352.0</ele><time>2026-05-06T13:05:08.881Z</time></trkpt><trkpt lat="44.83289" lon="7.9473313"><ele>353.0</ele><time>2026-05-06T13:05:09.881Z</time></trkpt><trkpt lat="44.832722" lon="7.9473459"><ele>353.6666666666667</ele><time>2026-05-06T13:05:10.881Z</time></trkpt><trkpt lat="44.832555" lon="7.9473625"><ele>354.3333333333333</ele><time>2026-05-06T13:05:11.881Z</time></trkpt><trkpt lat="44.8324022" lon="7.947376"><ele>355.0</ele><time>2026-05-06T13:05:12.881Z</time></trkpt><trkpt lat="44.8322554" lon="7.9473814"><ele>355.0</ele><time>2026-05-06T13:05:13.88Z</time></trkpt><trkpt lat="44.8321113" lon="7.9473964"><ele>355.0</ele><time>2026-05-06T13:05:14.881Z</time></trkpt><trkpt lat="44.8319547" lon="7.947427"><ele>355.0</ele><time>2026-05-06T13:05:15.881Z</time></trkpt><trkpt lat="44.8317985" lon="7.9474445"><ele>354.0</ele><time>2026-05-06T13:05:16.881Z</time></trkpt><trkpt lat="44.8316469" lon="7.9474698"><ele>353.0</ele><time>2026-05-06T13:05:17.881Z</time></trkpt><trkpt lat="44.8314896" lon="7.9474988"><ele>352.0</ele><time>2026-05-06T13:05:18.881Z</time></trkpt><trkpt lat="44.8313231" lon="7.94754"><ele>348.66666666666663</ele><time>2026-05-06T13:05:19.881Z</time></trkpt><trkpt lat="44.8311617" lon="7.9475663"><ele>345.3333333333333</ele><time>2026-05-06T13:05:20.881Z</time></trkpt><trkpt lat="44.8309987" lon="7.9475962"><ele>342.0</ele><time>2026-05-06T13:05:21.881Z</time></trkpt><trkpt lat="44.8308377" lon="7.9476182"><ele>342.0</ele><time>2026-05-06T13:05:22.881Z</time></trkpt><trkpt lat="44.8306703" lon="7.9476348"><ele>342.0</ele><time>2026-05-06T13:05:23.88Z</time></trkpt><trkpt lat="44.8305023" lon="7.9476301"><ele>342.0</ele><time>2026-05-06T13:05:24.881Z</time></trkpt><trkpt lat="44.8303293" lon="7.9475862"><ele>342.6666666666667</ele><time>2026-05-06T13:05:25.881Z</time></trkpt><trkpt lat="44.8301527" lon="7.9475323"><ele>343.33333333333337</ele><time>2026-05-06T13:05:26.881Z</time></trkpt><trkpt lat="44.8299771" lon="7.9474753"><ele>344.0</ele><time>2026-05-06T13:05:27.881Z</time></trkpt><trkpt lat="44.8297965" lon="7.9474152"><ele>344.0</ele><time>2026-05-06T13:05:28.881Z</time></trkpt><trkpt lat="44.8296128" lon="7.9473657"><ele>344.0</ele><time>2026-05-06T13:05:29.881Z</time></trkpt><trkpt lat="44.8294443" lon="7.9473371"><ele>344.0</ele><time>2026-05-06T13:05:30.881Z</time></trkpt><trkpt lat="44.8292685" lon="7.9473224"><ele>341.33333333333337</ele><time>2026-05-06T13:05:31.881Z</time></trkpt><trkpt lat="44.8290941" lon="7.9473273"><ele>338.6666666666667</ele><time>2026-05-06T13:05:32.881Z</time></trkpt><trkpt lat="44.8289236" lon="7.9473381"><ele>336.0</ele><time>2026-05-06T13:05:33.881Z</time></trkpt><trkpt lat="44.8287542" lon="7.9473553"><ele>336.0</ele><time>2026-05-06T13:05:34.881Z</time></trkpt><trkpt lat="44.828585" lon="7.9473676"><ele>336.0</ele><time>2026-05-06T13:05:35.88Z</time></trkpt><trkpt lat="44.8284235" lon="7.9473815"><ele>336.0</ele><time>2026-05-06T13:05:36.881Z</time></trkpt><trkpt lat="44.8282706" lon="7.9473979"><ele>334.0</ele><time>2026-05-06T13:05:37.881Z</time></trkpt><trkpt lat="44.8281291" lon="7.947403"><ele>332.0</ele><time>2026-05-06T13:05:38.88Z</time></trkpt><trkpt lat="44.8279988" lon="7.9473793"><ele>330.0</ele><time>2026-05-06T13:05:39.881Z</time></trkpt><trkpt lat="44.8278806" lon="7.9473069"><ele>328.0</ele><time>2026-05-06T13:05:40.881Z</time></trkpt><trkpt lat="44.8277718" lon="7.9472049"><ele>328.0</ele><time>2026-05-06T13:05:41.881Z</time></trkpt><trkpt lat="44.8277042" lon="7.9470224"><ele>328.0</ele><time>2026-05-06T13:05:42.881Z</time></trkpt><trkpt lat="44.8276477" lon="7.9468205"><ele>328.0</ele><time>2026-05-06T13:05:43.881Z</time></trkpt><trkpt lat="44.8275916" lon="7.9466146"><ele>325.66666666666663</ele><time>2026-05-06T13:05:44.881Z</time></trkpt><trkpt lat="44.8275277" lon="7.9464132"><ele>323.3333333333333</ele><time>2026-05-06T13:05:45.881Z</time></trkpt><trkpt lat="44.8274527" lon="7.9462218"><ele>321.0</ele><time>2026-05-06T13:05:46.881Z</time></trkpt><trkpt lat="44.8273533" lon="7.9460411"><ele>321.0</ele><time>2026-05-06T13:05:47.881Z</time></trkpt><trkpt lat="44.8272364" lon="7.9458903"><ele>321.0</ele><time>2026-05-06T13:05:48.88Z</time></trkpt><trkpt lat="44.8270965" lon="7.9457365"><ele>321.0</ele><time>2026-05-06T13:05:49.88Z</time></trkpt><trkpt lat="44.8269561" lon="7.9455977"><ele>319.6666666666667</ele><time>2026-05-06T13:05:50.881Z</time></trkpt><trkpt lat="44.8268174" lon="7.9454495"><ele>318.33333333333337</ele><time>2026-05-06T13:05:51.881Z</time></trkpt><trkpt lat="44.8266942" lon="7.9452793"><ele>317.0</ele><time>2026-05-06T13:05:52.881Z</time></trkpt><trkpt lat="44.8265753" lon="7.9451032"><ele>313.33333333333337</ele><time>2026-05-06T13:05:53.881Z</time></trkpt><trkpt lat="44.8264679" lon="7.9449211"><ele>309.6666666666667</ele><time>2026-05-06T13:05:54.88Z</time></trkpt><trkpt lat="44.8263598" lon="7.9447343"><ele>306.0</ele><time>2026-05-06T13:05:55.881Z</time></trkpt><trkpt lat="44.8262467" lon="7.9445542"><ele>306.0</ele><time>2026-05-06T13:05:56.881Z</time></trkpt><trkpt lat="44.8261328" lon="7.9443728"><ele>306.0</ele><time>2026-05-06T13:05:57.881Z</time></trkpt><trkpt lat="44.8260153" lon="7.944224"><ele>306.0</ele><time>2026-05-06T13:05:58.881Z</time></trkpt><trkpt lat="44.8258882" lon="7.9440991"><ele>304.0</ele><time>2026-05-06T13:05:59.881Z</time></trkpt><trkpt lat="44.8257333" lon="7.9439957"><ele>302.0</ele><time>2026-05-06T13:06:00.881Z</time></trkpt><trkpt lat="44.8255933" lon="7.9439217"><ele>300.0</ele><time>2026-05-06T13:06:01.881Z</time></trkpt><trkpt lat="44.8254239" lon="7.9438736"><ele>300.0</ele><time>2026-05-06T13:06:02.881Z</time></trkpt><trkpt lat="44.8252636" lon="7.9438201"><ele>300.0</ele><time>2026-05-06T13:06:03.881Z</time></trkpt><trkpt lat="44.825114" lon="7.9437784"><ele>300.0</ele><time>2026-05-06T13:06:04.881Z</time></trkpt><trkpt lat="44.8249801" lon="7.9437465"><ele>299.6</ele><time>2026-05-06T13:06:05.88Z</time></trkpt><trkpt lat="44.8248638" lon="7.9436975"><ele>299.2</ele><time>2026-05-06T13:06:06.881Z</time></trkpt><trkpt lat="44.8247625" lon="7.9436751"><ele>298.8</ele><time>2026-05-06T13:06:07.881Z</time></trkpt><trkpt lat="44.824684" lon="7.9436526"><ele>298.4</ele><time>2026-05-06T13:06:08.88Z</time></trkpt><trkpt lat="44.8246097" lon="7.9436243"><ele>298.0</ele><time>2026-05-06T13:06:09.881Z</time></trkpt><trkpt lat="44.8245436" lon="7.9435896"><ele>298.0</ele><time>2026-05-06T13:06:10.881Z</time></trkpt><trkpt lat="44.8244326" lon="7.943543"><ele>298.0</ele><time>2026-05-06T13:06:12.881Z</time></trkpt><trkpt lat="44.8243565" lon="7.9434982"><ele>298.0</ele><time>2026-05-06T13:06:14.881Z</time></trkpt><trkpt lat="44.8242895" lon="7.9434354"><ele>298.0</ele><time>2026-05-06T13:06:17.881Z</time></trkpt><trkpt lat="44.8242243" lon="7.9433656"><ele>298.0</ele><time>2026-05-06T13:06:19.881Z</time></trkpt><trkpt lat="44.8241374" lon="7.9432731"><ele>297.75</ele><time>2026-05-06T13:06:21.88Z</time></trkpt><trkpt lat="44.824022" lon="7.9432015"><ele>297.5</ele><time>2026-05-06T13:06:23.881Z</time></trkpt><trkpt lat="44.8238979" lon="7.9432339"><ele>297.25</ele><time>2026-05-06T13:06:25.881Z</time></trkpt><trkpt lat="44.8238118" lon="7.9434196"><ele>297.0</ele><time>2026-05-06T13:06:27.881Z</time></trkpt><trkpt lat="44.8237852" lon="7.94357"><ele>297.0</ele><time>2026-05-06T13:06:28.881Z</time></trkpt><trkpt lat="44.8237416" lon="7.9437233"><ele>297.0</ele><time>2026-05-06T13:06:29.881Z</time></trkpt><trkpt lat="44.8236824" lon="7.9438775"><ele>297.0</ele><time>2026-05-06T13:06:30.881Z</time></trkpt><trkpt lat="44.8236054" lon="7.944039"><ele>297.0</ele><time>2026-05-06T13:06:31.881Z</time></trkpt><trkpt lat="44.8235192" lon="7.9442188"><ele>296.3333333333333</ele><time>2026-05-06T13:06:32.881Z</time></trkpt><trkpt lat="44.8234417" lon="7.9443931"><ele>295.66666666666663</ele><time>2026-05-06T13:06:33.881Z</time></trkpt><trkpt lat="44.8233592" lon="7.9445788"><ele>295.0</ele><time>2026-05-06T13:06:34.88Z</time></trkpt><trkpt lat="44.8232516" lon="7.9447672"><ele>295.0</ele><time>2026-05-06T13:06:35.881Z</time></trkpt><trkpt lat="44.8231503" lon="7.9449579"><ele>295.0</ele><time>2026-05-06T13:06:36.881Z</time></trkpt><trkpt lat="44.8230475" lon="7.9451455"><ele>295.0</ele><time>2026-05-06T13:06:37.881Z</time></trkpt><trkpt lat="44.8229464" lon="7.9453426"><ele>295.3333333333333</ele><time>2026-05-06T13:06:38.881Z</time></trkpt><trkpt lat="44.822845" lon="7.9455397"><ele>295.6666666666667</ele><time>2026-05-06T13:06:39.881Z</time></trkpt><trkpt lat="44.822744" lon="7.9457363"><ele>296.0</ele><time>2026-05-06T13:06:40.881Z</time></trkpt><trkpt lat="44.8226462" lon="7.9459289"><ele>296.0</ele><time>2026-05-06T13:06:41.88Z</time></trkpt><trkpt lat="44.8225383" lon="7.9461149"><ele>296.0</ele><time>2026-05-06T13:06:42.881Z</time></trkpt><trkpt lat="44.8224284" lon="7.9462983"><ele>296.0</ele><time>2026-05-06T13:06:43.881Z</time></trkpt><trkpt lat="44.822307" lon="7.9464822"><ele>296.0</ele><time>2026-05-06T13:06:44.881Z</time></trkpt><trkpt lat="44.8221904" lon="7.946668"><ele>296.0</ele><time>2026-05-06T13:06:45.881Z</time></trkpt><trkpt lat="44.8220712" lon="7.9468154"><ele>296.0</ele><time>2026-05-06T13:06:46.881Z</time></trkpt><trkpt lat="44.8219557" lon="7.9469594"><ele>296.25</ele><time>2026-05-06T13:06:47.881Z</time></trkpt><trkpt lat="44.8218514" lon="7.9470779"><ele>296.5</ele><time>2026-05-06T13:06:48.881Z</time></trkpt><trkpt lat="44.8217667" lon="7.9471862"><ele>296.75</ele><time>2026-05-06T13:06:49.881Z</time></trkpt><trkpt lat="44.8216827" lon="7.9472857"><ele>297.0</ele><time>2026-05-06T13:06:50.881Z</time></trkpt><trkpt lat="44.8216004" lon="7.9473474"><ele>296.8</ele><time>2026-05-06T13:06:51.881Z</time></trkpt><trkpt lat="44.8214998" lon="7.947397"><ele>296.6</ele><time>2026-05-06T13:06:52.881Z</time></trkpt><trkpt lat="44.8213959" lon="7.9474285"><ele>296.40000000000003</ele><time>2026-05-06T13:06:53.881Z</time></trkpt><trkpt lat="44.8212907" lon="7.9474843"><ele>296.2</ele><time>2026-05-06T13:06:54.881Z</time></trkpt><trkpt lat="44.821199" lon="7.9475695"><ele>296.0</ele><time>2026-05-06T13:06:55.88Z</time></trkpt><trkpt lat="44.8211139" lon="7.9476723"><ele>296.0</ele><time>2026-05-06T13:06:56.881Z</time></trkpt><trkpt lat="44.8210123" lon="7.9477803"><ele>296.0</ele><time>2026-05-06T13:06:57.88Z</time></trkpt><trkpt lat="44.8208932" lon="7.9478609"><ele>296.0</ele><time>2026-05-06T13:06:58.881Z</time></trkpt><trkpt lat="44.8207621" lon="7.9479256"><ele>296.0</ele><time>2026-05-06T13:06:59.881Z</time></trkpt><trkpt lat="44.8206233" lon="7.947988"><ele>295.75</ele><time>2026-05-06T13:07:00.881Z</time></trkpt><trkpt lat="44.820481" lon="7.948036"><ele>295.5</ele><time>2026-05-06T13:07:01.88Z</time></trkpt><trkpt lat="44.820334" lon="7.9480846"><ele>295.25</ele><time>2026-05-06T13:07:02.88Z</time></trkpt><trkpt lat="44.8201891" lon="7.9481216"><ele>295.0</ele><time>2026-05-06T13:07:03.881Z</time></trkpt><trkpt lat="44.8200282" lon="7.9481583"><ele>295.0</ele><time>2026-05-06T13:07:04.881Z</time></trkpt><trkpt lat="44.8198746" lon="7.9481822"><ele>295.0</ele><time>2026-05-06T13:07:05.881Z</time></trkpt><trkpt lat="44.8197189" lon="7.9481976"><ele>295.0</ele><time>2026-05-06T13:07:06.881Z</time></trkpt><trkpt lat="44.8195541" lon="7.9482104"><ele>295.0</ele><time>2026-05-06T13:07:07.88Z</time></trkpt><trkpt lat="44.8193854" lon="7.9482119"><ele>295.0</ele><time>2026-05-06T13:07:08.881Z</time></trkpt><trkpt lat="44.819217" lon="7.948212"><ele>295.0</ele><time>2026-05-06T13:07:09.88Z</time></trkpt><trkpt lat="44.8190314" lon="7.9481908"><ele>295.66666666666663</ele><time>2026-05-06T13:07:10.881Z</time></trkpt><trkpt lat="44.8188571" lon="7.948152"><ele>296.3333333333333</ele><time>2026-05-06T13:07:11.88Z</time></trkpt><trkpt lat="44.8186752" lon="7.9481052"><ele>297.0</ele><time>2026-05-06T13:07:12.881Z</time></trkpt><trkpt lat="44.8185057" lon="7.9480448"><ele>297.0</ele><time>2026-05-06T13:07:13.881Z</time></trkpt><trkpt lat="44.8183325" lon="7.9479756"><ele>297.0</ele><time>2026-05-06T13:07:14.881Z</time></trkpt><trkpt lat="44.8181603" lon="7.9479147"><ele>297.0</ele><time>2026-05-06T13:07:15.881Z</time></trkpt><trkpt lat="44.8179957" lon="7.9478509"><ele>297.0</ele><time>2026-05-06T13:07:16.88Z</time></trkpt><trkpt lat="44.8178341" lon="7.9477813"><ele>297.0</ele><time>2026-05-06T13:07:17.881Z</time></trkpt><trkpt lat="44.8176752" lon="7.9476996"><ele>297.0</ele><time>2026-05-06T13:07:18.881Z</time></trkpt><trkpt lat="44.8175288" lon="7.9476213"><ele>297.5</ele><time>2026-05-06T13:07:19.88Z</time></trkpt><trkpt lat="44.8173961" lon="7.9475304"><ele>298.0</ele><time>2026-05-06T13:07:20.88Z</time></trkpt><trkpt lat="44.817266" lon="7.9474424"><ele>298.5</ele><time>2026-05-06T13:07:21.88Z</time></trkpt><trkpt lat="44.8171478" lon="7.9473237"><ele>299.0</ele><time>2026-05-06T13:07:22.881Z</time></trkpt><trkpt lat="44.8170436" lon="7.9471995"><ele>299.0</ele><time>2026-05-06T13:07:23.881Z</time></trkpt><trkpt lat="44.8169652" lon="7.9470369"><ele>299.0</ele><time>2026-05-06T13:07:24.881Z</time></trkpt><trkpt lat="44.8169134" lon="7.9468467"><ele>299.0</ele><time>2026-05-06T13:07:25.881Z</time></trkpt><trkpt lat="44.8168787" lon="7.9466548"><ele>299.0</ele><time>2026-05-06T13:07:26.881Z</time></trkpt><trkpt lat="44.8168473" lon="7.9464699"><ele>299.0</ele><time>2026-05-06T13:07:27.881Z</time></trkpt><trkpt lat="44.8168016" lon="7.9463154"><ele>299.0</ele><time>2026-05-06T13:07:28.88Z</time></trkpt><trkpt lat="44.8167332" lon="7.9461902"><ele>299.0</ele><time>2026-05-06T13:07:29.881Z</time></trkpt><trkpt lat="44.8166403" lon="7.9460968"><ele>299.0</ele><time>2026-05-06T13:07:30.881Z</time></trkpt><trkpt lat="44.8165298" lon="7.9460477"><ele>299.0</ele><time>2026-05-06T13:07:31.88Z</time></trkpt><trkpt lat="44.8163943" lon="7.9460509"><ele>299.0</ele><time>2026-05-06T13:07:32.881Z</time></trkpt><trkpt lat="44.8162536" lon="7.9460875"><ele>299.0</ele><time>2026-05-06T13:07:33.881Z</time></trkpt><trkpt lat="44.8161039" lon="7.9461231"><ele>299.0</ele><time>2026-05-06T13:07:34.88Z</time></trkpt><trkpt lat="44.8159455" lon="7.9461504"><ele>299.0</ele><time>2026-05-06T13:07:35.881Z</time></trkpt><trkpt lat="44.8157696" lon="7.9461615"><ele>299.0</ele><time>2026-05-06T13:07:36.881Z</time></trkpt><trkpt lat="44.8155886" lon="7.9461594"><ele>299.0</ele><time>2026-05-06T13:07:37.881Z</time></trkpt><trkpt lat="44.8154115" lon="7.9461415"><ele>299.0</ele><time>2026-05-06T13:07:38.881Z</time></trkpt><trkpt lat="44.8152437" lon="7.9461265"><ele>299.0</ele><time>2026-05-06T13:07:39.88Z</time></trkpt><trkpt lat="44.8150833" lon="7.946106"><ele>299.0</ele><time>2026-05-06T13:07:40.881Z</time></trkpt><trkpt lat="44.8149391" lon="7.9460915"><ele>300.0</ele><time>2026-05-06T13:07:41.881Z</time></trkpt><trkpt lat="44.8148035" lon="7.9460954"><ele>301.0</ele><time>2026-05-06T13:07:42.88Z</time></trkpt><trkpt lat="44.8146699" lon="7.9461346"><ele>302.0</ele><time>2026-05-06T13:07:43.881Z</time></trkpt><trkpt lat="44.814546" lon="7.9462187"><ele>303.0</ele><time>2026-05-06T13:07:44.88Z</time></trkpt><trkpt lat="44.8144516" lon="7.9463467"><ele>303.0</ele><time>2026-05-06T13:07:45.881Z</time></trkpt><trkpt lat="44.8143878" lon="7.9465059"><ele>303.0</ele><time>2026-05-06T13:07:46.881Z</time></trkpt><trkpt lat="44.8143539" lon="7.9466767"><ele>303.0</ele><time>2026-05-06T13:07:47.881Z</time></trkpt><trkpt lat="44.8143573" lon="7.9468593"><ele>303.0</ele><time>2026-05-06T13:07:48.88Z</time></trkpt><trkpt lat="44.8144007" lon="7.9470417"><ele>302.3333333333333</ele><time>2026-05-06T13:07:49.881Z</time></trkpt><trkpt lat="44.8144652" lon="7.9472378"><ele>301.66666666666663</ele><time>2026-05-06T13:07:50.881Z</time></trkpt><trkpt lat="44.814545" lon="7.94742"><ele>301.0</ele><time>2026-05-06T13:07:51.88Z</time></trkpt><trkpt lat="44.8146265" lon="7.9475937"><ele>301.0</ele><time>2026-05-06T13:07:52.881Z</time></trkpt><trkpt lat="44.8146961" lon="7.9477501"><ele>301.0</ele><time>2026-05-06T13:07:53.881Z</time></trkpt><trkpt lat="44.8147449" lon="7.9478968"><ele>301.0</ele><time>2026-05-06T13:07:54.88Z</time></trkpt><trkpt lat="44.8147672" lon="7.9480371"><ele>301.0</ele><time>2026-05-06T13:07:55.881Z</time></trkpt><trkpt lat="44.8147794" lon="7.9481728"><ele>301.0</ele><time>2026-05-06T13:07:56.881Z</time></trkpt><trkpt lat="44.8147609" lon="7.9483091"><ele>301.2</ele><time>2026-05-06T13:07:57.881Z</time></trkpt><trkpt lat="44.8147198" lon="7.9484329"><ele>301.40000000000003</ele><time>2026-05-06T13:07:58.881Z</time></trkpt><trkpt lat="44.8146438" lon="7.9485367"><ele>301.6</ele><time>2026-05-06T13:07:59.881Z</time></trkpt><trkpt lat="44.8145611" lon="7.9486216"><ele>301.8</ele><time>2026-05-06T13:08:00.881Z</time></trkpt><trkpt lat="44.8144536" lon="7.9487201"><ele>302.0</ele><time>2026-05-06T13:08:01.881Z</time></trkpt><trkpt lat="44.8143326" lon="7.9488299"><ele>302.0</ele><time>2026-05-06T13:08:02.881Z</time></trkpt><trkpt lat="44.8141934" lon="7.948938"><ele>302.0</ele><time>2026-05-06T13:08:03.881Z</time></trkpt><trkpt lat="44.8140512" lon="7.949053"><ele>302.0</ele><time>2026-05-06T13:08:04.881Z</time></trkpt><trkpt lat="44.8138985" lon="7.9491664"><ele>302.0</ele><time>2026-05-06T13:08:05.88Z</time></trkpt><trkpt lat="44.8137521" lon="7.9492741"><ele>302.0</ele><time>2026-05-06T13:08:06.881Z</time></trkpt><trkpt lat="44.8136048" lon="7.9493874"><ele>302.0</ele><time>2026-05-06T13:08:07.881Z</time></trkpt><trkpt lat="44.8134604" lon="7.9495004"><ele>303.33333333333337</ele><time>2026-05-06T13:08:08.881Z</time></trkpt><trkpt lat="44.8133206" lon="7.9496095"><ele>304.6666666666667</ele><time>2026-05-06T13:08:09.881Z</time></trkpt><trkpt lat="44.8131893" lon="7.9497201"><ele>306.0</ele><time>2026-05-06T13:08:10.88Z</time></trkpt><trkpt lat="44.8130489" lon="7.9498328"><ele>306.0</ele><time>2026-05-06T13:08:11.881Z</time></trkpt><trkpt lat="44.8129293" lon="7.9499404"><ele>306.0</ele><time>2026-05-06T13:08:12.881Z</time></trkpt><trkpt lat="44.812813" lon="7.9500439"><ele>306.0</ele><time>2026-05-06T13:08:13.881Z</time></trkpt><trkpt lat="44.8127248" lon="7.9501254"><ele>306.0</ele><time>2026-05-06T13:08:14.881Z</time></trkpt><trkpt lat="44.8126416" lon="7.9501906"><ele>306.2</ele><time>2026-05-06T13:08:15.88Z</time></trkpt><trkpt lat="44.8125571" lon="7.9502248"><ele>306.40000000000003</ele><time>2026-05-06T13:08:16.881Z</time></trkpt><trkpt lat="44.8124552" lon="7.9502403"><ele>306.6</ele><time>2026-05-06T13:08:17.881Z</time></trkpt><trkpt lat="44.8123471" lon="7.9502156"><ele>306.8</ele><time>2026-05-06T13:08:18.881Z</time></trkpt><trkpt lat="44.8122554" lon="7.9501513"><ele>307.0</ele><time>2026-05-06T13:08:19.881Z</time></trkpt><trkpt lat="44.8121831" lon="7.9500315"><ele>307.0</ele><time>2026-05-06T13:08:20.881Z</time></trkpt><trkpt lat="44.8121101" lon="7.9498826"><ele>307.0</ele><time>2026-05-06T13:08:21.881Z</time></trkpt><trkpt lat="44.8120343" lon="7.9497093"><ele>307.0</ele><time>2026-05-06T13:08:22.881Z</time></trkpt><trkpt lat="44.8119562" lon="7.949529"><ele>307.0</ele><time>2026-05-06T13:08:23.881Z</time></trkpt><trkpt lat="44.8118765" lon="7.9493425"><ele>308.66666666666663</ele><time>2026-05-06T13:08:24.881Z</time></trkpt><trkpt lat="44.8117979" lon="7.9491348"><ele>310.3333333333333</ele><time>2026-05-06T13:08:25.88Z</time></trkpt><trkpt lat="44.8117185" lon="7.948936"><ele>312.0</ele><time>2026-05-06T13:08:26.881Z</time></trkpt><trkpt lat="44.8116365" lon="7.94874"><ele>312.0</ele><time>2026-05-06T13:08:27.88Z</time></trkpt><trkpt lat="44.8115514" lon="7.9485477"><ele>312.0</ele><time>2026-05-06T13:08:28.881Z</time></trkpt><trkpt lat="44.8114682" lon="7.9483604"><ele>312.0</ele><time>2026-05-06T13:08:29.881Z</time></trkpt><trkpt lat="44.8113593" lon="7.9481976"><ele>311.3333333333333</ele><time>2026-05-06T13:08:30.88Z</time></trkpt><trkpt lat="44.8112318" lon="7.9480506"><ele>310.66666666666663</ele><time>2026-05-06T13:08:31.881Z</time></trkpt><trkpt lat="44.8110874" lon="7.9479021"><ele>310.0</ele><time>2026-05-06T13:08:32.881Z</time></trkpt><trkpt lat="44.8109311" lon="7.9477776"><ele>309.66666666666663</ele><time>2026-05-06T13:08:33.881Z</time></trkpt><trkpt lat="44.8107775" lon="7.9476455"><ele>309.3333333333333</ele><time>2026-05-06T13:08:34.881Z</time></trkpt><trkpt lat="44.8106103" lon="7.9475093"><ele>309.0</ele><time>2026-05-06T13:08:35.881Z</time></trkpt><trkpt lat="44.8104495" lon="7.9473619"><ele>309.0</ele><time>2026-05-06T13:08:36.881Z</time></trkpt><trkpt lat="44.8102835" lon="7.9472114"><ele>309.0</ele><time>2026-05-06T13:08:37.881Z</time></trkpt><trkpt lat="44.8101102" lon="7.9470862"><ele>309.0</ele><time>2026-05-06T13:08:38.881Z</time></trkpt><trkpt lat="44.8099428" lon="7.9469205"><ele>309.3333333333333</ele><time>2026-05-06T13:08:39.881Z</time></trkpt><trkpt lat="44.8097884" lon="7.946739"><ele>309.66666666666663</ele><time>2026-05-06T13:08:40.88Z</time></trkpt><trkpt lat="44.8096417" lon="7.9465469"><ele>310.0</ele><time>2026-05-06T13:08:41.88Z</time></trkpt><trkpt lat="44.8094922" lon="7.9463529"><ele>310.0</ele><time>2026-05-06T13:08:42.881Z</time></trkpt><trkpt lat="44.8093467" lon="7.9461672"><ele>310.0</ele><time>2026-05-06T13:08:43.881Z</time></trkpt><trkpt lat="44.8092046" lon="7.9459607"><ele>310.0</ele><time>2026-05-06T13:08:44.881Z</time></trkpt><trkpt lat="44.8090605" lon="7.9457665"><ele>310.0</ele><time>2026-05-06T13:08:45.881Z</time></trkpt><trkpt lat="44.8089102" lon="7.9455716"><ele>310.0</ele><time>2026-05-06T13:08:46.881Z</time></trkpt><trkpt lat="44.8087615" lon="7.9453699"><ele>310.0</ele><time>2026-05-06T13:08:47.881Z</time></trkpt><trkpt lat="44.8086132" lon="7.9451611"><ele>311.3333333333333</ele><time>2026-05-06T13:08:48.881Z</time></trkpt><trkpt lat="44.8084756" lon="7.9449453"><ele>312.6666666666667</ele><time>2026-05-06T13:08:49.881Z</time></trkpt><trkpt lat="44.808343" lon="7.9447212"><ele>314.0</ele><time>2026-05-06T13:08:50.88Z</time></trkpt><trkpt lat="44.8082202" lon="7.9444837"><ele>314.0</ele><time>2026-05-06T13:08:51.881Z</time></trkpt><trkpt lat="44.8080978" lon="7.9442441"><ele>314.0</ele><time>2026-05-06T13:08:52.881Z</time></trkpt><trkpt lat="44.8079748" lon="7.9440041"><ele>314.0</ele><time>2026-05-06T13:08:53.881Z</time></trkpt><trkpt lat="44.8078452" lon="7.9437636"><ele>313.33333333333337</ele><time>2026-05-06T13:08:54.881Z</time></trkpt><trkpt lat="44.807704" lon="7.9435245"><ele>312.6666666666667</ele><time>2026-05-06T13:08:55.881Z</time></trkpt><trkpt lat="44.807548" lon="7.9432954"><ele>312.0</ele><time>2026-05-06T13:08:56.881Z</time></trkpt><trkpt lat="44.8073992" lon="7.9430742"><ele>314.0</ele><time>2026-05-06T13:08:57.881Z</time></trkpt><trkpt lat="44.8072349" lon="7.9428516"><ele>316.0</ele><time>2026-05-06T13:08:58.881Z</time></trkpt><trkpt lat="44.8070759" lon="7.942631"><ele>315.3333333333333</ele><time>2026-05-06T13:08:59.881Z</time></trkpt><trkpt lat="44.8069183" lon="7.9424144"><ele>314.6666666666667</ele><time>2026-05-06T13:09:00.88Z</time></trkpt><trkpt lat="44.8067563" lon="7.9422015"><ele>314.0</ele><time>2026-05-06T13:09:01.881Z</time></trkpt><trkpt lat="44.8065955" lon="7.9419827"><ele>314.33333333333337</ele><time>2026-05-06T13:09:02.881Z</time></trkpt><trkpt lat="44.8064416" lon="7.9417737"><ele>314.6666666666667</ele><time>2026-05-06T13:09:03.881Z</time></trkpt><trkpt lat="44.8062934" lon="7.9415647"><ele>315.0</ele><time>2026-05-06T13:09:04.881Z</time></trkpt><trkpt lat="44.8061549" lon="7.9413498"><ele>315.0</ele><time>2026-05-06T13:09:05.881Z</time></trkpt><trkpt lat="44.8060368" lon="7.9411047"><ele>315.0</ele><time>2026-05-06T13:09:06.881Z</time></trkpt><trkpt lat="44.8059557" lon="7.9408382"><ele>315.0</ele><time>2026-05-06T13:09:07.88Z</time></trkpt><trkpt lat="44.8059044" lon="7.940553"><ele>315.3333333333333</ele><time>2026-05-06T13:09:08.881Z</time></trkpt><trkpt lat="44.8058846" lon="7.9402595"><ele>315.66666666666663</ele><time>2026-05-06T13:09:09.881Z</time></trkpt><trkpt lat="44.8059048" lon="7.9399605"><ele>316.0</ele><time>2026-05-06T13:09:10.881Z</time></trkpt><trkpt lat="44.8059446" lon="7.939657"><ele>316.5</ele><time>2026-05-06T13:09:11.881Z</time></trkpt><trkpt lat="44.8060034" lon="7.939354"><ele>317.0</ele><time>2026-05-06T13:09:12.881Z</time></trkpt><trkpt lat="44.8060578" lon="7.9390375"><ele>317.0</ele><time>2026-05-06T13:09:13.881Z</time></trkpt><trkpt lat="44.8061145" lon="7.9387244"><ele>317.0</ele><time>2026-05-06T13:09:14.881Z</time></trkpt><trkpt lat="44.8061725" lon="7.9384161"><ele>318.0</ele><time>2026-05-06T13:09:15.881Z</time></trkpt><trkpt lat="44.8062313" lon="7.9381042"><ele>319.0</ele><time>2026-05-06T13:09:16.881Z</time></trkpt><trkpt lat="44.8062881" lon="7.937793"><ele>320.66666666666663</ele><time>2026-05-06T13:09:17.88Z</time></trkpt><trkpt lat="44.806339" lon="7.9374879"><ele>322.3333333333333</ele><time>2026-05-06T13:09:18.881Z</time></trkpt><trkpt lat="44.8063873" lon="7.9372035"><ele>324.0</ele><time>2026-05-06T13:09:19.881Z</time></trkpt><trkpt lat="44.806432" lon="7.9369349"><ele>325.6666666666667</ele><time>2026-05-06T13:09:20.881Z</time></trkpt><trkpt lat="44.8064746" lon="7.936697"><ele>327.33333333333337</ele><time>2026-05-06T13:09:21.881Z</time></trkpt><trkpt lat="44.8065219" lon="7.9364733"><ele>329.0</ele><time>2026-05-06T13:09:22.881Z</time></trkpt><trkpt lat="44.8065815" lon="7.9362758"><ele>329.0</ele><time>2026-05-06T13:09:23.881Z</time></trkpt><trkpt lat="44.806656" lon="7.9360964"><ele>329.0</ele><time>2026-05-06T13:09:24.881Z</time></trkpt><trkpt lat="44.8067305" lon="7.9359591"><ele>329.0</ele><time>2026-05-06T13:09:25.881Z</time></trkpt><trkpt lat="44.8067871" lon="7.9358198"><ele>329.0</ele><time>2026-05-06T13:09:26.881Z</time></trkpt><trkpt lat="44.8068193" lon="7.9356588"><ele>329.0</ele><time>2026-05-06T13:09:27.881Z</time></trkpt><trkpt lat="44.8068157" lon="7.9354917"><ele>329.0</ele><time>2026-05-06T13:09:28.881Z</time></trkpt><trkpt lat="44.8067778" lon="7.9353157"><ele>329.0</ele><time>2026-05-06T13:09:29.881Z</time></trkpt><trkpt lat="44.806713" lon="7.9351322"><ele>329.0</ele><time>2026-05-06T13:09:30.881Z</time></trkpt><trkpt lat="44.8066372" lon="7.9349365"><ele>330.33333333333337</ele><time>2026-05-06T13:09:31.881Z</time></trkpt><trkpt lat="44.8065458" lon="7.9347369"><ele>331.6666666666667</ele><time>2026-05-06T13:09:32.881Z</time></trkpt><trkpt lat="44.8064307" lon="7.934555"><ele>333.0</ele><time>2026-05-06T13:09:33.881Z</time></trkpt><trkpt lat="44.8063048" lon="7.9343918"><ele>333.0</ele><time>2026-05-06T13:09:34.881Z</time></trkpt><trkpt lat="44.8061831" lon="7.9342397"><ele>333.0</ele><time>2026-05-06T13:09:35.881Z</time></trkpt><trkpt lat="44.8060807" lon="7.9340792"><ele>333.0</ele><time>2026-05-06T13:09:36.881Z</time></trkpt><trkpt lat="44.8060007" lon="7.9339033"><ele>336.5</ele><time>2026-05-06T13:09:37.881Z</time></trkpt><trkpt lat="44.8059556" lon="7.9337055"><ele>340.0</ele><time>2026-05-06T13:09:38.881Z</time></trkpt><trkpt lat="44.8059365" lon="7.9335046"><ele>343.5</ele><time>2026-05-06T13:09:39.881Z</time></trkpt><trkpt lat="44.8059349" lon="7.9332894"><ele>347.0</ele><time>2026-05-06T13:09:40.881Z</time></trkpt><trkpt lat="44.8059401" lon="7.9330926"><ele>347.0</ele><time>2026-05-06T13:09:41.881Z</time></trkpt><trkpt lat="44.8059802" lon="7.9328956"><ele>347.0</ele><time>2026-05-06T13:09:42.881Z</time></trkpt><trkpt lat="44.80604" lon="7.9327076"><ele>347.0</ele><time>2026-05-06T13:09:43.881Z</time></trkpt><trkpt lat="44.806109" lon="7.9325414"><ele>347.0</ele><time>2026-05-06T13:09:44.881Z</time></trkpt><trkpt lat="44.8061889" lon="7.9324039"><ele>346.20000000000005</ele><time>2026-05-06T13:09:45.88Z</time></trkpt><trkpt lat="44.806249" lon="7.9322714"><ele>345.4</ele><time>2026-05-06T13:09:46.88Z</time></trkpt><trkpt lat="44.806292" lon="7.9321383"><ele>344.6</ele><time>2026-05-06T13:09:47.88Z</time></trkpt><trkpt lat="44.8062972" lon="7.9320082"><ele>343.79999999999995</ele><time>2026-05-06T13:09:48.88Z</time></trkpt><trkpt lat="44.8062615" lon="7.9318945"><ele>343.0</ele><time>2026-05-06T13:09:49.881Z</time></trkpt><trkpt lat="44.8061863" lon="7.9317936"><ele>342.5</ele><time>2026-05-06T13:09:50.881Z</time></trkpt><trkpt lat="44.80609" lon="7.9317181"><ele>342.0</ele><time>2026-05-06T13:09:51.881Z</time></trkpt><trkpt lat="44.805953" lon="7.9316622"><ele>341.5</ele><time>2026-05-06T13:09:52.881Z</time></trkpt><trkpt lat="44.8058144" lon="7.9316338"><ele>341.0</ele><time>2026-05-06T13:09:53.881Z</time></trkpt><trkpt lat="44.8056763" lon="7.9316113"><ele>344.0</ele><time>2026-05-06T13:09:54.881Z</time></trkpt><trkpt lat="44.8055405" lon="7.931585"><ele>347.0</ele><time>2026-05-06T13:09:55.88Z</time></trkpt><trkpt lat="44.8054135" lon="7.9315447"><ele>350.0</ele><time>2026-05-06T13:09:56.881Z</time></trkpt><trkpt lat="44.8052955" lon="7.9314918"><ele>353.0</ele><time>2026-05-06T13:09:57.881Z</time></trkpt><trkpt lat="44.8051783" lon="7.9314033"><ele>353.33333333333337</ele><time>2026-05-06T13:09:58.881Z</time></trkpt><trkpt lat="44.8050739" lon="7.9312531"><ele>353.6666666666667</ele><time>2026-05-06T13:09:59.881Z</time></trkpt><trkpt lat="44.8049876" lon="7.931089"><ele>354.0</ele><time>2026-05-06T13:10:00.881Z</time></trkpt><trkpt lat="44.8049139" lon="7.9308881"><ele>355.0</ele><time>2026-05-06T13:10:01.881Z</time></trkpt><trkpt lat="44.8048561" lon="7.9306918"><ele>356.0</ele><time>2026-05-06T13:10:02.881Z</time></trkpt><trkpt lat="44.8048003" lon="7.9304826"><ele>357.0</ele><time>2026-05-06T13:10:03.881Z</time></trkpt><trkpt lat="44.804737" lon="7.9302666"><ele>355.3333333333333</ele><time>2026-05-06T13:10:04.881Z</time></trkpt><trkpt lat="44.8046522" lon="7.930056"><ele>353.66666666666663</ele><time>2026-05-06T13:10:05.881Z</time></trkpt><trkpt lat="44.8045677" lon="7.9298559"><ele>352.0</ele><time>2026-05-06T13:10:06.88Z</time></trkpt><trkpt lat="44.8044855" lon="7.9296429"><ele>352.0</ele><time>2026-05-06T13:10:07.881Z</time></trkpt><trkpt lat="44.8044149" lon="7.9294319"><ele>352.0</ele><time>2026-05-06T13:10:08.881Z</time></trkpt><trkpt lat="44.8043459" lon="7.9292034"><ele>352.0</ele><time>2026-05-06T13:10:09.881Z</time></trkpt><trkpt lat="44.8042752" lon="7.9289792"><ele>355.3333333333333</ele><time>2026-05-06T13:10:10.88Z</time></trkpt><trkpt lat="44.8042058" lon="7.9287475"><ele>358.6666666666667</ele><time>2026-05-06T13:10:11.881Z</time></trkpt><trkpt lat="44.8041389" lon="7.9285146"><ele>362.0</ele><time>2026-05-06T13:10:12.88Z</time></trkpt><trkpt lat="44.8040835" lon="7.9283013"><ele>363.6666666666667</ele><time>2026-05-06T13:10:13.881Z</time></trkpt><trkpt lat="44.8040219" lon="7.9280944"><ele>365.3333333333333</ele><time>2026-05-06T13:10:14.881Z</time></trkpt><trkpt lat="44.8039669" lon="7.9278925"><ele>367.0</ele><time>2026-05-06T13:10:15.881Z</time></trkpt><trkpt lat="44.8039229" lon="7.927688"><ele>368.6</ele><time>2026-05-06T13:10:16.88Z</time></trkpt><trkpt lat="44.8038717" lon="7.9275053"><ele>370.20000000000005</ele><time>2026-05-06T13:10:17.881Z</time></trkpt><trkpt lat="44.8038243" lon="7.9273453"><ele>371.8</ele><time>2026-05-06T13:10:18.881Z</time></trkpt><trkpt lat="44.8037857" lon="7.9272275"><ele>373.4</ele><time>2026-05-06T13:10:19.881Z</time></trkpt><trkpt lat="44.803732" lon="7.9271205"><ele>375.0</ele><time>2026-05-06T13:10:20.881Z</time></trkpt><trkpt lat="44.8036692" lon="7.9270322"><ele>375.0</ele><time>2026-05-06T13:10:21.881Z</time></trkpt><trkpt lat="44.8035716" lon="7.9269684"><ele>375.0</ele><time>2026-05-06T13:10:22.881Z</time></trkpt><trkpt lat="44.8034521" lon="7.9269233"><ele>375.0</ele><time>2026-05-06T13:10:23.881Z</time></trkpt><trkpt lat="44.8033117" lon="7.9268894"><ele>375.0</ele><time>2026-05-06T13:10:24.881Z</time></trkpt><trkpt lat="44.803164" lon="7.9268516"><ele>376.0</ele><time>2026-05-06T13:10:25.881Z</time></trkpt><trkpt lat="44.8030199" lon="7.9267949"><ele>377.0</ele><time>2026-05-06T13:10:26.881Z</time></trkpt><trkpt lat="44.8028705" lon="7.9267531"><ele>378.0</ele><time>2026-05-06T13:10:27.881Z</time></trkpt><trkpt lat="44.8027212" lon="7.9267101"><ele>379.6666666666667</ele><time>2026-05-06T13:10:28.881Z</time></trkpt><trkpt lat="44.802567" lon="7.9266401"><ele>381.33333333333337</ele><time>2026-05-06T13:10:29.881Z</time></trkpt><trkpt lat="44.8024098" lon="7.926562"><ele>383.0</ele><time>2026-05-06T13:10:30.881Z</time></trkpt><trkpt lat="44.8022543" lon="7.9264907"><ele>383.0</ele><time>2026-05-06T13:10:31.881Z</time></trkpt><trkpt lat="44.8020915" lon="7.9264357"><ele>383.0</ele><time>2026-05-06T13:10:32.881Z</time></trkpt><trkpt lat="44.8019319" lon="7.9264038"><ele>383.0</ele><time>2026-05-06T13:10:33.881Z</time></trkpt><trkpt lat="44.8017831" lon="7.9263924"><ele>383.5</ele><time>2026-05-06T13:10:34.88Z</time></trkpt><trkpt lat="44.801644" lon="7.9263881"><ele>384.0</ele><time>2026-05-06T13:10:35.88Z</time></trkpt><trkpt lat="44.8015182" lon="7.9263724"><ele>384.5</ele><time>2026-05-06T13:10:36.881Z</time></trkpt><trkpt lat="44.8013995" lon="7.9263574"><ele>385.0</ele><time>2026-05-06T13:10:37.881Z</time></trkpt><trkpt lat="44.8012912" lon="7.9263304"><ele>385.0</ele><time>2026-05-06T13:10:38.881Z</time></trkpt><trkpt lat="44.8011871" lon="7.9263001"><ele>385.0</ele><time>2026-05-06T13:10:39.88Z</time></trkpt><trkpt lat="44.8010896" lon="7.9261965"><ele>385.0</ele><time>2026-05-06T13:10:40.881Z</time></trkpt><trkpt lat="44.8009793" lon="7.9261062"><ele>385.0</ele><time>2026-05-06T13:10:41.881Z</time></trkpt><trkpt lat="44.8008892" lon="7.9260309"><ele>385.2</ele><time>2026-05-06T13:10:42.881Z</time></trkpt><trkpt lat="44.8007872" lon="7.9259729"><ele>385.4</ele><time>2026-05-06T13:10:43.88Z</time></trkpt><trkpt lat="44.8006869" lon="7.9259383"><ele>385.6</ele><time>2026-05-06T13:10:44.881Z</time></trkpt><trkpt lat="44.8005802" lon="7.9259462"><ele>385.8</ele><time>2026-05-06T13:10:45.881Z</time></trkpt><trkpt lat="44.8004857" lon="7.9259843"><ele>386.0</ele><time>2026-05-06T13:10:46.881Z</time></trkpt><trkpt lat="44.8003888" lon="7.926056"><ele>386.0</ele><time>2026-05-06T13:10:47.881Z</time></trkpt><trkpt lat="44.8002952" lon="7.9261722"><ele>386.0</ele><time>2026-05-06T13:10:48.881Z</time></trkpt><trkpt lat="44.8001978" lon="7.9263208"><ele>386.0</ele><time>2026-05-06T13:10:49.881Z</time></trkpt><trkpt lat="44.8001094" lon="7.9264947"><ele>386.0</ele><time>2026-05-06T13:10:50.881Z</time></trkpt><trkpt lat="44.8000198" lon="7.9266769"><ele>386.0</ele><time>2026-05-06T13:10:51.881Z</time></trkpt><trkpt lat="44.7999277" lon="7.9268687"><ele>386.0</ele><time>2026-05-06T13:10:52.881Z</time></trkpt><trkpt lat="44.7998363" lon="7.9270688"><ele>386.0</ele><time>2026-05-06T13:10:53.88Z</time></trkpt><trkpt lat="44.7997301" lon="7.9272685"><ele>386.0</ele><time>2026-05-06T13:10:54.881Z</time></trkpt><trkpt lat="44.7996231" lon="7.9274498"><ele>386.0</ele><time>2026-05-06T13:10:55.881Z</time></trkpt><trkpt lat="44.799473" lon="7.9276156"><ele>386.0</ele><time>2026-05-06T13:10:56.881Z</time></trkpt><trkpt lat="44.7993795" lon="7.9278086"><ele>386.3333333333333</ele><time>2026-05-06T13:10:57.881Z</time></trkpt><trkpt lat="44.7992659" lon="7.9279864"><ele>386.66666666666663</ele><time>2026-05-06T13:10:58.881Z</time></trkpt><trkpt lat="44.7991511" lon="7.9281469"><ele>387.0</ele><time>2026-05-06T13:10:59.881Z</time></trkpt><trkpt lat="44.7990391" lon="7.9282881"><ele>384.6666666666667</ele><time>2026-05-06T13:11:00.881Z</time></trkpt><trkpt lat="44.7989037" lon="7.9284066"><ele>382.33333333333337</ele><time>2026-05-06T13:11:01.881Z</time></trkpt><trkpt lat="44.7987729" lon="7.9285332"><ele>380.0</ele><time>2026-05-06T13:11:02.881Z</time></trkpt><trkpt lat="44.798636" lon="7.9286548"><ele>380.6666666666667</ele><time>2026-05-06T13:11:03.88Z</time></trkpt><trkpt lat="44.7985006" lon="7.928768"><ele>381.3333333333333</ele><time>2026-05-06T13:11:04.881Z</time></trkpt><trkpt lat="44.7983617" lon="7.9288915"><ele>382.0</ele><time>2026-05-06T13:11:05.881Z</time></trkpt><trkpt lat="44.7982236" lon="7.9290054"><ele>382.0</ele><time>2026-05-06T13:11:06.881Z</time></trkpt><trkpt lat="44.7980776" lon="7.929099"><ele>382.0</ele><time>2026-05-06T13:11:07.88Z</time></trkpt><trkpt lat="44.7979349" lon="7.9291864"><ele>382.0</ele><time>2026-05-06T13:11:08.881Z</time></trkpt><trkpt lat="44.7977975" lon="7.9292558"><ele>380.75</ele><time>2026-05-06T13:11:09.881Z</time></trkpt><trkpt lat="44.7976687" lon="7.9293358"><ele>379.5</ele><time>2026-05-06T13:11:10.88Z</time></trkpt><trkpt lat="44.7975579" lon="7.9294394"><ele>378.25</ele><time>2026-05-06T13:11:11.881Z</time></trkpt><trkpt lat="44.7974624" lon="7.9295767"><ele>377.0</ele><time>2026-05-06T13:11:12.881Z</time></trkpt><trkpt lat="44.7973863" lon="7.9297484"><ele>377.0</ele><time>2026-05-06T13:11:13.881Z</time></trkpt><trkpt lat="44.7973149" lon="7.9299169"><ele>377.0</ele><time>2026-05-06T13:11:14.881Z</time></trkpt><trkpt lat="44.7972368" lon="7.9300397"><ele>377.0</ele><time>2026-05-06T13:11:15.881Z</time></trkpt><trkpt lat="44.797141" lon="7.9301354"><ele>377.0</ele><time>2026-05-06T13:11:16.881Z</time></trkpt><trkpt lat="44.7970231" lon="7.9302104"><ele>376.5</ele><time>2026-05-06T13:11:17.88Z</time></trkpt><trkpt lat="44.7968964" lon="7.9302772"><ele>376.0</ele><time>2026-05-06T13:11:18.881Z</time></trkpt><trkpt lat="44.796762" lon="7.9303358"><ele>375.5</ele><time>2026-05-06T13:11:19.881Z</time></trkpt><trkpt lat="44.7966263" lon="7.9303883"><ele>375.0</ele><time>2026-05-06T13:11:20.881Z</time></trkpt><trkpt lat="44.796485" lon="7.930427"><ele>379.33333333333337</ele><time>2026-05-06T13:11:21.881Z</time></trkpt><trkpt lat="44.7963372" lon="7.9304433"><ele>383.6666666666667</ele><time>2026-05-06T13:11:22.881Z</time></trkpt><trkpt lat="44.7961904" lon="7.9304255"><ele>388.0</ele><time>2026-05-06T13:11:23.88Z</time></trkpt><trkpt lat="44.796025" lon="7.9303757"><ele>388.33333333333337</ele><time>2026-05-06T13:11:24.881Z</time></trkpt><trkpt lat="44.7958602" lon="7.9303046"><ele>388.66666666666663</ele><time>2026-05-06T13:11:25.881Z</time></trkpt><trkpt lat="44.7957121" lon="7.9302372"><ele>389.0</ele><time>2026-05-06T13:11:26.881Z</time></trkpt><trkpt lat="44.7955711" lon="7.9301691"><ele>389.0</ele><time>2026-05-06T13:11:27.88Z</time></trkpt><trkpt lat="44.7954329" lon="7.9300879"><ele>389.0</ele><time>2026-05-06T13:11:28.881Z</time></trkpt><trkpt lat="44.7953147" lon="7.9299987"><ele>389.0</ele><time>2026-05-06T13:11:29.881Z</time></trkpt><trkpt lat="44.7952125" lon="7.929938"><ele>389.0</ele><time>2026-05-06T13:11:30.881Z</time></trkpt><trkpt lat="44.7951082" lon="7.9299018"><ele>386.75</ele><time>2026-05-06T13:11:31.881Z</time></trkpt><trkpt lat="44.7950153" lon="7.9298864"><ele>384.5</ele><time>2026-05-06T13:11:32.881Z</time></trkpt><trkpt lat="44.7949069" lon="7.9299202"><ele>382.25</ele><time>2026-05-06T13:11:33.88Z</time></trkpt><trkpt lat="44.794807" lon="7.9299891"><ele>380.0</ele><time>2026-05-06T13:11:34.881Z</time></trkpt><trkpt lat="44.79475" lon="7.9301612"><ele>380.0</ele><time>2026-05-06T13:11:35.881Z</time></trkpt><trkpt lat="44.7946872" lon="7.9303269"><ele>380.0</ele><time>2026-05-06T13:11:36.881Z</time></trkpt><trkpt lat="44.7946419" lon="7.9304884"><ele>380.0</ele><time>2026-05-06T13:11:37.881Z</time></trkpt><trkpt lat="44.7946069" lon="7.930654"><ele>380.0</ele><time>2026-05-06T13:11:38.881Z</time></trkpt><trkpt lat="44.7945918" lon="7.9308062"><ele>379.4</ele><time>2026-05-06T13:11:39.881Z</time></trkpt><trkpt lat="44.7945987" lon="7.9309459"><ele>378.8</ele><time>2026-05-06T13:11:40.881Z</time></trkpt><trkpt lat="44.7946229" lon="7.9310889"><ele>378.20000000000005</ele><time>2026-05-06T13:11:41.88Z</time></trkpt><trkpt lat="44.794688" lon="7.9312264"><ele>377.6</ele><time>2026-05-06T13:11:42.881Z</time></trkpt><trkpt lat="44.7947081" lon="7.9313611"><ele>377.0</ele><time>2026-05-06T13:11:43.881Z</time></trkpt><trkpt lat="44.7947003" lon="7.9314951"><ele>377.0</ele><time>2026-05-06T13:11:44.881Z</time></trkpt><trkpt lat="44.7946462" lon="7.9316299"><ele>377.0</ele><time>2026-05-06T13:11:45.881Z</time></trkpt><trkpt lat="44.7945628" lon="7.9317579"><ele>377.0</ele><time>2026-05-06T13:11:46.88Z</time></trkpt><trkpt lat="44.7944756" lon="7.9318637"><ele>377.0</ele><time>2026-05-06T13:11:47.881Z</time></trkpt><trkpt lat="44.7943816" lon="7.9319627"><ele>374.6</ele><time>2026-05-06T13:11:48.881Z</time></trkpt><trkpt lat="44.7942782" lon="7.9320206"><ele>372.20000000000005</ele><time>2026-05-06T13:11:49.881Z</time></trkpt><trkpt lat="44.794184" lon="7.9320083"><ele>369.8</ele><time>2026-05-06T13:11:50.881Z</time></trkpt><trkpt lat="44.7940888" lon="7.9319357"><ele>367.4</ele><time>2026-05-06T13:11:51.881Z</time></trkpt><trkpt lat="44.7939822" lon="7.931831"><ele>365.0</ele><time>2026-05-06T13:11:52.881Z</time></trkpt><trkpt lat="44.7938765" lon="7.9316959"><ele>363.25</ele><time>2026-05-06T13:11:53.881Z</time></trkpt><trkpt lat="44.7937672" lon="7.9315494"><ele>361.5</ele><time>2026-05-06T13:11:54.881Z</time></trkpt><trkpt lat="44.7936538" lon="7.9314146"><ele>359.75</ele><time>2026-05-06T13:11:55.88Z</time></trkpt><trkpt lat="44.7935666" lon="7.9312783"><ele>358.0</ele><time>2026-05-06T13:11:56.881Z</time></trkpt><trkpt lat="44.7934769" lon="7.9311436"><ele>357.0</ele><time>2026-05-06T13:11:57.881Z</time></trkpt><trkpt lat="44.7933978" lon="7.9310262"><ele>356.0</ele><time>2026-05-06T13:11:58.881Z</time></trkpt><trkpt lat="44.793322" lon="7.9309111"><ele>355.0</ele><time>2026-05-06T13:11:59.881Z</time></trkpt><trkpt lat="44.7932704" lon="7.9308367"><ele>354.0</ele><time>2026-05-06T13:12:00.881Z</time></trkpt><trkpt lat="44.7932218" lon="7.9307426"><ele>353.0</ele><time>2026-05-06T13:12:02.881Z</time></trkpt><trkpt lat="44.7931587" lon="7.9307027"><ele>353.0</ele><time>2026-05-06T13:12:05.881Z</time></trkpt><trkpt lat="44.7930764" lon="7.9307728"><ele>353.0</ele><time>2026-05-06T13:12:07.881Z</time></trkpt><trkpt lat="44.7930398" lon="7.9308552"><ele>353.0</ele><time>2026-05-06T13:12:08.88Z</time></trkpt><trkpt lat="44.7929912" lon="7.9309523"><ele>353.0</ele><time>2026-05-06T13:12:09.881Z</time></trkpt><trkpt lat="44.7929379" lon="7.9310742"><ele>353.0</ele><time>2026-05-06T13:12:10.881Z</time></trkpt><trkpt lat="44.7928774" lon="7.9312183"><ele>353.0</ele><time>2026-05-06T13:12:11.881Z</time></trkpt><trkpt lat="44.7928161" lon="7.931373"><ele>353.0</ele><time>2026-05-06T13:12:12.881Z</time></trkpt><trkpt lat="44.7927501" lon="7.9315439"><ele>353.0</ele><time>2026-05-06T13:12:13.881Z</time></trkpt><trkpt lat="44.7926979" lon="7.9317351"><ele>353.0</ele><time>2026-05-06T13:12:14.881Z</time></trkpt><trkpt lat="44.7926276" lon="7.9319225"><ele>353.0</ele><time>2026-05-06T13:12:15.881Z</time></trkpt><trkpt lat="44.7925619" lon="7.9321018"><ele>353.0</ele><time>2026-05-06T13:12:16.881Z</time></trkpt><trkpt lat="44.7924916" lon="7.9322861"><ele>353.0</ele><time>2026-05-06T13:12:17.881Z</time></trkpt><trkpt lat="44.7924216" lon="7.9324734"><ele>353.0</ele><time>2026-05-06T13:12:18.881Z</time></trkpt><trkpt lat="44.7923483" lon="7.9326529"><ele>355.0</ele><time>2026-05-06T13:12:19.881Z</time></trkpt><trkpt lat="44.7922815" lon="7.9328392"><ele>357.0</ele><time>2026-05-06T13:12:20.88Z</time></trkpt><trkpt lat="44.7922085" lon="7.933032"><ele>359.0</ele><time>2026-05-06T13:12:21.881Z</time></trkpt><trkpt lat="44.7921286" lon="7.9332324"><ele>360.6666666666667</ele><time>2026-05-06T13:12:22.881Z</time></trkpt><trkpt lat="44.792062" lon="7.9334474"><ele>362.3333333333333</ele><time>2026-05-06T13:12:23.881Z</time></trkpt><trkpt lat="44.7919894" lon="7.9336865"><ele>364.0</ele><time>2026-05-06T13:12:24.881Z</time></trkpt><trkpt lat="44.7919136" lon="7.9339232"><ele>364.0</ele><time>2026-05-06T13:12:25.881Z</time></trkpt><trkpt lat="44.7918479" lon="7.934164"><ele>364.0</ele><time>2026-05-06T13:12:26.881Z</time></trkpt><trkpt lat="44.7917713" lon="7.9344035"><ele>364.0</ele><time>2026-05-06T13:12:27.88Z</time></trkpt><trkpt lat="44.7916983" lon="7.934656"><ele>364.66666666666663</ele><time>2026-05-06T13:12:28.881Z</time></trkpt><trkpt lat="44.7916286" lon="7.934898"><ele>365.3333333333333</ele><time>2026-05-06T13:12:29.881Z</time></trkpt><trkpt lat="44.7915553" lon="7.935146"><ele>366.0</ele><time>2026-05-06T13:12:30.88Z</time></trkpt><trkpt lat="44.7914834" lon="7.9353816"><ele>366.0</ele><time>2026-05-06T13:12:31.881Z</time></trkpt><trkpt lat="44.7914118" lon="7.9356218"><ele>366.0</ele><time>2026-05-06T13:12:32.881Z</time></trkpt><trkpt lat="44.7913357" lon="7.9358572"><ele>366.0</ele><time>2026-05-06T13:12:33.88Z</time></trkpt><trkpt lat="44.7912665" lon="7.9360888"><ele>366.0</ele><time>2026-05-06T13:12:34.881Z</time></trkpt><trkpt lat="44.7911942" lon="7.9363107"><ele>366.0</ele><time>2026-05-06T13:12:35.881Z</time></trkpt><trkpt lat="44.7911322" lon="7.9365293"><ele>366.0</ele><time>2026-05-06T13:12:36.881Z</time></trkpt><trkpt lat="44.7910795" lon="7.9367292"><ele>366.0</ele><time>2026-05-06T13:12:37.881Z</time></trkpt><trkpt lat="44.7910299" lon="7.936917"><ele>366.0</ele><time>2026-05-06T13:12:38.88Z</time></trkpt><trkpt lat="44.7909722" lon="7.9370965"><ele>366.0</ele><time>2026-05-06T13:12:39.881Z</time></trkpt><trkpt lat="44.7909026" lon="7.9372726"><ele>366.0</ele><time>2026-05-06T13:12:40.881Z</time></trkpt><trkpt lat="44.7908022" lon="7.9374232"><ele>358.6666666666667</ele><time>2026-05-06T13:12:41.88Z</time></trkpt><trkpt lat="44.7906902" lon="7.9375703"><ele>351.33333333333337</ele><time>2026-05-06T13:12:42.881Z</time></trkpt><trkpt lat="44.7905771" lon="7.9377135"><ele>344.0</ele><time>2026-05-06T13:12:43.881Z</time></trkpt><trkpt lat="44.7904654" lon="7.9378487"><ele>344.0</ele><time>2026-05-06T13:12:44.881Z</time></trkpt><trkpt lat="44.7903728" lon="7.9379916"><ele>344.0</ele><time>2026-05-06T13:12:45.881Z</time></trkpt><trkpt lat="44.7902949" lon="7.9381583"><ele>344.0</ele><time>2026-05-06T13:12:46.881Z</time></trkpt><trkpt lat="44.7902401" lon="7.9383304"><ele>344.0</ele><time>2026-05-06T13:12:47.881Z</time></trkpt><trkpt lat="44.790196" lon="7.938495"><ele>343.0</ele><time>2026-05-06T13:12:48.881Z</time></trkpt><trkpt lat="44.7901348" lon="7.9386446"><ele>342.0</ele><time>2026-05-06T13:12:49.88Z</time></trkpt><trkpt lat="44.7900615" lon="7.9387796"><ele>341.0</ele><time>2026-05-06T13:12:50.881Z</time></trkpt><trkpt lat="44.7899642" lon="7.9388911"><ele>340.0</ele><time>2026-05-06T13:12:51.881Z</time></trkpt><trkpt lat="44.7898663" lon="7.9389941"><ele>340.0</ele><time>2026-05-06T13:12:52.881Z</time></trkpt><trkpt lat="44.7897731" lon="7.9390968"><ele>340.0</ele><time>2026-05-06T13:12:53.88Z</time></trkpt><trkpt lat="44.7896837" lon="7.939197"><ele>340.0</ele><time>2026-05-06T13:12:54.881Z</time></trkpt><trkpt lat="44.789586" lon="7.9392813"><ele>340.0</ele><time>2026-05-06T13:12:55.881Z</time></trkpt><trkpt lat="44.7894902" lon="7.9393528"><ele>339.8333333333333</ele><time>2026-05-06T13:12:56.881Z</time></trkpt><trkpt lat="44.7893935" lon="7.9394013"><ele>339.66666666666663</ele><time>2026-05-06T13:12:57.881Z</time></trkpt><trkpt lat="44.7893079" lon="7.9394317"><ele>339.5</ele><time>2026-05-06T13:12:58.881Z</time></trkpt><trkpt lat="44.7892279" lon="7.9394559"><ele>339.3333333333333</ele><time>2026-05-06T13:12:59.881Z</time></trkpt><trkpt lat="44.7891538" lon="7.939498"><ele>339.1666666666667</ele><time>2026-05-06T13:13:00.881Z</time></trkpt><trkpt lat="44.7890887" lon="7.9395629"><ele>339.0</ele><time>2026-05-06T13:13:01.881Z</time></trkpt><trkpt lat="44.7890302" lon="7.9396364"><ele>340.79999999999995</ele><time>2026-05-06T13:13:02.881Z</time></trkpt><trkpt lat="44.7889717" lon="7.9397336"><ele>342.59999999999997</ele><time>2026-05-06T13:13:03.881Z</time></trkpt><trkpt lat="44.7889266" lon="7.9398335"><ele>344.4</ele><time>2026-05-06T13:13:04.881Z</time></trkpt><trkpt lat="44.7888756" lon="7.9399415"><ele>346.2</ele><time>2026-05-06T13:13:05.881Z</time></trkpt><trkpt lat="44.7888667" lon="7.9400887"><ele>348.0</ele><time>2026-05-06T13:13:06.881Z</time></trkpt><trkpt lat="44.7888191" lon="7.940242"><ele>349.4</ele><time>2026-05-06T13:13:07.881Z</time></trkpt><trkpt lat="44.7887798" lon="7.9403938"><ele>350.79999999999995</ele><time>2026-05-06T13:13:08.881Z</time></trkpt><trkpt lat="44.7887327" lon="7.9405398"><ele>352.2</ele><time>2026-05-06T13:13:09.881Z</time></trkpt><trkpt lat="44.7886863" lon="7.9406769"><ele>353.6</ele><time>2026-05-06T13:13:10.881Z</time></trkpt><trkpt lat="44.788643" lon="7.9408111"><ele>355.0</ele><time>2026-05-06T13:13:11.881Z</time></trkpt><trkpt lat="44.7886147" lon="7.9409809"><ele>352.0</ele><time>2026-05-06T13:13:12.881Z</time></trkpt><trkpt lat="44.7886055" lon="7.9411086"><ele>349.0</ele><time>2026-05-06T13:13:13.88Z</time></trkpt><trkpt lat="44.7885914" lon="7.9412271"><ele>346.0</ele><time>2026-05-06T13:13:14.881Z</time></trkpt><trkpt lat="44.7885595" lon="7.9413533"><ele>343.0</ele><time>2026-05-06T13:13:15.881Z</time></trkpt><trkpt lat="44.7885193" lon="7.9414847"><ele>340.0</ele><time>2026-05-06T13:13:16.881Z</time></trkpt><trkpt lat="44.7884913" lon="7.9416031"><ele>334.6</ele><time>2026-05-06T13:13:17.88Z</time></trkpt><trkpt lat="44.7884473" lon="7.9417253"><ele>329.2</ele><time>2026-05-06T13:13:18.881Z</time></trkpt><trkpt lat="44.7883482" lon="7.9418522"><ele>323.8</ele><time>2026-05-06T13:13:19.881Z</time></trkpt><trkpt lat="44.7882647" lon="7.9419461"><ele>318.4</ele><time>2026-05-06T13:13:20.88Z</time></trkpt><trkpt lat="44.7881737" lon="7.9420356"><ele>313.0</ele><time>2026-05-06T13:13:21.881Z</time></trkpt><trkpt lat="44.788078" lon="7.9420828"><ele>313.0</ele><time>2026-05-06T13:13:22.881Z</time></trkpt><trkpt lat="44.7879667" lon="7.9421658"><ele>313.0</ele><time>2026-05-06T13:13:23.88Z</time></trkpt><trkpt lat="44.7878542" lon="7.9422411"><ele>313.0</ele><time>2026-05-06T13:13:24.881Z</time></trkpt><trkpt lat="44.7877542" lon="7.9423146"><ele>313.0</ele><time>2026-05-06T13:13:25.881Z</time></trkpt><trkpt lat="44.7876556" lon="7.9423838"><ele>313.8</ele><time>2026-05-06T13:13:26.88Z</time></trkpt><trkpt lat="44.7875604" lon="7.9424433"><ele>314.6</ele><time>2026-05-06T13:13:27.88Z</time></trkpt><trkpt lat="44.7874561" lon="7.9425008"><ele>315.4</ele><time>2026-05-06T13:13:28.881Z</time></trkpt><trkpt lat="44.7873513" lon="7.9425492"><ele>316.2</ele><time>2026-05-06T13:13:29.881Z</time></trkpt><trkpt lat="44.7872625" lon="7.9426116"><ele>317.0</ele><time>2026-05-06T13:13:30.88Z</time></trkpt><trkpt lat="44.7871597" lon="7.9426881"><ele>314.0</ele><time>2026-05-06T13:13:31.881Z</time></trkpt><trkpt lat="44.7870631" lon="7.9427783"><ele>311.0</ele><time>2026-05-06T13:13:32.881Z</time></trkpt><trkpt lat="44.786971" lon="7.942868"><ele>308.0</ele><time>2026-05-06T13:13:33.881Z</time></trkpt><trkpt lat="44.7868813" lon="7.942973"><ele>305.0</ele><time>2026-05-06T13:13:34.881Z</time></trkpt><trkpt lat="44.7867911" lon="7.9430876"><ele>305.0</ele><time>2026-05-06T13:13:35.881Z</time></trkpt><trkpt lat="44.7867097" lon="7.9431904"><ele>305.0</ele><time>2026-05-06T13:13:36.881Z</time></trkpt><trkpt lat="44.7866199" lon="7.943294"><ele>305.0</ele><time>2026-05-06T13:13:37.881Z</time></trkpt><trkpt lat="44.7865166" lon="7.9433942"><ele>305.0</ele><time>2026-05-06T13:13:38.88Z</time></trkpt><trkpt lat="44.7864045" lon="7.9434819"><ele>305.0</ele><time>2026-05-06T13:13:39.881Z</time></trkpt><trkpt lat="44.7862883" lon="7.9435768"><ele>305.0</ele><time>2026-05-06T13:13:40.881Z</time></trkpt><trkpt lat="44.7861824" lon="7.943694"><ele>305.0</ele><time>2026-05-06T13:13:41.881Z</time></trkpt><trkpt lat="44.7860843" lon="7.9438042"><ele>305.0</ele><time>2026-05-06T13:13:42.88Z</time></trkpt><trkpt lat="44.7859753" lon="7.9439467"><ele>305.0</ele><time>2026-05-06T13:13:43.88Z</time></trkpt><trkpt lat="44.7858746" lon="7.9440822"><ele>305.0</ele><time>2026-05-06T13:13:44.881Z</time></trkpt><trkpt lat="44.7857629" lon="7.9442136"><ele>305.0</ele><time>2026-05-06T13:13:45.881Z</time></trkpt><trkpt lat="44.7856562" lon="7.9443512"><ele>305.0</ele><time>2026-05-06T13:13:46.881Z</time></trkpt><trkpt lat="44.7855472" lon="7.9444783"><ele>305.75</ele><time>2026-05-06T13:13:47.88Z</time></trkpt><trkpt lat="44.7854399" lon="7.9446161"><ele>306.5</ele><time>2026-05-06T13:13:48.881Z</time></trkpt><trkpt lat="44.785332" lon="7.9447411"><ele>307.25</ele><time>2026-05-06T13:13:49.881Z</time></trkpt><trkpt lat="44.7852276" lon="7.944869"><ele>308.0</ele><time>2026-05-06T13:13:50.88Z</time></trkpt><trkpt lat="44.785126" lon="7.9449958"><ele>310.75</ele><time>2026-05-06T13:13:51.881Z</time></trkpt><trkpt lat="44.7850197" lon="7.9451167"><ele>313.5</ele><time>2026-05-06T13:13:52.881Z</time></trkpt><trkpt lat="44.7849054" lon="7.9452243"><ele>316.25</ele><time>2026-05-06T13:13:53.881Z</time></trkpt><trkpt lat="44.7847706" lon="7.945315"><ele>319.0</ele><time>2026-05-06T13:13:54.881Z</time></trkpt><trkpt lat="44.7846288" lon="7.9453973"><ele>319.0</ele><time>2026-05-06T13:13:55.88Z</time></trkpt><trkpt lat="44.7844772" lon="7.9454831"><ele>319.0</ele><time>2026-05-06T13:13:56.881Z</time></trkpt><trkpt lat="44.7843229" lon="7.9455615"><ele>319.0</ele><time>2026-05-06T13:13:57.881Z</time></trkpt><trkpt lat="44.7841663" lon="7.9456379"><ele>316.0</ele><time>2026-05-06T13:13:58.88Z</time></trkpt><trkpt lat="44.7840135" lon="7.9457149"><ele>313.0</ele><time>2026-05-06T13:13:59.881Z</time></trkpt><trkpt lat="44.783855" lon="7.9457938"><ele>310.0</ele><time>2026-05-06T13:14:00.881Z</time></trkpt><trkpt lat="44.7837011" lon="7.945862"><ele>309.0</ele><time>2026-05-06T13:14:01.881Z</time></trkpt><trkpt lat="44.7835525" lon="7.9459347"><ele>308.0</ele><time>2026-05-06T13:14:02.881Z</time></trkpt><trkpt lat="44.7834272" lon="7.9460166"><ele>307.0</ele><time>2026-05-06T13:14:03.881Z</time></trkpt><trkpt lat="44.7833154" lon="7.9460985"><ele>306.0</ele><time>2026-05-06T13:14:04.88Z</time></trkpt><trkpt lat="44.7832084" lon="7.9461885"><ele>306.0</ele><time>2026-05-06T13:14:05.881Z</time></trkpt><trkpt lat="44.7831173" lon="7.9462744"><ele>306.0</ele><time>2026-05-06T13:14:06.881Z</time></trkpt><trkpt lat="44.783042" lon="7.9463555"><ele>306.0</ele><time>2026-05-06T13:14:07.881Z</time></trkpt><trkpt lat="44.7829759" lon="7.9464277"><ele>306.0</ele><time>2026-05-06T13:14:08.881Z</time></trkpt><trkpt lat="44.7829163" lon="7.9464739"><ele>306.0</ele><time>2026-05-06T13:14:09.881Z</time></trkpt><trkpt lat="44.7828529" lon="7.9464873"><ele>306.0</ele><time>2026-05-06T13:14:10.88Z</time></trkpt><trkpt lat="44.782768" lon="7.9463687"><ele>306.0</ele><time>2026-05-06T13:14:12.881Z</time></trkpt><trkpt lat="44.7827755" lon="7.9462671"><ele>306.0</ele><time>2026-05-06T13:14:13.88Z</time></trkpt><trkpt lat="44.7827972" lon="7.94613"><ele>306.0</ele><time>2026-05-06T13:14:14.881Z</time></trkpt><trkpt lat="44.782814" lon="7.9459742"><ele>306.0</ele><time>2026-05-06T13:14:15.881Z</time></trkpt><trkpt lat="44.7828034" lon="7.9458371"><ele>306.0</ele><time>2026-05-06T13:14:16.88Z</time></trkpt><trkpt lat="44.7827581" lon="7.9456988"><ele>304.0</ele><time>2026-05-06T13:14:17.88Z</time></trkpt><trkpt lat="44.7826973" lon="7.9455587"><ele>302.0</ele><time>2026-05-06T13:14:18.881Z</time></trkpt><trkpt lat="44.7826211" lon="7.9454358"><ele>300.0</ele><time>2026-05-06T13:14:19.88Z</time></trkpt><trkpt lat="44.7825456" lon="7.9453261"><ele>298.0</ele><time>2026-05-06T13:14:20.881Z</time></trkpt><trkpt lat="44.7824919" lon="7.9452333"><ele>296.0</ele><time>2026-05-06T13:14:21.881Z</time></trkpt><trkpt lat="44.7824379" lon="7.9451588"><ele>293.0</ele><time>2026-05-06T13:14:22.881Z</time></trkpt><trkpt lat="44.7823746" lon="7.9451161"><ele>290.0</ele><time>2026-05-06T13:14:23.881Z</time></trkpt><trkpt lat="44.7822717" lon="7.9451497"><ele>287.0</ele><time>2026-05-06T13:14:25.881Z</time></trkpt><trkpt lat="44.7822663" lon="7.9453138"><ele>284.0</ele><time>2026-05-06T13:14:27.88Z</time></trkpt><trkpt lat="44.7823176" lon="7.9454112"><ele>281.0</ele><time>2026-05-06T13:14:28.881Z</time></trkpt><trkpt lat="44.7823852" lon="7.9455361"><ele>281.0</ele><time>2026-05-06T13:14:29.881Z</time></trkpt><trkpt lat="44.7824432" lon="7.9456774"><ele>281.0</ele><time>2026-05-06T13:14:30.881Z</time></trkpt><trkpt lat="44.7824747" lon="7.9458551"><ele>281.0</ele><time>2026-05-06T13:14:31.881Z</time></trkpt><trkpt lat="44.7824615" lon="7.9460546"><ele>281.0</ele><time>2026-05-06T13:14:32.881Z</time></trkpt><trkpt lat="44.7824249" lon="7.946263"><ele>281.6666666666667</ele><time>2026-05-06T13:14:33.881Z</time></trkpt><trkpt lat="44.7823698" lon="7.9464793"><ele>282.3333333333333</ele><time>2026-05-06T13:14:34.881Z</time></trkpt><trkpt lat="44.7823077" lon="7.946675"><ele>283.0</ele><time>2026-05-06T13:14:35.881Z</time></trkpt><trkpt lat="44.7822267" lon="7.9468513"><ele>283.5</ele><time>2026-05-06T13:14:36.881Z</time></trkpt><trkpt lat="44.7821281" lon="7.9470244"><ele>284.0</ele><time>2026-05-06T13:14:37.881Z</time></trkpt><trkpt lat="44.7820345" lon="7.9471926"><ele>284.5</ele><time>2026-05-06T13:14:38.88Z</time></trkpt><trkpt lat="44.7819485" lon="7.9473424"><ele>285.0</ele><time>2026-05-06T13:14:39.88Z</time></trkpt><trkpt lat="44.7818723" lon="7.9474684"><ele>280.0</ele><time>2026-05-06T13:14:40.881Z</time></trkpt><trkpt lat="44.7818067" lon="7.9475815"><ele>275.0</ele><time>2026-05-06T13:14:41.881Z</time></trkpt><trkpt lat="44.7817471" lon="7.9476833"><ele>270.0</ele><time>2026-05-06T13:14:42.881Z</time></trkpt><trkpt lat="44.7816962" lon="7.9477635"><ele>265.0</ele><time>2026-05-06T13:14:43.88Z</time></trkpt><trkpt lat="44.7816363" lon="7.9478024"><ele>260.0</ele><time>2026-05-06T13:14:44.881Z</time></trkpt><trkpt lat="44.781522" lon="7.9477489"><ele>260.0</ele><time>2026-05-06T13:14:46.88Z</time></trkpt><trkpt lat="44.7815047" lon="7.9476571"><ele>260.0</ele><time>2026-05-06T13:14:47.881Z</time></trkpt><trkpt lat="44.7815309" lon="7.94756"><ele>260.0</ele><time>2026-05-06T13:14:48.881Z</time></trkpt><trkpt lat="44.7815894" lon="7.9474653"><ele>260.0</ele><time>2026-05-06T13:14:49.881Z</time></trkpt><trkpt lat="44.7816782" lon="7.9473718"><ele>260.0</ele><time>2026-05-06T13:14:50.881Z</time></trkpt><trkpt lat="44.7817827" lon="7.9472666"><ele>264.6</ele><time>2026-05-06T13:14:51.881Z</time></trkpt><trkpt lat="44.781867" lon="7.9471716"><ele>269.2</ele><time>2026-05-06T13:14:52.881Z</time></trkpt><trkpt lat="44.7819252" lon="7.9470556"><ele>273.8</ele><time>2026-05-06T13:14:53.881Z</time></trkpt><trkpt lat="44.7819658" lon="7.9469327"><ele>278.4</ele><time>2026-05-06T13:14:54.881Z</time></trkpt><trkpt lat="44.7819878" lon="7.946809"><ele>283.0</ele><time>2026-05-06T13:14:55.881Z</time></trkpt><trkpt lat="44.7819968" lon="7.9466707"><ele>283.0</ele><time>2026-05-06T13:14:56.881Z</time></trkpt><trkpt lat="44.7820094" lon="7.9465393"><ele>283.0</ele><time>2026-05-06T13:14:57.881Z</time></trkpt><trkpt lat="44.7820138" lon="7.9464252"><ele>283.0</ele><time>2026-05-06T13:14:58.881Z</time></trkpt><trkpt lat="44.7819974" lon="7.9462576"><ele>283.0</ele><time>2026-05-06T13:15:00.881Z</time></trkpt><trkpt lat="44.7819676" lon="7.9461789"><ele>283.0</ele><time>2026-05-06T13:15:01.881Z</time></trkpt><trkpt lat="44.7818702" lon="7.9461607"><ele>279.8333333333333</ele><time>2026-05-06T13:15:03.881Z</time></trkpt><trkpt lat="44.7818033" lon="7.9462989"><ele>276.66666666666663</ele><time>2026-05-06T13:15:05.881Z</time></trkpt><trkpt lat="44.781805" lon="7.9464106"><ele>273.5</ele><time>2026-05-06T13:15:06.881Z</time></trkpt><trkpt lat="44.7818115" lon="7.9465326"><ele>270.3333333333333</ele><time>2026-05-06T13:15:07.881Z</time></trkpt><trkpt lat="44.781806" lon="7.946639"><ele>267.1666666666667</ele><time>2026-05-06T13:15:08.881Z</time></trkpt><trkpt lat="44.781776" lon="7.9467394"><ele>264.0</ele><time>2026-05-06T13:15:09.88Z</time></trkpt><trkpt lat="44.7817153" lon="7.9468154"><ele>264.0</ele><time>2026-05-06T13:15:10.881Z</time></trkpt><trkpt lat="44.7816299" lon="7.946864"><ele>264.0</ele><time>2026-05-06T13:15:11.881Z</time></trkpt><trkpt lat="44.7815098" lon="7.9468941"><ele>264.0</ele><time>2026-05-06T13:15:12.881Z</time></trkpt><trkpt lat="44.7813673" lon="7.9469157"><ele>264.0</ele><time>2026-05-06T13:15:13.88Z</time></trkpt><trkpt lat="44.7812416" lon="7.9469357"><ele>264.0</ele><time>2026-05-06T13:15:14.881Z</time></trkpt><trkpt lat="44.781126" lon="7.9469449"><ele>264.0</ele><time>2026-05-06T13:15:15.881Z</time></trkpt><trkpt lat="44.7810356" lon="7.9469197"><ele>264.0</ele><time>2026-05-06T13:15:16.881Z</time></trkpt><trkpt lat="44.7809802" lon="7.946846"><ele>264.0</ele><time>2026-05-06T13:15:17.881Z</time></trkpt><trkpt lat="44.7809392" lon="7.9467507"><ele>264.0</ele><time>2026-05-06T13:15:18.881Z</time></trkpt><trkpt lat="44.7810072" lon="7.9466399"><ele>261.5</ele><time>2026-05-06T13:15:19.881Z</time></trkpt><trkpt lat="44.7810877" lon="7.9465234"><ele>259.0</ele><time>2026-05-06T13:15:20.881Z</time></trkpt><trkpt lat="44.7811759" lon="7.9464111"><ele>256.5</ele><time>2026-05-06T13:15:21.881Z</time></trkpt><trkpt lat="44.7812589" lon="7.94631"><ele>254.0</ele><time>2026-05-06T13:15:22.881Z</time></trkpt><trkpt lat="44.7813398" lon="7.9462067"><ele>254.00000000000003</ele><time>2026-05-06T13:15:23.881Z</time></trkpt><trkpt lat="44.7813658" lon="7.9461236"><ele>254.0</ele><time>2026-05-06T13:15:24.881Z</time></trkpt><trkpt lat="44.7813658" lon="7.9460199"><ele>254.0</ele><time>2026-05-06T13:15:25.881Z</time></trkpt><trkpt lat="44.7813158" lon="7.9459496"><ele>254.0</ele><time>2026-05-06T13:15:26.88Z</time></trkpt><trkpt lat="44.7812387" lon="7.9459344"><ele>254.00000000000003</ele><time>2026-05-06T13:15:27.881Z</time></trkpt><trkpt lat="44.7811491" lon="7.9459823"><ele>254.0</ele><time>2026-05-06T13:15:28.881Z</time></trkpt><trkpt lat="44.7810369" lon="7.9460762"><ele>250.0</ele><time>2026-05-06T13:15:29.881Z</time></trkpt><trkpt lat="44.7809206" lon="7.9461748"><ele>246.0</ele><time>2026-05-06T13:15:30.881Z</time></trkpt><trkpt lat="44.7807797" lon="7.9462836"><ele>242.0</ele><time>2026-05-06T13:15:31.881Z</time></trkpt><trkpt lat="44.7806358" lon="7.9463775"><ele>242.0</ele><time>2026-05-06T13:15:32.881Z</time></trkpt><trkpt lat="44.7804801" lon="7.9464431"><ele>242.0</ele><time>2026-05-06T13:15:33.881Z</time></trkpt><trkpt lat="44.7803128" lon="7.9464552"><ele>242.0</ele><time>2026-05-06T13:15:34.88Z</time></trkpt><trkpt lat="44.7801437" lon="7.9464153"><ele>240.0</ele><time>2026-05-06T13:15:35.881Z</time></trkpt><trkpt lat="44.7799761" lon="7.9463664"><ele>238.0</ele><time>2026-05-06T13:15:36.881Z</time></trkpt><trkpt lat="44.7798039" lon="7.9463181"><ele>236.0</ele><time>2026-05-06T13:15:37.881Z</time></trkpt><trkpt lat="44.7796251" lon="7.9462806"><ele>236.0</ele><time>2026-05-06T13:15:38.88Z</time></trkpt><trkpt lat="44.7794466" lon="7.9462706"><ele>236.0</ele><time>2026-05-06T13:15:39.881Z</time></trkpt><trkpt lat="44.7792662" lon="7.9462926"><ele>236.0</ele><time>2026-05-06T13:15:40.881Z</time></trkpt><trkpt lat="44.7790708" lon="7.9464009"><ele>236.0</ele><time>2026-05-06T13:15:41.88Z</time></trkpt><trkpt lat="44.7788922" lon="7.9465041"><ele>236.0</ele><time>2026-05-06T13:15:42.88Z</time></trkpt><trkpt lat="44.778713" lon="7.9465953"><ele>236.0</ele><time>2026-05-06T13:15:43.881Z</time></trkpt><trkpt lat="44.7785421" lon="7.9466944"><ele>239.66666666666669</ele><time>2026-05-06T13:15:44.881Z</time></trkpt><trkpt lat="44.7783833" lon="7.9467694"><ele>243.33333333333331</ele><time>2026-05-06T13:15:45.881Z</time></trkpt><trkpt lat="44.7782311" lon="7.9468207"><ele>247.0</ele><time>2026-05-06T13:15:46.881Z</time></trkpt><trkpt lat="44.7780801" lon="7.9468429"><ele>247.0</ele><time>2026-05-06T13:15:47.88Z</time></trkpt><trkpt lat="44.7779378" lon="7.9468333"><ele>247.0</ele><time>2026-05-06T13:15:48.881Z</time></trkpt><trkpt lat="44.7778116" lon="7.9468018"><ele>247.0</ele><time>2026-05-06T13:15:49.881Z</time></trkpt><trkpt lat="44.7776978" lon="7.9467579"><ele>247.0</ele><time>2026-05-06T13:15:50.88Z</time></trkpt><trkpt lat="44.7776246" lon="7.946704"><ele>247.99999999999997</ele><time>2026-05-06T13:15:51.881Z</time></trkpt><trkpt lat="44.7775671" lon="7.9466601"><ele>249.0</ele><time>2026-05-06T13:15:52.881Z</time></trkpt><trkpt lat="44.7774778" lon="7.9466274"><ele>250.0</ele><time>2026-05-06T13:15:54.881Z</time></trkpt><trkpt lat="44.7774247" lon="7.9465747"><ele>251.0</ele><time>2026-05-06T13:15:58.881Z</time></trkpt><trkpt lat="44.777359" lon="7.946563"><ele>251.99999999999997</ele><time>2026-05-06T13:16:15.881Z</time></trkpt><trkpt lat="44.7772515" lon="7.9465939"><ele>253.0</ele><time>2026-05-06T13:16:17.881Z</time></trkpt><trkpt lat="44.7771874" lon="7.9466353"><ele>253.0</ele><time>2026-05-06T13:16:18.88Z</time></trkpt><trkpt lat="44.777115" lon="7.9466896"><ele>253.0</ele><time>2026-05-06T13:16:19.881Z</time></trkpt><trkpt lat="44.7770373" lon="7.9467465"><ele>253.0</ele><time>2026-05-06T13:16:20.881Z</time></trkpt><trkpt lat="44.7769492" lon="7.9468047"><ele>253.0</ele><time>2026-05-06T13:16:21.881Z</time></trkpt><trkpt lat="44.7768563" lon="7.946873"><ele>253.0</ele><time>2026-05-06T13:16:22.881Z</time></trkpt><trkpt lat="44.7767625" lon="7.9469645"><ele>252.75</ele><time>2026-05-06T13:16:23.881Z</time></trkpt><trkpt lat="44.7766738" lon="7.9470791"><ele>252.5</ele><time>2026-05-06T13:16:24.88Z</time></trkpt><trkpt lat="44.7765904" lon="7.9472177"><ele>252.25</ele><time>2026-05-06T13:16:25.881Z</time></trkpt><trkpt lat="44.7765162" lon="7.9473698"><ele>252.0</ele><time>2026-05-06T13:16:26.88Z</time></trkpt><trkpt lat="44.7764513" lon="7.9475168"><ele>253.5</ele><time>2026-05-06T13:16:27.881Z</time></trkpt><trkpt lat="44.7763955" lon="7.9476889"><ele>255.0</ele><time>2026-05-06T13:16:28.881Z</time></trkpt><trkpt lat="44.7763572" lon="7.9478922"><ele>256.5</ele><time>2026-05-06T13:16:29.881Z</time></trkpt><trkpt lat="44.7763209" lon="7.9480981"><ele>258.0</ele><time>2026-05-06T13:16:30.88Z</time></trkpt><trkpt lat="44.7762921" lon="7.9483223"><ele>257.0</ele><time>2026-05-06T13:16:31.881Z</time></trkpt><trkpt lat="44.7762636" lon="7.9485431"><ele>256.0</ele><time>2026-05-06T13:16:32.88Z</time></trkpt><trkpt lat="44.776232" lon="7.9487686"><ele>255.0</ele><time>2026-05-06T13:16:33.88Z</time></trkpt><trkpt lat="44.7762111" lon="7.948992"><ele>255.0</ele><time>2026-05-06T13:16:34.881Z</time></trkpt><trkpt lat="44.7761833" lon="7.9492087"><ele>255.0</ele><time>2026-05-06T13:16:35.881Z</time></trkpt><trkpt lat="44.776149" lon="7.9494169"><ele>255.0</ele><time>2026-05-06T13:16:36.881Z</time></trkpt><trkpt lat="44.7761226" lon="7.9496021"><ele>255.0</ele><time>2026-05-06T13:16:37.881Z</time></trkpt><trkpt lat="44.7760968" lon="7.9497997"><ele>254.5</ele><time>2026-05-06T13:16:38.88Z</time></trkpt><trkpt lat="44.7760689" lon="7.9499912"><ele>254.0</ele><time>2026-05-06T13:16:39.881Z</time></trkpt><trkpt lat="44.7760447" lon="7.9501939"><ele>253.5</ele><time>2026-05-06T13:16:40.88Z</time></trkpt><trkpt lat="44.7760186" lon="7.9503922"><ele>253.0</ele><time>2026-05-06T13:16:41.881Z</time></trkpt><trkpt lat="44.7759956" lon="7.9505979"><ele>247.25</ele><time>2026-05-06T13:16:42.881Z</time></trkpt><trkpt lat="44.7759643" lon="7.9507911"><ele>241.5</ele><time>2026-05-06T13:16:43.881Z</time></trkpt><trkpt lat="44.7759452" lon="7.9509795"><ele>235.75</ele><time>2026-05-06T13:16:44.881Z</time></trkpt><trkpt lat="44.775924" lon="7.951151"><ele>230.0</ele><time>2026-05-06T13:16:45.881Z</time></trkpt><trkpt lat="44.7759003" lon="7.9513205"><ele>230.0</ele><time>2026-05-06T13:16:46.881Z</time></trkpt><trkpt lat="44.7758824" lon="7.9514857"><ele>230.0</ele><time>2026-05-06T13:16:47.881Z</time></trkpt><trkpt lat="44.7758719" lon="7.9516338"><ele>230.0</ele><time>2026-05-06T13:16:48.88Z</time></trkpt><trkpt lat="44.77586" lon="7.9517776"><ele>230.0</ele><time>2026-05-06T13:16:49.881Z</time></trkpt><trkpt lat="44.775843" lon="7.9519038"><ele>230.0</ele><time>2026-05-06T13:16:50.881Z</time></trkpt><trkpt lat="44.7758269" lon="7.952002"><ele>229.6</ele><time>2026-05-06T13:16:51.881Z</time></trkpt><trkpt lat="44.7758008" lon="7.9520904"><ele>229.2</ele><time>2026-05-06T13:16:52.881Z</time></trkpt><trkpt lat="44.7756986" lon="7.9522015"><ele>228.8</ele><time>2026-05-06T13:16:54.881Z</time></trkpt><trkpt lat="44.7756222" lon="7.9522078"><ele>228.4</ele><time>2026-05-06T13:16:55.881Z</time></trkpt><trkpt lat="44.7755436" lon="7.9521692"><ele>228.0</ele><time>2026-05-06T13:16:56.881Z</time></trkpt><trkpt lat="44.7754632" lon="7.9520999"><ele>228.0</ele><time>2026-05-06T13:16:57.88Z</time></trkpt><trkpt lat="44.7753598" lon="7.9519961"><ele>228.0</ele><time>2026-05-06T13:16:58.881Z</time></trkpt><trkpt lat="44.7752591" lon="7.9518865"><ele>228.0</ele><time>2026-05-06T13:16:59.881Z</time></trkpt><trkpt lat="44.7751427" lon="7.9517631"><ele>228.0</ele><time>2026-05-06T13:17:00.881Z</time></trkpt><trkpt lat="44.7750285" lon="7.9516446"><ele>226.66666666666669</ele><time>2026-05-06T13:17:01.881Z</time></trkpt><trkpt lat="44.7749056" lon="7.9515242"><ele>225.33333333333334</ele><time>2026-05-06T13:17:02.881Z</time></trkpt><trkpt lat="44.7747803" lon="7.9514032"><ele>224.0</ele><time>2026-05-06T13:17:03.881Z</time></trkpt><trkpt lat="44.7746459" lon="7.9512774"><ele>224.0</ele><time>2026-05-06T13:17:04.881Z</time></trkpt><trkpt lat="44.7745142" lon="7.9511362"><ele>224.0</ele><time>2026-05-06T13:17:05.881Z</time></trkpt><trkpt lat="44.7743833" lon="7.9510022"><ele>224.0</ele><time>2026-05-06T13:17:06.881Z</time></trkpt><trkpt lat="44.774248" lon="7.9508599"><ele>224.33333333333334</ele><time>2026-05-06T13:17:07.881Z</time></trkpt><trkpt lat="44.7741139" lon="7.9507177"><ele>224.66666666666669</ele><time>2026-05-06T13:17:08.881Z</time></trkpt><trkpt lat="44.7739714" lon="7.9505682"><ele>225.0</ele><time>2026-05-06T13:17:09.881Z</time></trkpt><trkpt lat="44.7738271" lon="7.9504249"><ele>225.0</ele><time>2026-05-06T13:17:10.881Z</time></trkpt><trkpt lat="44.7736823" lon="7.9502698"><ele>225.0</ele><time>2026-05-06T13:17:11.881Z</time></trkpt><trkpt lat="44.7735279" lon="7.95012"><ele>225.0</ele><time>2026-05-06T13:17:12.881Z</time></trkpt><trkpt lat="44.773373" lon="7.949964"><ele>225.66666666666669</ele><time>2026-05-06T13:17:13.881Z</time></trkpt><trkpt lat="44.7732189" lon="7.9498031"><ele>226.33333333333334</ele><time>2026-05-06T13:17:14.881Z</time></trkpt><trkpt lat="44.7730628" lon="7.9496458"><ele>227.0</ele><time>2026-05-06T13:17:15.881Z</time></trkpt><trkpt lat="44.7729062" lon="7.9494835"><ele>227.0</ele><time>2026-05-06T13:17:16.881Z</time></trkpt><trkpt lat="44.7727528" lon="7.9493286"><ele>227.0</ele><time>2026-05-06T13:17:17.881Z</time></trkpt><trkpt lat="44.7726005" lon="7.9491622"><ele>227.0</ele><time>2026-05-06T13:17:18.881Z</time></trkpt><trkpt lat="44.7724567" lon="7.949009"><ele>227.0</ele><time>2026-05-06T13:17:19.881Z</time></trkpt><trkpt lat="44.7723065" lon="7.9488457"><ele>227.0</ele><time>2026-05-06T13:17:20.88Z</time></trkpt><trkpt lat="44.7721521" lon="7.9486872"><ele>227.0</ele><time>2026-05-06T13:17:21.881Z</time></trkpt><trkpt lat="44.7719952" lon="7.9485271"><ele>228.33333333333334</ele><time>2026-05-06T13:17:22.881Z</time></trkpt><trkpt lat="44.7718338" lon="7.9483664"><ele>229.66666666666669</ele><time>2026-05-06T13:17:23.88Z</time></trkpt><trkpt lat="44.7716768" lon="7.9482145"><ele>231.0</ele><time>2026-05-06T13:17:24.881Z</time></trkpt><trkpt lat="44.7715085" lon="7.9480914"><ele>231.0</ele><time>2026-05-06T13:17:25.881Z</time></trkpt><trkpt lat="44.7713207" lon="7.9479859"><ele>231.0</ele><time>2026-05-06T13:17:26.881Z</time></trkpt><trkpt lat="44.7711284" lon="7.9479008"><ele>231.0</ele><time>2026-05-06T13:17:27.881Z</time></trkpt><trkpt lat="44.770933" lon="7.9478196"><ele>230.0</ele><time>2026-05-06T13:17:28.881Z</time></trkpt><trkpt lat="44.7707436" lon="7.9477341"><ele>229.0</ele><time>2026-05-06T13:17:29.881Z</time></trkpt><trkpt lat="44.7705634" lon="7.9476531"><ele>228.0</ele><time>2026-05-06T13:17:30.881Z</time></trkpt><trkpt lat="44.7703759" lon="7.9475776"><ele>229.33333333333331</ele><time>2026-05-06T13:17:31.881Z</time></trkpt><trkpt lat="44.7702073" lon="7.9474806"><ele>230.66666666666666</ele><time>2026-05-06T13:17:32.881Z</time></trkpt><trkpt lat="44.770041" lon="7.94737"><ele>232.0</ele><time>2026-05-06T13:17:33.881Z</time></trkpt><trkpt lat="44.769894" lon="7.9472507"><ele>232.0</ele><time>2026-05-06T13:17:34.881Z</time></trkpt><trkpt lat="44.769747" lon="7.9471515"><ele>232.0</ele><time>2026-05-06T13:17:35.88Z</time></trkpt><trkpt lat="44.7696051" lon="7.9470806"><ele>232.0</ele><time>2026-05-06T13:17:36.881Z</time></trkpt><trkpt lat="44.7694492" lon="7.9470479"><ele>232.0</ele><time>2026-05-06T13:17:37.881Z</time></trkpt><trkpt lat="44.7692985" lon="7.9470571"><ele>232.0</ele><time>2026-05-06T13:17:38.881Z</time></trkpt><trkpt lat="44.7691527" lon="7.9470938"><ele>232.0</ele><time>2026-05-06T13:17:39.881Z</time></trkpt><trkpt lat="44.7690134" lon="7.9471514"><ele>232.0</ele><time>2026-05-06T13:17:40.881Z</time></trkpt><trkpt lat="44.7688575" lon="7.9472043"><ele>232.0</ele><time>2026-05-06T13:17:41.88Z</time></trkpt><trkpt lat="44.7687004" lon="7.9472222"><ele>232.0</ele><time>2026-05-06T13:17:42.881Z</time></trkpt><trkpt lat="44.7685334" lon="7.9472014"><ele>232.0</ele><time>2026-05-06T13:17:43.881Z</time></trkpt><trkpt lat="44.7683853" lon="7.9471344"><ele>232.0</ele><time>2026-05-06T13:17:44.88Z</time></trkpt><trkpt lat="44.768251" lon="7.9470287"><ele>232.0</ele><time>2026-05-06T13:17:45.881Z</time></trkpt><trkpt lat="44.7681241" lon="7.9469138"><ele>232.0</ele><time>2026-05-06T13:17:46.881Z</time></trkpt><trkpt lat="44.7679958" lon="7.9467419"><ele>234.33333333333331</ele><time>2026-05-06T13:17:47.881Z</time></trkpt><trkpt lat="44.7678971" lon="7.9465345"><ele>236.66666666666669</ele><time>2026-05-06T13:17:48.881Z</time></trkpt><trkpt lat="44.7678039" lon="7.9463205"><ele>239.0</ele><time>2026-05-06T13:17:49.881Z</time></trkpt><trkpt lat="44.7677092" lon="7.9461118"><ele>238.33333333333334</ele><time>2026-05-06T13:17:50.881Z</time></trkpt><trkpt lat="44.7676216" lon="7.9458917"><ele>237.66666666666669</ele><time>2026-05-06T13:17:51.88Z</time></trkpt><trkpt lat="44.7675263" lon="7.9456667"><ele>237.0</ele><time>2026-05-06T13:17:52.881Z</time></trkpt><trkpt lat="44.7674156" lon="7.9454399"><ele>237.0</ele><time>2026-05-06T13:17:53.881Z</time></trkpt><trkpt lat="44.7673162" lon="7.9452184"><ele>237.0</ele><time>2026-05-06T13:17:54.881Z</time></trkpt><trkpt lat="44.7672221" lon="7.9450126"><ele>237.0</ele><time>2026-05-06T13:17:55.88Z</time></trkpt><trkpt lat="44.7671389" lon="7.9447909"><ele>239.33333333333331</ele><time>2026-05-06T13:17:56.881Z</time></trkpt><trkpt lat="44.7670537" lon="7.9445629"><ele>241.66666666666666</ele><time>2026-05-06T13:17:57.881Z</time></trkpt><trkpt lat="44.7669813" lon="7.9443233"><ele>244.0</ele><time>2026-05-06T13:17:58.881Z</time></trkpt><trkpt lat="44.7669126" lon="7.9440771"><ele>243.0</ele><time>2026-05-06T13:17:59.881Z</time></trkpt><trkpt lat="44.7668503" lon="7.9438024"><ele>242.0</ele><time>2026-05-06T13:18:00.88Z</time></trkpt><trkpt lat="44.7667784" lon="7.9435253"><ele>241.0</ele><time>2026-05-06T13:18:01.881Z</time></trkpt><trkpt lat="44.7667155" lon="7.9432571"><ele>241.0</ele><time>2026-05-06T13:18:02.881Z</time></trkpt><trkpt lat="44.7666661" lon="7.9430086"><ele>241.0</ele><time>2026-05-06T13:18:03.881Z</time></trkpt><trkpt lat="44.7666376" lon="7.9427632"><ele>241.0</ele><time>2026-05-06T13:18:04.881Z</time></trkpt><trkpt lat="44.7666188" lon="7.9425182"><ele>241.33333333333331</ele><time>2026-05-06T13:18:05.881Z</time></trkpt><trkpt lat="44.7666136" lon="7.9422584"><ele>241.66666666666669</ele><time>2026-05-06T13:18:06.88Z</time></trkpt><trkpt lat="44.7666085" lon="7.9420222"><ele>242.0</ele><time>2026-05-06T13:18:07.88Z</time></trkpt><trkpt lat="44.7666047" lon="7.9418144"><ele>241.75</ele><time>2026-05-06T13:18:08.881Z</time></trkpt><trkpt lat="44.7665941" lon="7.9416227"><ele>241.5</ele><time>2026-05-06T13:18:09.88Z</time></trkpt><trkpt lat="44.7665645" lon="7.9414526"><ele>241.25</ele><time>2026-05-06T13:18:10.881Z</time></trkpt><trkpt lat="44.7665021" lon="7.9412697"><ele>241.0</ele><time>2026-05-06T13:18:11.881Z</time></trkpt><trkpt lat="44.7664094" lon="7.9411022"><ele>241.0</ele><time>2026-05-06T13:18:12.881Z</time></trkpt><trkpt lat="44.7662938" lon="7.9409455"><ele>241.0</ele><time>2026-05-06T13:18:13.881Z</time></trkpt><trkpt lat="44.7661642" lon="7.9407938"><ele>241.0</ele><time>2026-05-06T13:18:14.881Z</time></trkpt><trkpt lat="44.7660228" lon="7.9406241"><ele>242.0</ele><time>2026-05-06T13:18:15.881Z</time></trkpt><trkpt lat="44.7658878" lon="7.9404425"><ele>243.0</ele><time>2026-05-06T13:18:16.881Z</time></trkpt><trkpt lat="44.7657371" lon="7.9402648"><ele>244.0</ele><time>2026-05-06T13:18:17.88Z</time></trkpt><trkpt lat="44.7655748" lon="7.9400936"><ele>244.33333333333331</ele><time>2026-05-06T13:18:18.881Z</time></trkpt><trkpt lat="44.7654137" lon="7.9399108"><ele>244.66666666666669</ele><time>2026-05-06T13:18:19.88Z</time></trkpt><trkpt lat="44.7652571" lon="7.9397273"><ele>245.0</ele><time>2026-05-06T13:18:20.881Z</time></trkpt><trkpt lat="44.7650927" lon="7.9395403"><ele>245.0</ele><time>2026-05-06T13:18:21.881Z</time></trkpt><trkpt lat="44.7649326" lon="7.9393453"><ele>245.0</ele><time>2026-05-06T13:18:22.881Z</time></trkpt><trkpt lat="44.7647767" lon="7.9391552"><ele>245.0</ele><time>2026-05-06T13:18:23.881Z</time></trkpt><trkpt lat="44.7646283" lon="7.9389626"><ele>245.66666666666669</ele><time>2026-05-06T13:18:24.881Z</time></trkpt><trkpt lat="44.7644806" lon="7.9387677"><ele>246.33333333333331</ele><time>2026-05-06T13:18:25.881Z</time></trkpt><trkpt lat="44.7643459" lon="7.9385721"><ele>247.0</ele><time>2026-05-06T13:18:26.881Z</time></trkpt><trkpt lat="44.7642093" lon="7.9383847"><ele>248.66666666666666</ele><time>2026-05-06T13:18:27.881Z</time></trkpt><trkpt lat="44.7640875" lon="7.9382162"><ele>250.33333333333331</ele><time>2026-05-06T13:18:28.881Z</time></trkpt><trkpt lat="44.763973" lon="7.938052"><ele>252.0</ele><time>2026-05-06T13:18:29.881Z</time></trkpt><trkpt lat="44.7638709" lon="7.9378997"><ele>252.0</ele><time>2026-05-06T13:18:30.88Z</time></trkpt><trkpt lat="44.7637955" lon="7.9377487"><ele>252.0</ele><time>2026-05-06T13:18:31.88Z</time></trkpt><trkpt lat="44.7637347" lon="7.9375946"><ele>252.0</ele><time>2026-05-06T13:18:32.881Z</time></trkpt><trkpt lat="44.7636896" lon="7.937436"><ele>252.0</ele><time>2026-05-06T13:18:33.881Z</time></trkpt><trkpt lat="44.7636562" lon="7.9372784"><ele>252.0</ele><time>2026-05-06T13:18:34.881Z</time></trkpt><trkpt lat="44.7635893" lon="7.9371371"><ele>252.0</ele><time>2026-05-06T13:18:35.881Z</time></trkpt><trkpt lat="44.7635023" lon="7.9370156"><ele>252.0</ele><time>2026-05-06T13:18:36.881Z</time></trkpt><trkpt lat="44.7633954" lon="7.9369046"><ele>252.0</ele><time>2026-05-06T13:18:37.881Z</time></trkpt><trkpt lat="44.7632787" lon="7.9368072"><ele>252.0</ele><time>2026-05-06T13:18:38.88Z</time></trkpt><trkpt lat="44.7631762" lon="7.9367215"><ele>252.0</ele><time>2026-05-06T13:18:39.881Z</time></trkpt><trkpt lat="44.7630668" lon="7.9366499"><ele>252.0</ele><time>2026-05-06T13:18:40.881Z</time></trkpt><trkpt lat="44.7629576" lon="7.9366255"><ele>252.0</ele><time>2026-05-06T13:18:41.881Z</time></trkpt><trkpt lat="44.7628498" lon="7.9366421"><ele>253.0</ele><time>2026-05-06T13:18:42.881Z</time></trkpt><trkpt lat="44.762749" lon="7.936712"><ele>254.0</ele><time>2026-05-06T13:18:43.881Z</time></trkpt><trkpt lat="44.7626503" lon="7.9367852"><ele>255.0</ele><time>2026-05-06T13:18:44.88Z</time></trkpt><trkpt lat="44.7625582" lon="7.936838"><ele>256.0</ele><time>2026-05-06T13:18:45.881Z</time></trkpt><trkpt lat="44.7624751" lon="7.9368576"><ele>257.0</ele><time>2026-05-06T13:18:46.88Z</time></trkpt><trkpt lat="44.7623939" lon="7.9369037"><ele>257.0</ele><time>2026-05-06T13:18:47.881Z</time></trkpt><trkpt lat="44.7623311" lon="7.9369841"><ele>257.0</ele><time>2026-05-06T13:18:48.881Z</time></trkpt><trkpt lat="44.7622709" lon="7.9370722"><ele>257.0</ele><time>2026-05-06T13:18:49.881Z</time></trkpt><trkpt lat="44.762194" lon="7.9371481"><ele>257.0</ele><time>2026-05-06T13:18:50.881Z</time></trkpt><trkpt lat="44.7621046" lon="7.9372062"><ele>257.0</ele><time>2026-05-06T13:18:51.881Z</time></trkpt><trkpt lat="44.7619882" lon="7.9372313"><ele>258.0</ele><time>2026-05-06T13:18:52.88Z</time></trkpt><trkpt lat="44.7618571" lon="7.9372455"><ele>259.0</ele><time>2026-05-06T13:18:53.881Z</time></trkpt><trkpt lat="44.7617172" lon="7.9372648"><ele>260.0</ele><time>2026-05-06T13:18:54.881Z</time></trkpt><trkpt lat="44.7615862" lon="7.9372779"><ele>261.0</ele><time>2026-05-06T13:18:55.881Z</time></trkpt><trkpt lat="44.7614473" lon="7.9373294"><ele>261.0</ele><time>2026-05-06T13:18:56.881Z</time></trkpt><trkpt lat="44.7613154" lon="7.9374125"><ele>261.0</ele><time>2026-05-06T13:18:57.881Z</time></trkpt><trkpt lat="44.7611845" lon="7.9375239"><ele>261.0</ele><time>2026-05-06T13:18:58.881Z</time></trkpt><trkpt lat="44.7610521" lon="7.9376456"><ele>262.0</ele><time>2026-05-06T13:18:59.881Z</time></trkpt><trkpt lat="44.7609149" lon="7.93777"><ele>263.0</ele><time>2026-05-06T13:19:00.881Z</time></trkpt><trkpt lat="44.7607737" lon="7.9378801"><ele>264.0</ele><time>2026-05-06T13:19:01.881Z</time></trkpt><trkpt lat="44.7606382" lon="7.9379818"><ele>264.0</ele><time>2026-05-06T13:19:02.88Z</time></trkpt><trkpt lat="44.7605009" lon="7.9380742"><ele>264.0</ele><time>2026-05-06T13:19:03.88Z</time></trkpt><trkpt lat="44.7603651" lon="7.9381649"><ele>264.0</ele><time>2026-05-06T13:19:04.881Z</time></trkpt><trkpt lat="44.7602343" lon="7.938251"><ele>264.0</ele><time>2026-05-06T13:19:05.881Z</time></trkpt><trkpt lat="44.7601026" lon="7.938329"><ele>266.0</ele><time>2026-05-06T13:19:06.881Z</time></trkpt><trkpt lat="44.7599623" lon="7.9384027"><ele>268.0</ele><time>2026-05-06T13:19:07.881Z</time></trkpt><trkpt lat="44.7598175" lon="7.9384534"><ele>270.0</ele><time>2026-05-06T13:19:08.881Z</time></trkpt><trkpt lat="44.7596547" lon="7.9384598"><ele>270.0</ele><time>2026-05-06T13:19:09.881Z</time></trkpt><trkpt lat="44.759493" lon="7.9384404"><ele>270.0</ele><time>2026-05-06T13:19:10.881Z</time></trkpt><trkpt lat="44.759333" lon="7.9384148"><ele>270.0</ele><time>2026-05-06T13:19:11.88Z</time></trkpt><trkpt lat="44.759181" lon="7.9384022"><ele>271.0</ele><time>2026-05-06T13:19:12.881Z</time></trkpt><trkpt lat="44.7590331" lon="7.9383836"><ele>272.0</ele><time>2026-05-06T13:19:13.881Z</time></trkpt><trkpt lat="44.7588876" lon="7.938352"><ele>273.0</ele><time>2026-05-06T13:19:14.88Z</time></trkpt><trkpt lat="44.7587483" lon="7.9382939"><ele>274.0</ele><time>2026-05-06T13:19:15.881Z</time></trkpt><trkpt lat="44.758621" lon="7.9382048"><ele>272.66666666666663</ele><time>2026-05-06T13:19:16.881Z</time></trkpt><trkpt lat="44.7584972" lon="7.938078"><ele>271.3333333333333</ele><time>2026-05-06T13:19:17.881Z</time></trkpt><trkpt lat="44.7583784" lon="7.9379151"><ele>270.0</ele><time>2026-05-06T13:19:18.881Z</time></trkpt><trkpt lat="44.7582583" lon="7.9377387"><ele>270.0</ele><time>2026-05-06T13:19:19.881Z</time></trkpt><trkpt lat="44.758143" lon="7.9375668"><ele>270.0</ele><time>2026-05-06T13:19:20.881Z</time></trkpt><trkpt lat="44.75804" lon="7.9373811"><ele>270.0</ele><time>2026-05-06T13:19:21.881Z</time></trkpt><trkpt lat="44.7579177" lon="7.9372095"><ele>268.3333333333333</ele><time>2026-05-06T13:19:22.881Z</time></trkpt><trkpt lat="44.7578058" lon="7.937024"><ele>266.66666666666663</ele><time>2026-05-06T13:19:23.881Z</time></trkpt><trkpt lat="44.7577001" lon="7.9368446"><ele>265.0</ele><time>2026-05-06T13:19:24.881Z</time></trkpt><trkpt lat="44.7576005" lon="7.9366801"><ele>263.3333333333333</ele><time>2026-05-06T13:19:25.881Z</time></trkpt><trkpt lat="44.757491" lon="7.9365137"><ele>261.6666666666667</ele><time>2026-05-06T13:19:26.881Z</time></trkpt><trkpt lat="44.75738" lon="7.9363561"><ele>260.0</ele><time>2026-05-06T13:19:27.881Z</time></trkpt><trkpt lat="44.7572525" lon="7.9362384"><ele>260.0</ele><time>2026-05-06T13:19:28.881Z</time></trkpt><trkpt lat="44.7571178" lon="7.936168"><ele>260.0</ele><time>2026-05-06T13:19:29.881Z</time></trkpt><trkpt lat="44.7569665" lon="7.9361426"><ele>260.0</ele><time>2026-05-06T13:19:30.881Z</time></trkpt><trkpt lat="44.7568095" lon="7.9361381"><ele>260.33333333333337</ele><time>2026-05-06T13:19:31.88Z</time></trkpt><trkpt lat="44.7566322" lon="7.9361462"><ele>260.6666666666667</ele><time>2026-05-06T13:19:32.881Z</time></trkpt><trkpt lat="44.7564582" lon="7.9361272"><ele>261.0</ele><time>2026-05-06T13:19:33.881Z</time></trkpt><trkpt lat="44.7562793" lon="7.9361055"><ele>261.0</ele><time>2026-05-06T13:19:34.881Z</time></trkpt><trkpt lat="44.7561007" lon="7.9360753"><ele>261.0</ele><time>2026-05-06T13:19:35.881Z</time></trkpt><trkpt lat="44.7559261" lon="7.9360423"><ele>261.0</ele><time>2026-05-06T13:19:36.88Z</time></trkpt><trkpt lat="44.7557475" lon="7.9360406"><ele>260.3333333333333</ele><time>2026-05-06T13:19:37.88Z</time></trkpt><trkpt lat="44.7555607" lon="7.9360677"><ele>259.66666666666663</ele><time>2026-05-06T13:19:38.881Z</time></trkpt><trkpt lat="44.7553707" lon="7.9361175"><ele>259.0</ele><time>2026-05-06T13:19:39.881Z</time></trkpt><trkpt lat="44.7551809" lon="7.9361758"><ele>256.66666666666663</ele><time>2026-05-06T13:19:40.88Z</time></trkpt><trkpt lat="44.7549944" lon="7.9362297"><ele>254.33333333333331</ele><time>2026-05-06T13:19:41.881Z</time></trkpt><trkpt lat="44.7548163" lon="7.9362865"><ele>252.0</ele><time>2026-05-06T13:19:42.881Z</time></trkpt><trkpt lat="44.7546304" lon="7.9363488"><ele>252.0</ele><time>2026-05-06T13:19:43.881Z</time></trkpt><trkpt lat="44.7544562" lon="7.9363935"><ele>252.0</ele><time>2026-05-06T13:19:44.881Z</time></trkpt><trkpt lat="44.7542856" lon="7.9364062"><ele>252.0</ele><time>2026-05-06T13:19:45.88Z</time></trkpt><trkpt lat="44.7541112" lon="7.9363991"><ele>252.0</ele><time>2026-05-06T13:19:46.881Z</time></trkpt><trkpt lat="44.7539363" lon="7.9363767"><ele>252.0</ele><time>2026-05-06T13:19:47.88Z</time></trkpt><trkpt lat="44.7537716" lon="7.9363506"><ele>252.0</ele><time>2026-05-06T13:19:48.88Z</time></trkpt><trkpt lat="44.753605" lon="7.9363253"><ele>252.33333333333331</ele><time>2026-05-06T13:19:49.881Z</time></trkpt><trkpt lat="44.7534388" lon="7.9363026"><ele>252.66666666666666</ele><time>2026-05-06T13:19:50.881Z</time></trkpt><trkpt lat="44.7532696" lon="7.9362886"><ele>253.0</ele><time>2026-05-06T13:19:51.881Z</time></trkpt><trkpt lat="44.7531114" lon="7.9363028"><ele>253.0</ele><time>2026-05-06T13:19:52.88Z</time></trkpt><trkpt lat="44.7529475" lon="7.9363241"><ele>253.0</ele><time>2026-05-06T13:19:53.881Z</time></trkpt><trkpt lat="44.7527961" lon="7.9363458"><ele>253.0</ele><time>2026-05-06T13:19:54.881Z</time></trkpt><trkpt lat="44.7526498" lon="7.9363623"><ele>251.75</ele><time>2026-05-06T13:19:55.881Z</time></trkpt><trkpt lat="44.7525105" lon="7.9363912"><ele>250.5</ele><time>2026-05-06T13:19:56.881Z</time></trkpt><trkpt lat="44.7523797" lon="7.9364253"><ele>249.25</ele><time>2026-05-06T13:19:57.881Z</time></trkpt><trkpt lat="44.7522516" lon="7.9365072"><ele>248.0</ele><time>2026-05-06T13:19:58.881Z</time></trkpt><trkpt lat="44.7521294" lon="7.9366297"><ele>247.66666666666669</ele><time>2026-05-06T13:19:59.881Z</time></trkpt><trkpt lat="44.7520332" lon="7.9367902"><ele>247.33333333333331</ele><time>2026-05-06T13:20:00.881Z</time></trkpt><trkpt lat="44.7519451" lon="7.9369992"><ele>247.0</ele><time>2026-05-06T13:20:01.88Z</time></trkpt><trkpt lat="44.7518659" lon="7.9372207"><ele>246.0</ele><time>2026-05-06T13:20:02.881Z</time></trkpt><trkpt lat="44.7517894" lon="7.9374528"><ele>245.0</ele><time>2026-05-06T13:20:03.881Z</time></trkpt><trkpt lat="44.7517116" lon="7.9376846"><ele>244.0</ele><time>2026-05-06T13:20:04.88Z</time></trkpt><trkpt lat="44.7516429" lon="7.937899"><ele>243.66666666666666</ele><time>2026-05-06T13:20:05.881Z</time></trkpt><trkpt lat="44.7515726" lon="7.9381051"><ele>243.33333333333331</ele><time>2026-05-06T13:20:06.881Z</time></trkpt><trkpt lat="44.7514922" lon="7.9382993"><ele>243.0</ele><time>2026-05-06T13:20:07.881Z</time></trkpt><trkpt lat="44.7514036" lon="7.9384857"><ele>244.0</ele><time>2026-05-06T13:20:08.881Z</time></trkpt><trkpt lat="44.7512924" lon="7.9386505"><ele>245.0</ele><time>2026-05-06T13:20:09.881Z</time></trkpt><trkpt lat="44.7511805" lon="7.9388008"><ele>246.0</ele><time>2026-05-06T13:20:10.881Z</time></trkpt><trkpt lat="44.7510449" lon="7.938944"><ele>245.66666666666669</ele><time>2026-05-06T13:20:11.881Z</time></trkpt><trkpt lat="44.7509092" lon="7.9390578"><ele>245.33333333333334</ele><time>2026-05-06T13:20:12.881Z</time></trkpt><trkpt lat="44.750766" lon="7.9391676"><ele>245.0</ele><time>2026-05-06T13:20:13.881Z</time></trkpt><trkpt lat="44.7506287" lon="7.9392645"><ele>245.0</ele><time>2026-05-06T13:20:14.881Z</time></trkpt><trkpt lat="44.7504915" lon="7.9393442"><ele>245.0</ele><time>2026-05-06T13:20:15.881Z</time></trkpt><trkpt lat="44.7503374" lon="7.9393977"><ele>245.0</ele><time>2026-05-06T13:20:16.88Z</time></trkpt><trkpt lat="44.7501839" lon="7.9394197"><ele>244.33333333333334</ele><time>2026-05-06T13:20:17.88Z</time></trkpt><trkpt lat="44.7500412" lon="7.9393989"><ele>243.66666666666669</ele><time>2026-05-06T13:20:18.88Z</time></trkpt><trkpt lat="44.7498886" lon="7.9393596"><ele>243.0</ele><time>2026-05-06T13:20:19.88Z</time></trkpt><trkpt lat="44.7497405" lon="7.9392964"><ele>243.33333333333331</ele><time>2026-05-06T13:20:20.881Z</time></trkpt><trkpt lat="44.7495965" lon="7.9392144"><ele>243.66666666666666</ele><time>2026-05-06T13:20:21.881Z</time></trkpt><trkpt lat="44.7494466" lon="7.939111"><ele>244.0</ele><time>2026-05-06T13:20:22.88Z</time></trkpt><trkpt lat="44.7493073" lon="7.9389922"><ele>244.0</ele><time>2026-05-06T13:20:23.881Z</time></trkpt><trkpt lat="44.7491763" lon="7.9388713"><ele>244.0</ele><time>2026-05-06T13:20:24.88Z</time></trkpt><trkpt lat="44.7490384" lon="7.9387758"><ele>244.0</ele><time>2026-05-06T13:20:25.881Z</time></trkpt><trkpt lat="44.7488863" lon="7.938709"><ele>244.0</ele><time>2026-05-06T13:20:26.881Z</time></trkpt><trkpt lat="44.7487239" lon="7.9386641"><ele>244.0</ele><time>2026-05-06T13:20:27.881Z</time></trkpt><trkpt lat="44.7485525" lon="7.938652"><ele>244.0</ele><time>2026-05-06T13:20:28.881Z</time></trkpt><trkpt lat="44.748378" lon="7.9386623"><ele>244.0</ele><time>2026-05-06T13:20:29.881Z</time></trkpt><trkpt lat="44.7482084" lon="7.938704"><ele>244.0</ele><time>2026-05-06T13:20:30.881Z</time></trkpt><trkpt lat="44.7480316" lon="7.9387519"><ele>244.0</ele><time>2026-05-06T13:20:31.881Z</time></trkpt><trkpt lat="44.7478628" lon="7.9387993"><ele>241.33333333333331</ele><time>2026-05-06T13:20:32.881Z</time></trkpt><trkpt lat="44.7476983" lon="7.9388405"><ele>238.66666666666669</ele><time>2026-05-06T13:20:33.881Z</time></trkpt><trkpt lat="44.7475371" lon="7.9388889"><ele>236.0</ele><time>2026-05-06T13:20:34.881Z</time></trkpt><trkpt lat="44.7473801" lon="7.938938"><ele>236.0</ele><time>2026-05-06T13:20:35.881Z</time></trkpt><trkpt lat="44.7472228" lon="7.9389789"><ele>236.0</ele><time>2026-05-06T13:20:36.881Z</time></trkpt><trkpt lat="44.7470627" lon="7.9390415"><ele>236.0</ele><time>2026-05-06T13:20:37.881Z</time></trkpt><trkpt lat="44.7469058" lon="7.9391289"><ele>239.0</ele><time>2026-05-06T13:20:38.881Z</time></trkpt><trkpt lat="44.7467402" lon="7.9392327"><ele>242.0</ele><time>2026-05-06T13:20:39.881Z</time></trkpt><trkpt lat="44.7465848" lon="7.9393366"><ele>245.0</ele><time>2026-05-06T13:20:40.881Z</time></trkpt><trkpt lat="44.7464276" lon="7.9394575"><ele>245.0</ele><time>2026-05-06T13:20:41.881Z</time></trkpt><trkpt lat="44.7462725" lon="7.9395728"><ele>245.0</ele><time>2026-05-06T13:20:42.881Z</time></trkpt><trkpt lat="44.7461155" lon="7.9396924"><ele>245.0</ele><time>2026-05-06T13:20:43.881Z</time></trkpt><trkpt lat="44.7459598" lon="7.9398146"><ele>244.66666666666669</ele><time>2026-05-06T13:20:44.881Z</time></trkpt><trkpt lat="44.7458019" lon="7.9399368"><ele>244.33333333333331</ele><time>2026-05-06T13:20:45.881Z</time></trkpt><trkpt lat="44.7456468" lon="7.9400575"><ele>244.0</ele><time>2026-05-06T13:20:46.881Z</time></trkpt><trkpt lat="44.7454954" lon="7.9401711"><ele>244.0</ele><time>2026-05-06T13:20:47.881Z</time></trkpt><trkpt lat="44.7453359" lon="7.9402888"><ele>244.0</ele><time>2026-05-06T13:20:48.88Z</time></trkpt><trkpt lat="44.7451604" lon="7.9403973"><ele>244.0</ele><time>2026-05-06T13:20:49.88Z</time></trkpt><trkpt lat="44.7449845" lon="7.940499"><ele>242.0</ele><time>2026-05-06T13:20:50.881Z</time></trkpt><trkpt lat="44.7448042" lon="7.9405957"><ele>240.0</ele><time>2026-05-06T13:20:51.881Z</time></trkpt><trkpt lat="44.7446214" lon="7.9406791"><ele>238.0</ele><time>2026-05-06T13:20:52.88Z</time></trkpt><trkpt lat="44.7444387" lon="7.9407596"><ele>237.0</ele><time>2026-05-06T13:20:53.881Z</time></trkpt><trkpt lat="44.7442538" lon="7.9408346"><ele>236.0</ele><time>2026-05-06T13:20:54.881Z</time></trkpt><trkpt lat="44.7440676" lon="7.94091"><ele>235.0</ele><time>2026-05-06T13:20:55.881Z</time></trkpt><trkpt lat="44.7438758" lon="7.9409826"><ele>233.66666666666666</ele><time>2026-05-06T13:20:56.881Z</time></trkpt><trkpt lat="44.7436869" lon="7.9410641"><ele>232.33333333333331</ele><time>2026-05-06T13:20:57.881Z</time></trkpt><trkpt lat="44.7434836" lon="7.9411442"><ele>231.0</ele><time>2026-05-06T13:20:58.881Z</time></trkpt><trkpt lat="44.7432944" lon="7.9412548"><ele>231.0</ele><time>2026-05-06T13:20:59.881Z</time></trkpt><trkpt lat="44.743108" lon="7.9413629"><ele>231.0</ele><time>2026-05-06T13:21:00.881Z</time></trkpt><trkpt lat="44.7429247" lon="7.9414746"><ele>231.0</ele><time>2026-05-06T13:21:01.881Z</time></trkpt><trkpt lat="44.7427428" lon="7.9415737"><ele>230.33333333333331</ele><time>2026-05-06T13:21:02.881Z</time></trkpt><trkpt lat="44.7425662" lon="7.9416777"><ele>229.66666666666666</ele><time>2026-05-06T13:21:03.881Z</time></trkpt><trkpt lat="44.7423756" lon="7.941779"><ele>229.0</ele><time>2026-05-06T13:21:04.881Z</time></trkpt><trkpt lat="44.7421896" lon="7.9418933"><ele>229.0</ele><time>2026-05-06T13:21:05.881Z</time></trkpt><trkpt lat="44.7420148" lon="7.9419974"><ele>229.0</ele><time>2026-05-06T13:21:06.881Z</time></trkpt><trkpt lat="44.7418272" lon="7.9421165"><ele>229.0</ele><time>2026-05-06T13:21:07.881Z</time></trkpt><trkpt lat="44.741638" lon="7.9422252"><ele>229.66666666666666</ele><time>2026-05-06T13:21:08.881Z</time></trkpt><trkpt lat="44.7414469" lon="7.9423443"><ele>230.33333333333331</ele><time>2026-05-06T13:21:09.881Z</time></trkpt><trkpt lat="44.741253" lon="7.9424694"><ele>231.0</ele><time>2026-05-06T13:21:10.88Z</time></trkpt><trkpt lat="44.741064" lon="7.9425908"><ele>228.33333333333331</ele><time>2026-05-06T13:21:11.881Z</time></trkpt><trkpt lat="44.7408692" lon="7.9427291"><ele>225.66666666666666</ele><time>2026-05-06T13:21:12.881Z</time></trkpt><trkpt lat="44.7406807" lon="7.9428814"><ele>223.0</ele><time>2026-05-06T13:21:13.881Z</time></trkpt><trkpt lat="44.7404959" lon="7.9430349"><ele>223.0</ele><time>2026-05-06T13:21:14.881Z</time></trkpt><trkpt lat="44.7403168" lon="7.9431926"><ele>223.0</ele><time>2026-05-06T13:21:15.88Z</time></trkpt><trkpt lat="44.7401436" lon="7.94334"><ele>223.0</ele><time>2026-05-06T13:21:16.881Z</time></trkpt><trkpt lat="44.7399884" lon="7.9434739"><ele>222.33333333333331</ele><time>2026-05-06T13:21:17.88Z</time></trkpt><trkpt lat="44.7398268" lon="7.9435991"><ele>221.66666666666669</ele><time>2026-05-06T13:21:18.88Z</time></trkpt><trkpt lat="44.7396552" lon="7.9437122"><ele>221.0</ele><time>2026-05-06T13:21:19.88Z</time></trkpt><trkpt lat="44.7394838" lon="7.9437926"><ele>221.0</ele><time>2026-05-06T13:21:20.881Z</time></trkpt><trkpt lat="44.7393065" lon="7.943852"><ele>221.0</ele><time>2026-05-06T13:21:21.881Z</time></trkpt><trkpt lat="44.7391299" lon="7.9438893"><ele>221.0</ele><time>2026-05-06T13:21:22.881Z</time></trkpt><trkpt lat="44.7389571" lon="7.9439095"><ele>221.0</ele><time>2026-05-06T13:21:23.881Z</time></trkpt><trkpt lat="44.7387917" lon="7.9439085"><ele>221.0</ele><time>2026-05-06T13:21:24.881Z</time></trkpt><trkpt lat="44.7386265" lon="7.9439249"><ele>221.0</ele><time>2026-05-06T13:21:25.881Z</time></trkpt><trkpt lat="44.7384625" lon="7.9439669"><ele>220.0</ele><time>2026-05-06T13:21:26.881Z</time></trkpt><trkpt lat="44.7382962" lon="7.9440423"><ele>219.0</ele><time>2026-05-06T13:21:27.881Z</time></trkpt><trkpt lat="44.7381277" lon="7.9441604"><ele>218.0</ele><time>2026-05-06T13:21:28.881Z</time></trkpt><trkpt lat="44.7379598" lon="7.9442971"><ele>220.0</ele><time>2026-05-06T13:21:29.881Z</time></trkpt><trkpt lat="44.7377903" lon="7.9444416"><ele>222.0</ele><time>2026-05-06T13:21:30.881Z</time></trkpt><trkpt lat="44.7376218" lon="7.9445849"><ele>224.0</ele><time>2026-05-06T13:21:31.881Z</time></trkpt><trkpt lat="44.7374613" lon="7.9447076"><ele>224.0</ele><time>2026-05-06T13:21:32.881Z</time></trkpt><trkpt lat="44.7373128" lon="7.944831"><ele>224.0</ele><time>2026-05-06T13:21:33.881Z</time></trkpt><trkpt lat="44.7371609" lon="7.944969"><ele>224.0</ele><time>2026-05-06T13:21:34.881Z</time></trkpt><trkpt lat="44.7370182" lon="7.9451343"><ele>223.66666666666669</ele><time>2026-05-06T13:21:35.88Z</time></trkpt><trkpt lat="44.7368707" lon="7.9453145"><ele>223.33333333333331</ele><time>2026-05-06T13:21:36.88Z</time></trkpt><trkpt lat="44.7367277" lon="7.9454868"><ele>223.0</ele><time>2026-05-06T13:21:37.88Z</time></trkpt><trkpt lat="44.7365811" lon="7.9456778"><ele>223.0</ele><time>2026-05-06T13:21:38.881Z</time></trkpt><trkpt lat="44.7364394" lon="7.9458655"><ele>223.0</ele><time>2026-05-06T13:21:39.881Z</time></trkpt><trkpt lat="44.7363052" lon="7.9460369"><ele>223.0</ele><time>2026-05-06T13:21:40.881Z</time></trkpt><trkpt lat="44.7361784" lon="7.9462208"><ele>224.66666666666666</ele><time>2026-05-06T13:21:41.881Z</time></trkpt><trkpt lat="44.7360554" lon="7.9464123"><ele>226.33333333333331</ele><time>2026-05-06T13:21:42.881Z</time></trkpt><trkpt lat="44.7359415" lon="7.9466101"><ele>228.0</ele><time>2026-05-06T13:21:43.881Z</time></trkpt><trkpt lat="44.7358432" lon="7.9468195"><ele>223.33333333333331</ele><time>2026-05-06T13:21:44.88Z</time></trkpt><trkpt lat="44.735752" lon="7.9470289"><ele>218.66666666666666</ele><time>2026-05-06T13:21:45.881Z</time></trkpt><trkpt lat="44.7356686" lon="7.9472192"><ele>214.0</ele><time>2026-05-06T13:21:46.881Z</time></trkpt><trkpt lat="44.7355932" lon="7.9474004"><ele>214.75</ele><time>2026-05-06T13:21:47.881Z</time></trkpt><trkpt lat="44.7355181" lon="7.9475688"><ele>215.5</ele><time>2026-05-06T13:21:48.881Z</time></trkpt><trkpt lat="44.7354519" lon="7.9477205"><ele>216.25</ele><time>2026-05-06T13:21:49.881Z</time></trkpt><trkpt lat="44.7353838" lon="7.9478727"><ele>217.0</ele><time>2026-05-06T13:21:50.881Z</time></trkpt><trkpt lat="44.7353245" lon="7.9480281"><ele>217.0</ele><time>2026-05-06T13:21:51.881Z</time></trkpt><trkpt lat="44.7352694" lon="7.9481657"><ele>217.0</ele><time>2026-05-06T13:21:52.881Z</time></trkpt><trkpt lat="44.7352147" lon="7.9482964"><ele>217.0</ele><time>2026-05-06T13:21:53.881Z</time></trkpt><trkpt lat="44.7351644" lon="7.9484083"><ele>217.0</ele><time>2026-05-06T13:21:54.881Z</time></trkpt><trkpt lat="44.7351238" lon="7.9485113"><ele>217.0</ele><time>2026-05-06T13:21:55.881Z</time></trkpt><trkpt lat="44.7350745" lon="7.9485949"><ele>216.33333333333331</ele><time>2026-05-06T13:21:56.881Z</time></trkpt><trkpt lat="44.7350145" lon="7.9486506"><ele>215.66666666666666</ele><time>2026-05-06T13:21:57.881Z</time></trkpt><trkpt lat="44.7349488" lon="7.9486616"><ele>215.0</ele><time>2026-05-06T13:21:58.881Z</time></trkpt><trkpt lat="44.7348859" lon="7.9486277"><ele>214.33333333333331</ele><time>2026-05-06T13:21:59.881Z</time></trkpt><trkpt lat="44.7348406" lon="7.9485544"><ele>213.66666666666666</ele><time>2026-05-06T13:22:00.881Z</time></trkpt><trkpt lat="44.7348063" lon="7.9484397"><ele>213.0</ele><time>2026-05-06T13:22:01.88Z</time></trkpt><trkpt lat="44.7347876" lon="7.9483032"><ele>213.0</ele><time>2026-05-06T13:22:02.881Z</time></trkpt><trkpt lat="44.7347712" lon="7.9481266"><ele>213.0</ele><time>2026-05-06T13:22:03.88Z</time></trkpt><trkpt lat="44.7347511" lon="7.9479256"><ele>213.0</ele><time>2026-05-06T13:22:04.881Z</time></trkpt><trkpt lat="44.7347284" lon="7.947711"><ele>213.0</ele><time>2026-05-06T13:22:05.881Z</time></trkpt><trkpt lat="44.7347003" lon="7.9474904"><ele>212.66666666666669</ele><time>2026-05-06T13:22:06.88Z</time></trkpt><trkpt lat="44.7346697" lon="7.9472643"><ele>212.33333333333334</ele><time>2026-05-06T13:22:07.881Z</time></trkpt><trkpt lat="44.7346464" lon="7.9470547"><ele>212.0</ele><time>2026-05-06T13:22:08.881Z</time></trkpt><trkpt lat="44.7346261" lon="7.9468241"><ele>211.66666666666669</ele><time>2026-05-06T13:22:09.881Z</time></trkpt><trkpt lat="44.7345945" lon="7.9465842"><ele>211.33333333333331</ele><time>2026-05-06T13:22:10.881Z</time></trkpt><trkpt lat="44.7345653" lon="7.9463436"><ele>211.0</ele><time>2026-05-06T13:22:11.88Z</time></trkpt><trkpt lat="44.7345334" lon="7.9461008"><ele>210.66666666666666</ele><time>2026-05-06T13:22:12.881Z</time></trkpt><trkpt lat="44.734509" lon="7.9458444"><ele>210.33333333333331</ele><time>2026-05-06T13:22:13.881Z</time></trkpt><trkpt lat="44.7344819" lon="7.9455818"><ele>210.0</ele><time>2026-05-06T13:22:14.881Z</time></trkpt><trkpt lat="44.7344531" lon="7.9453166"><ele>211.0</ele><time>2026-05-06T13:22:15.881Z</time></trkpt><trkpt lat="44.7344238" lon="7.9450453"><ele>212.0</ele><time>2026-05-06T13:22:16.881Z</time></trkpt><trkpt lat="44.7343997" lon="7.9447737"><ele>213.0</ele><time>2026-05-06T13:22:17.881Z</time></trkpt><trkpt lat="44.7343671" lon="7.9444949"><ele>213.0</ele><time>2026-05-06T13:22:18.881Z</time></trkpt><trkpt lat="44.7343345" lon="7.9442166"><ele>213.0</ele><time>2026-05-06T13:22:19.881Z</time></trkpt><trkpt lat="44.7343043" lon="7.9439419"><ele>213.0</ele><time>2026-05-06T13:22:20.881Z</time></trkpt><trkpt lat="44.7342722" lon="7.9436775"><ele>215.0</ele><time>2026-05-06T13:22:21.88Z</time></trkpt><trkpt lat="44.734237" lon="7.9433994"><ele>217.0</ele><time>2026-05-06T13:22:22.881Z</time></trkpt><trkpt lat="44.7342133" lon="7.9431333"><ele>219.0</ele><time>2026-05-06T13:22:23.881Z</time></trkpt><trkpt lat="44.7341977" lon="7.9428714"><ele>219.33333333333331</ele><time>2026-05-06T13:22:24.88Z</time></trkpt><trkpt lat="44.7341946" lon="7.9426027"><ele>219.66666666666666</ele><time>2026-05-06T13:22:25.881Z</time></trkpt><trkpt lat="44.7341993" lon="7.9423293"><ele>220.0</ele><time>2026-05-06T13:22:26.881Z</time></trkpt><trkpt lat="44.7342106" lon="7.9420501"><ele>220.0</ele><time>2026-05-06T13:22:27.88Z</time></trkpt><trkpt lat="44.7342466" lon="7.9417633"><ele>220.0</ele><time>2026-05-06T13:22:28.881Z</time></trkpt><trkpt lat="44.7342795" lon="7.941483"><ele>220.0</ele><time>2026-05-06T13:22:29.881Z</time></trkpt><trkpt lat="44.734327" lon="7.9412029"><ele>223.0</ele><time>2026-05-06T13:22:30.881Z</time></trkpt><trkpt lat="44.7343913" lon="7.9409368"><ele>226.0</ele><time>2026-05-06T13:22:31.881Z</time></trkpt><trkpt lat="44.7344728" lon="7.9406825"><ele>229.0</ele><time>2026-05-06T13:22:32.881Z</time></trkpt><trkpt lat="44.7345614" lon="7.940433"><ele>229.0</ele><time>2026-05-06T13:22:33.881Z</time></trkpt><trkpt lat="44.7346499" lon="7.9401899"><ele>229.0</ele><time>2026-05-06T13:22:34.881Z</time></trkpt><trkpt lat="44.7347407" lon="7.9399438"><ele>229.0</ele><time>2026-05-06T13:22:35.881Z</time></trkpt><trkpt lat="44.7348271" lon="7.939703"><ele>226.33333333333331</ele><time>2026-05-06T13:22:36.881Z</time></trkpt><trkpt lat="44.7349177" lon="7.9394593"><ele>223.66666666666669</ele><time>2026-05-06T13:22:37.881Z</time></trkpt><trkpt lat="44.7350064" lon="7.9392198"><ele>221.0</ele><time>2026-05-06T13:22:38.881Z</time></trkpt><trkpt lat="44.7350939" lon="7.938972"><ele>220.0</ele><time>2026-05-06T13:22:39.881Z</time></trkpt><trkpt lat="44.7351799" lon="7.9387272"><ele>219.0</ele><time>2026-05-06T13:22:40.881Z</time></trkpt><trkpt lat="44.7352696" lon="7.93848"><ele>218.0</ele><time>2026-05-06T13:22:41.88Z</time></trkpt><trkpt lat="44.7353579" lon="7.9382305"><ele>220.0</ele><time>2026-05-06T13:22:42.88Z</time></trkpt><trkpt lat="44.7354521" lon="7.9379809"><ele>222.0</ele><time>2026-05-06T13:22:43.881Z</time></trkpt><trkpt lat="44.735541" lon="7.93773"><ele>224.0</ele><time>2026-05-06T13:22:44.881Z</time></trkpt><trkpt lat="44.7356297" lon="7.9374749"><ele>224.0</ele><time>2026-05-06T13:22:45.881Z</time></trkpt><trkpt lat="44.7357204" lon="7.9372267"><ele>224.0</ele><time>2026-05-06T13:22:46.881Z</time></trkpt><trkpt lat="44.7358167" lon="7.9369752"><ele>224.0</ele><time>2026-05-06T13:22:47.881Z</time></trkpt><trkpt lat="44.735909" lon="7.9367158"><ele>223.0</ele><time>2026-05-06T13:22:48.881Z</time></trkpt><trkpt lat="44.7360033" lon="7.9364506"><ele>222.0</ele><time>2026-05-06T13:22:49.881Z</time></trkpt><trkpt lat="44.7360977" lon="7.9361888"><ele>221.0</ele><time>2026-05-06T13:22:50.881Z</time></trkpt><trkpt lat="44.7361942" lon="7.9359159"><ele>221.66666666666669</ele><time>2026-05-06T13:22:51.881Z</time></trkpt><trkpt lat="44.7362896" lon="7.9356513"><ele>222.33333333333331</ele><time>2026-05-06T13:22:52.88Z</time></trkpt><trkpt lat="44.7363844" lon="7.9353824"><ele>223.0</ele><time>2026-05-06T13:22:53.881Z</time></trkpt><trkpt lat="44.7364846" lon="7.9351114"><ele>222.33333333333331</ele><time>2026-05-06T13:22:54.881Z</time></trkpt><trkpt lat="44.736578" lon="7.9348446"><ele>221.66666666666669</ele><time>2026-05-06T13:22:55.881Z</time></trkpt><trkpt lat="44.73667" lon="7.9345788"><ele>221.0</ele><time>2026-05-06T13:22:56.88Z</time></trkpt><trkpt lat="44.7367674" lon="7.9343078"><ele>221.0</ele><time>2026-05-06T13:22:57.881Z</time></trkpt><trkpt lat="44.7368618" lon="7.9340367"><ele>221.0</ele><time>2026-05-06T13:22:58.881Z</time></trkpt><trkpt lat="44.7369618" lon="7.9337718"><ele>221.0</ele><time>2026-05-06T13:22:59.88Z</time></trkpt><trkpt lat="44.7370575" lon="7.9334924"><ele>223.33333333333334</ele><time>2026-05-06T13:23:00.88Z</time></trkpt><trkpt lat="44.7371563" lon="7.9332174"><ele>225.66666666666669</ele><time>2026-05-06T13:23:01.88Z</time></trkpt><trkpt lat="44.7372517" lon="7.9329436"><ele>228.0</ele><time>2026-05-06T13:23:02.881Z</time></trkpt><trkpt lat="44.737352" lon="7.9326741"><ele>227.66666666666669</ele><time>2026-05-06T13:23:03.881Z</time></trkpt><trkpt lat="44.7374435" lon="7.9324117"><ele>227.33333333333334</ele><time>2026-05-06T13:23:04.881Z</time></trkpt><trkpt lat="44.7375296" lon="7.932165"><ele>227.0</ele><time>2026-05-06T13:23:05.881Z</time></trkpt><trkpt lat="44.7376135" lon="7.9319315"><ele>227.33333333333334</ele><time>2026-05-06T13:23:06.881Z</time></trkpt><trkpt lat="44.737688" lon="7.9317006"><ele>227.66666666666669</ele><time>2026-05-06T13:23:07.881Z</time></trkpt><trkpt lat="44.7377613" lon="7.9314557"><ele>228.0</ele><time>2026-05-06T13:23:08.881Z</time></trkpt><trkpt lat="44.737806" lon="7.9312134"><ele>232.0</ele><time>2026-05-06T13:23:09.881Z</time></trkpt><trkpt lat="44.7378211" lon="7.9309657"><ele>236.0</ele><time>2026-05-06T13:23:10.881Z</time></trkpt><trkpt lat="44.7378073" lon="7.930697"><ele>240.0</ele><time>2026-05-06T13:23:11.881Z</time></trkpt><trkpt lat="44.7377747" lon="7.9304338"><ele>238.0</ele><time>2026-05-06T13:23:12.881Z</time></trkpt><trkpt lat="44.7377407" lon="7.9301515"><ele>236.0</ele><time>2026-05-06T13:23:13.881Z</time></trkpt><trkpt lat="44.7376979" lon="7.9298542"><ele>234.0</ele><time>2026-05-06T13:23:14.88Z</time></trkpt><trkpt lat="44.7376526" lon="7.9295487"><ele>234.0</ele><time>2026-05-06T13:23:15.881Z</time></trkpt><trkpt lat="44.7376035" lon="7.9292485"><ele>234.0</ele><time>2026-05-06T13:23:16.881Z</time></trkpt><trkpt lat="44.7375668" lon="7.9289713"><ele>234.0</ele><time>2026-05-06T13:23:17.881Z</time></trkpt><trkpt lat="44.7375228" lon="7.9287122"><ele>234.33333333333331</ele><time>2026-05-06T13:23:18.881Z</time></trkpt><trkpt lat="44.7374814" lon="7.9284721"><ele>234.66666666666666</ele><time>2026-05-06T13:23:19.881Z</time></trkpt><trkpt lat="44.737443" lon="7.928224"><ele>235.0</ele><time>2026-05-06T13:23:20.88Z</time></trkpt><trkpt lat="44.7374094" lon="7.9279605"><ele>235.33333333333331</ele><time>2026-05-06T13:23:21.881Z</time></trkpt><trkpt lat="44.7373951" lon="7.9277062"><ele>235.66666666666669</ele><time>2026-05-06T13:23:22.881Z</time></trkpt><trkpt lat="44.7373884" lon="7.9274521"><ele>236.0</ele><time>2026-05-06T13:23:23.881Z</time></trkpt><trkpt lat="44.737418" lon="7.9271839"><ele>236.66666666666669</ele><time>2026-05-06T13:23:24.881Z</time></trkpt><trkpt lat="44.7374642" lon="7.9269204"><ele>237.33333333333331</ele><time>2026-05-06T13:23:25.881Z</time></trkpt><trkpt lat="44.7375169" lon="7.9266882"><ele>238.0</ele><time>2026-05-06T13:23:26.881Z</time></trkpt><trkpt lat="44.7375746" lon="7.926483"><ele>238.66666666666666</ele><time>2026-05-06T13:23:27.881Z</time></trkpt><trkpt lat="44.7376438" lon="7.9262812"><ele>239.33333333333331</ele><time>2026-05-06T13:23:28.881Z</time></trkpt><trkpt lat="44.7377189" lon="7.9260962"><ele>240.0</ele><time>2026-05-06T13:23:29.881Z</time></trkpt><trkpt lat="44.7378205" lon="7.9259313"><ele>244.0</ele><time>2026-05-06T13:23:30.881Z</time></trkpt><trkpt lat="44.7379347" lon="7.9257451"><ele>248.0</ele><time>2026-05-06T13:23:31.881Z</time></trkpt><trkpt lat="44.7380477" lon="7.9255675"><ele>252.0</ele><time>2026-05-06T13:23:32.881Z</time></trkpt><trkpt lat="44.7381589" lon="7.925395"><ele>252.0</ele><time>2026-05-06T13:23:33.881Z</time></trkpt><trkpt lat="44.7382638" lon="7.9252216"><ele>252.0</ele><time>2026-05-06T13:23:34.881Z</time></trkpt><trkpt lat="44.7383685" lon="7.9250512"><ele>252.0</ele><time>2026-05-06T13:23:35.881Z</time></trkpt><trkpt lat="44.7384817" lon="7.924879"><ele>256.0</ele><time>2026-05-06T13:23:36.881Z</time></trkpt><trkpt lat="44.7386179" lon="7.9247008"><ele>260.0</ele><time>2026-05-06T13:23:37.881Z</time></trkpt><trkpt lat="44.7387584" lon="7.9245339"><ele>264.0</ele><time>2026-05-06T13:23:38.881Z</time></trkpt><trkpt lat="44.738878" lon="7.9243885"><ele>264.0</ele><time>2026-05-06T13:23:39.88Z</time></trkpt><trkpt lat="44.7389954" lon="7.9242534"><ele>264.0</ele><time>2026-05-06T13:23:40.881Z</time></trkpt><trkpt lat="44.7391036" lon="7.9241301"><ele>264.0</ele><time>2026-05-06T13:23:41.881Z</time></trkpt><trkpt lat="44.7391911" lon="7.9239776"><ele>264.0</ele><time>2026-05-06T13:23:42.881Z</time></trkpt><trkpt lat="44.7392398" lon="7.9238082"><ele>262.0</ele><time>2026-05-06T13:23:43.881Z</time></trkpt><trkpt lat="44.7392489" lon="7.9236154"><ele>260.0</ele><time>2026-05-06T13:23:44.881Z</time></trkpt><trkpt lat="44.739232" lon="7.9234186"><ele>258.0</ele><time>2026-05-06T13:23:45.881Z</time></trkpt><trkpt lat="44.7391975" lon="7.923246"><ele>256.0</ele><time>2026-05-06T13:23:46.881Z</time></trkpt><trkpt lat="44.7391766" lon="7.923077"><ele>256.0</ele><time>2026-05-06T13:23:47.881Z</time></trkpt><trkpt lat="44.7391795" lon="7.9229114"><ele>256.0</ele><time>2026-05-06T13:23:48.881Z</time></trkpt><trkpt lat="44.7392078" lon="7.9227733"><ele>256.0</ele><time>2026-05-06T13:23:49.881Z</time></trkpt><trkpt lat="44.7392538" lon="7.9226513"><ele>256.0</ele><time>2026-05-06T13:23:50.881Z</time></trkpt><trkpt lat="44.739364" lon="7.9225692"><ele>256.0</ele><time>2026-05-06T13:23:51.88Z</time></trkpt><trkpt lat="44.7394774" lon="7.9224978"><ele>260.25</ele><time>2026-05-06T13:23:52.881Z</time></trkpt><trkpt lat="44.739597" lon="7.9224061"><ele>264.5</ele><time>2026-05-06T13:23:53.881Z</time></trkpt><trkpt lat="44.7396871" lon="7.9222603"><ele>268.75</ele><time>2026-05-06T13:23:54.881Z</time></trkpt><trkpt lat="44.7397563" lon="7.922069"><ele>273.0</ele><time>2026-05-06T13:23:55.881Z</time></trkpt><trkpt lat="44.7398206" lon="7.921857"><ele>271.3333333333333</ele><time>2026-05-06T13:23:56.881Z</time></trkpt><trkpt lat="44.7398872" lon="7.9216669"><ele>269.66666666666663</ele><time>2026-05-06T13:23:57.88Z</time></trkpt><trkpt lat="44.7399746" lon="7.9214802"><ele>268.0</ele><time>2026-05-06T13:23:58.881Z</time></trkpt><trkpt lat="44.7401163" lon="7.9213874"><ele>271.0</ele><time>2026-05-06T13:23:59.88Z</time></trkpt><trkpt lat="44.7402501" lon="7.9212467"><ele>274.0</ele><time>2026-05-06T13:24:00.88Z</time></trkpt><trkpt lat="44.7403758" lon="7.9210964"><ele>277.0</ele><time>2026-05-06T13:24:01.881Z</time></trkpt><trkpt lat="44.7404992" lon="7.9209081"><ele>277.66666666666663</ele><time>2026-05-06T13:24:02.881Z</time></trkpt><trkpt lat="44.7405939" lon="7.9207107"><ele>278.3333333333333</ele><time>2026-05-06T13:24:03.881Z</time></trkpt><trkpt lat="44.7406767" lon="7.9204992"><ele>279.0</ele><time>2026-05-06T13:24:04.881Z</time></trkpt><trkpt lat="44.740774" lon="7.9202961"><ele>279.0</ele><time>2026-05-06T13:24:05.881Z</time></trkpt><trkpt lat="44.7408551" lon="7.9201139"><ele>279.0</ele><time>2026-05-06T13:24:06.88Z</time></trkpt><trkpt lat="44.7409406" lon="7.9199454"><ele>279.0</ele><time>2026-05-06T13:24:07.881Z</time></trkpt><trkpt lat="44.7410244" lon="7.9197689"><ele>278.5</ele><time>2026-05-06T13:24:08.881Z</time></trkpt><trkpt lat="44.7411017" lon="7.9195945"><ele>278.0</ele><time>2026-05-06T13:24:09.88Z</time></trkpt><trkpt lat="44.7411757" lon="7.9194187"><ele>277.5</ele><time>2026-05-06T13:24:10.88Z</time></trkpt><trkpt lat="44.7412722" lon="7.919242"><ele>277.0</ele><time>2026-05-06T13:24:11.881Z</time></trkpt><trkpt lat="44.7413326" lon="7.9190813"><ele>276.75</ele><time>2026-05-06T13:24:12.881Z</time></trkpt><trkpt lat="44.7413743" lon="7.9188858"><ele>276.5</ele><time>2026-05-06T13:24:13.881Z</time></trkpt><trkpt lat="44.7413983" lon="7.9187097"><ele>276.25</ele><time>2026-05-06T13:24:14.881Z</time></trkpt><trkpt lat="44.7413995" lon="7.9185067"><ele>276.0</ele><time>2026-05-06T13:24:15.881Z</time></trkpt><trkpt lat="44.7414085" lon="7.9183377"><ele>276.0</ele><time>2026-05-06T13:24:16.881Z</time></trkpt><trkpt lat="44.7414201" lon="7.9181827"><ele>276.0</ele><time>2026-05-06T13:24:17.881Z</time></trkpt><trkpt lat="44.7414148" lon="7.9180081"><ele>276.0</ele><time>2026-05-06T13:24:18.881Z</time></trkpt><trkpt lat="44.7414119" lon="7.9178285"><ele>276.0</ele><time>2026-05-06T13:24:19.881Z</time></trkpt><trkpt lat="44.7414097" lon="7.9176371"><ele>277.25</ele><time>2026-05-06T13:24:20.881Z</time></trkpt><trkpt lat="44.7414048" lon="7.917445"><ele>278.5</ele><time>2026-05-06T13:24:21.881Z</time></trkpt><trkpt lat="44.7414077" lon="7.9172471"><ele>279.75</ele><time>2026-05-06T13:24:22.881Z</time></trkpt><trkpt lat="44.7414043" lon="7.9170605"><ele>281.0</ele><time>2026-05-06T13:24:23.881Z</time></trkpt><trkpt lat="44.7413897" lon="7.916857"><ele>281.5</ele><time>2026-05-06T13:24:24.881Z</time></trkpt><trkpt lat="44.741356" lon="7.9166849"><ele>282.0</ele><time>2026-05-06T13:24:25.881Z</time></trkpt><trkpt lat="44.7412956" lon="7.916519"><ele>282.5</ele><time>2026-05-06T13:24:26.881Z</time></trkpt><trkpt lat="44.7412123" lon="7.9163774"><ele>283.0</ele><time>2026-05-06T13:24:27.881Z</time></trkpt><trkpt lat="44.7410967" lon="7.9162518"><ele>287.3333333333333</ele><time>2026-05-06T13:24:28.881Z</time></trkpt><trkpt lat="44.7409733" lon="7.9161304"><ele>291.6666666666667</ele><time>2026-05-06T13:24:29.881Z</time></trkpt><trkpt lat="44.7408392" lon="7.9160177"><ele>296.0</ele><time>2026-05-06T13:24:30.881Z</time></trkpt><trkpt lat="44.7407192" lon="7.9159048"><ele>295.0</ele><time>2026-05-06T13:24:31.88Z</time></trkpt><trkpt lat="44.740594" lon="7.9158049"><ele>294.0</ele><time>2026-05-06T13:24:32.88Z</time></trkpt><trkpt lat="44.7404755" lon="7.9157072"><ele>293.0</ele><time>2026-05-06T13:24:33.881Z</time></trkpt><trkpt lat="44.7403614" lon="7.9156133"><ele>292.0</ele><time>2026-05-06T13:24:34.881Z</time></trkpt><trkpt lat="44.7402544" lon="7.9155309"><ele>291.75</ele><time>2026-05-06T13:24:35.881Z</time></trkpt><trkpt lat="44.7401681" lon="7.9154312"><ele>291.5</ele><time>2026-05-06T13:24:36.881Z</time></trkpt><trkpt lat="44.7401047" lon="7.9153017"><ele>291.25</ele><time>2026-05-06T13:24:37.88Z</time></trkpt><trkpt lat="44.7400773" lon="7.915155"><ele>291.0</ele><time>2026-05-06T13:24:38.881Z</time></trkpt><trkpt lat="44.7400739" lon="7.9149817"><ele>292.25</ele><time>2026-05-06T13:24:39.88Z</time></trkpt><trkpt lat="44.7400739" lon="7.9148023"><ele>293.5</ele><time>2026-05-06T13:24:40.881Z</time></trkpt><trkpt lat="44.7400601" lon="7.9146177"><ele>294.75</ele><time>2026-05-06T13:24:41.881Z</time></trkpt><trkpt lat="44.7400153" lon="7.9144161"><ele>296.0</ele><time>2026-05-06T13:24:42.881Z</time></trkpt><trkpt lat="44.7399491" lon="7.9142287"><ele>297.6666666666667</ele><time>2026-05-06T13:24:43.881Z</time></trkpt><trkpt lat="44.7398681" lon="7.9140515"><ele>299.3333333333333</ele><time>2026-05-06T13:24:44.881Z</time></trkpt><trkpt lat="44.7397691" lon="7.913887"><ele>301.0</ele><time>2026-05-06T13:24:45.881Z</time></trkpt><trkpt lat="44.739658" lon="7.913741"><ele>301.0</ele><time>2026-05-06T13:24:46.881Z</time></trkpt><trkpt lat="44.7395456" lon="7.9136082"><ele>301.0</ele><time>2026-05-06T13:24:47.881Z</time></trkpt><trkpt lat="44.7394532" lon="7.9134758"><ele>301.0</ele><time>2026-05-06T13:24:48.88Z</time></trkpt><trkpt lat="44.7393567" lon="7.9133843"><ele>301.0</ele><time>2026-05-06T13:24:49.881Z</time></trkpt><trkpt lat="44.7392814" lon="7.9132684"><ele>301.0</ele><time>2026-05-06T13:24:50.881Z</time></trkpt><trkpt lat="44.7392225" lon="7.9131385"><ele>301.0</ele><time>2026-05-06T13:24:51.881Z</time></trkpt><trkpt lat="44.7391891" lon="7.912985"><ele>301.0</ele><time>2026-05-06T13:24:52.881Z</time></trkpt><trkpt lat="44.7391862" lon="7.9128332"><ele>301.0</ele><time>2026-05-06T13:24:53.881Z</time></trkpt><trkpt lat="44.7392221" lon="7.9126819"><ele>301.0</ele><time>2026-05-06T13:24:54.881Z</time></trkpt><trkpt lat="44.7392867" lon="7.9125531"><ele>301.75</ele><time>2026-05-06T13:24:55.881Z</time></trkpt><trkpt lat="44.739384" lon="7.9124412"><ele>302.5</ele><time>2026-05-06T13:24:56.881Z</time></trkpt><trkpt lat="44.7394906" lon="7.912329"><ele>303.25</ele><time>2026-05-06T13:24:57.881Z</time></trkpt><trkpt lat="44.7396006" lon="7.9122288"><ele>304.0</ele><time>2026-05-06T13:24:58.881Z</time></trkpt><trkpt lat="44.7397014" lon="7.9121165"><ele>304.0</ele><time>2026-05-06T13:24:59.881Z</time></trkpt><trkpt lat="44.7397982" lon="7.9120236"><ele>304.0</ele><time>2026-05-06T13:25:00.881Z</time></trkpt><trkpt lat="44.7398992" lon="7.9119276"><ele>304.0</ele><time>2026-05-06T13:25:01.881Z</time></trkpt><trkpt lat="44.7399895" lon="7.9118495"><ele>304.0</ele><time>2026-05-06T13:25:02.881Z</time></trkpt><trkpt lat="44.7400826" lon="7.9117652"><ele>302.4</ele><time>2026-05-06T13:25:03.881Z</time></trkpt><trkpt lat="44.7401581" lon="7.9116764"><ele>300.79999999999995</ele><time>2026-05-06T13:25:04.881Z</time></trkpt><trkpt lat="44.7402092" lon="7.911556"><ele>299.20000000000005</ele><time>2026-05-06T13:25:05.88Z</time></trkpt><trkpt lat="44.7402339" lon="7.9114236"><ele>297.6</ele><time>2026-05-06T13:25:06.88Z</time></trkpt><trkpt lat="44.740241" lon="7.9112671"><ele>296.0</ele><time>2026-05-06T13:25:07.881Z</time></trkpt><trkpt lat="44.7402179" lon="7.9111196"><ele>300.2</ele><time>2026-05-06T13:25:08.881Z</time></trkpt><trkpt lat="44.7401978" lon="7.910968"><ele>304.40000000000003</ele><time>2026-05-06T13:25:09.88Z</time></trkpt><trkpt lat="44.7401922" lon="7.9108006"><ele>308.6</ele><time>2026-05-06T13:25:10.881Z</time></trkpt><trkpt lat="44.7401978" lon="7.9106497"><ele>312.8</ele><time>2026-05-06T13:25:11.881Z</time></trkpt><trkpt lat="44.7402037" lon="7.9105226"><ele>317.0</ele><time>2026-05-06T13:25:12.881Z</time></trkpt><trkpt lat="44.740198" lon="7.9104199"><ele>318.4</ele><time>2026-05-06T13:25:13.881Z</time></trkpt><trkpt lat="44.74018" lon="7.9103265"><ele>319.79999999999995</ele><time>2026-05-06T13:25:14.881Z</time></trkpt><trkpt lat="44.7400877" lon="7.9102026"><ele>321.2</ele><time>2026-05-06T13:25:16.881Z</time></trkpt><trkpt lat="44.7400232" lon="7.9101443"><ele>322.59999999999997</ele><time>2026-05-06T13:25:17.881Z</time></trkpt><trkpt lat="44.7399519" lon="7.9100673"><ele>324.0</ele><time>2026-05-06T13:25:18.881Z</time></trkpt><trkpt lat="44.7398753" lon="7.909969"><ele>325.0</ele><time>2026-05-06T13:25:19.881Z</time></trkpt><trkpt lat="44.7397967" lon="7.9098337"><ele>326.0</ele><time>2026-05-06T13:25:20.881Z</time></trkpt><trkpt lat="44.7397254" lon="7.9096715"><ele>327.0</ele><time>2026-05-06T13:25:21.881Z</time></trkpt><trkpt lat="44.7396776" lon="7.9094934"><ele>328.0</ele><time>2026-05-06T13:25:22.88Z</time></trkpt><trkpt lat="44.7396558" lon="7.9092974"><ele>328.5</ele><time>2026-05-06T13:25:23.88Z</time></trkpt><trkpt lat="44.7396318" lon="7.9091181"><ele>329.0</ele><time>2026-05-06T13:25:24.881Z</time></trkpt><trkpt lat="44.7396057" lon="7.9089378"><ele>329.5</ele><time>2026-05-06T13:25:25.881Z</time></trkpt><trkpt lat="44.7395565" lon="7.9087699"><ele>330.0</ele><time>2026-05-06T13:25:26.88Z</time></trkpt><trkpt lat="44.7394829" lon="7.9086033"><ele>327.0</ele><time>2026-05-06T13:25:27.881Z</time></trkpt><trkpt lat="44.7393792" lon="7.908473"><ele>324.0</ele><time>2026-05-06T13:25:28.881Z</time></trkpt><trkpt lat="44.7392704" lon="7.9083444"><ele>321.0</ele><time>2026-05-06T13:25:29.881Z</time></trkpt><trkpt lat="44.7391826" lon="7.9081995"><ele>318.0</ele><time>2026-05-06T13:25:30.881Z</time></trkpt><trkpt lat="44.7391095" lon="7.9080336"><ele>318.0</ele><time>2026-05-06T13:25:31.881Z</time></trkpt><trkpt lat="44.7390406" lon="7.9078561"><ele>318.0</ele><time>2026-05-06T13:25:32.88Z</time></trkpt><trkpt lat="44.7389786" lon="7.9076845"><ele>318.0</ele><time>2026-05-06T13:25:33.88Z</time></trkpt><trkpt lat="44.7389356" lon="7.9075189"><ele>318.0</ele><time>2026-05-06T13:25:34.881Z</time></trkpt><trkpt lat="44.7389131" lon="7.9073407"><ele>317.5</ele><time>2026-05-06T13:25:35.881Z</time></trkpt><trkpt lat="44.7389243" lon="7.9071629"><ele>317.0</ele><time>2026-05-06T13:25:36.881Z</time></trkpt><trkpt lat="44.7389652" lon="7.9069793"><ele>316.5</ele><time>2026-05-06T13:25:37.881Z</time></trkpt><trkpt lat="44.7390162" lon="7.9068162"><ele>316.0</ele><time>2026-05-06T13:25:38.88Z</time></trkpt><trkpt lat="44.7390599" lon="7.9066452"><ele>316.0</ele><time>2026-05-06T13:25:39.881Z</time></trkpt><trkpt lat="44.7390636" lon="7.9064712"><ele>316.0</ele><time>2026-05-06T13:25:40.881Z</time></trkpt><trkpt lat="44.7390179" lon="7.9062734"><ele>316.0</ele><time>2026-05-06T13:25:41.881Z</time></trkpt><trkpt lat="44.7389461" lon="7.9061044"><ele>316.0</ele><time>2026-05-06T13:25:42.881Z</time></trkpt><trkpt lat="44.738842" lon="7.9059571"><ele>319.0</ele><time>2026-05-06T13:25:43.88Z</time></trkpt><trkpt lat="44.7386992" lon="7.9058349"><ele>322.0</ele><time>2026-05-06T13:25:44.881Z</time></trkpt><trkpt lat="44.7385463" lon="7.9057183"><ele>325.0</ele><time>2026-05-06T13:25:45.881Z</time></trkpt><trkpt lat="44.7383949" lon="7.9055969"><ele>319.0</ele><time>2026-05-06T13:25:46.881Z</time></trkpt><trkpt lat="44.7382383" lon="7.9054796"><ele>313.0</ele><time>2026-05-06T13:25:47.881Z</time></trkpt><trkpt lat="44.7380834" lon="7.9053586"><ele>307.0</ele><time>2026-05-06T13:25:48.881Z</time></trkpt><trkpt lat="44.7379263" lon="7.9052358"><ele>307.0</ele><time>2026-05-06T13:25:49.881Z</time></trkpt><trkpt lat="44.737774" lon="7.9051147"><ele>307.0</ele><time>2026-05-06T13:25:50.881Z</time></trkpt><trkpt lat="44.7376256" lon="7.9049883"><ele>307.0</ele><time>2026-05-06T13:25:51.881Z</time></trkpt><trkpt lat="44.7374663" lon="7.9048716"><ele>305.5</ele><time>2026-05-06T13:25:52.881Z</time></trkpt><trkpt lat="44.7373187" lon="7.9047576"><ele>304.0</ele><time>2026-05-06T13:25:53.881Z</time></trkpt><trkpt lat="44.7371936" lon="7.9046487"><ele>302.5</ele><time>2026-05-06T13:25:54.881Z</time></trkpt><trkpt lat="44.7370854" lon="7.904541"><ele>301.0</ele><time>2026-05-06T13:25:55.881Z</time></trkpt><trkpt lat="44.7369976" lon="7.9044159"><ele>301.0</ele><time>2026-05-06T13:25:56.88Z</time></trkpt><trkpt lat="44.7369252" lon="7.9042673"><ele>301.0</ele><time>2026-05-06T13:25:57.881Z</time></trkpt><trkpt lat="44.7368972" lon="7.9040822"><ele>301.0</ele><time>2026-05-06T13:25:58.88Z</time></trkpt><trkpt lat="44.7368993" lon="7.9038846"><ele>301.0</ele><time>2026-05-06T13:25:59.88Z</time></trkpt><trkpt lat="44.7369131" lon="7.9036947"><ele>301.5</ele><time>2026-05-06T13:26:00.881Z</time></trkpt><trkpt lat="44.7369273" lon="7.9035044"><ele>302.0</ele><time>2026-05-06T13:26:01.881Z</time></trkpt><trkpt lat="44.7369282" lon="7.9033304"><ele>302.5</ele><time>2026-05-06T13:26:02.88Z</time></trkpt><trkpt lat="44.7369046" lon="7.9031494"><ele>303.0</ele><time>2026-05-06T13:26:03.881Z</time></trkpt><trkpt lat="44.7368399" lon="7.9029667"><ele>300.3333333333333</ele><time>2026-05-06T13:26:04.881Z</time></trkpt><trkpt lat="44.7367674" lon="7.9027813"><ele>297.66666666666663</ele><time>2026-05-06T13:26:05.881Z</time></trkpt><trkpt lat="44.7366897" lon="7.9025801"><ele>295.0</ele><time>2026-05-06T13:26:06.88Z</time></trkpt><trkpt lat="44.736614" lon="7.9023862"><ele>294.0</ele><time>2026-05-06T13:26:07.881Z</time></trkpt><trkpt lat="44.7365305" lon="7.9022006"><ele>293.0</ele><time>2026-05-06T13:26:08.881Z</time></trkpt><trkpt lat="44.7364353" lon="7.9020282"><ele>292.0</ele><time>2026-05-06T13:26:09.881Z</time></trkpt><trkpt lat="44.7363257" lon="7.9018707"><ele>291.66666666666663</ele><time>2026-05-06T13:26:10.881Z</time></trkpt><trkpt lat="44.7362083" lon="7.9017379"><ele>291.3333333333333</ele><time>2026-05-06T13:26:11.881Z</time></trkpt><trkpt lat="44.7360824" lon="7.9016168"><ele>291.0</ele><time>2026-05-06T13:26:12.881Z</time></trkpt><trkpt lat="44.7359348" lon="7.901542"><ele>290.6666666666667</ele><time>2026-05-06T13:26:13.881Z</time></trkpt><trkpt lat="44.7357743" lon="7.9014845"><ele>290.33333333333337</ele><time>2026-05-06T13:26:14.881Z</time></trkpt><trkpt lat="44.7356055" lon="7.9014548"><ele>290.0</ele><time>2026-05-06T13:26:15.881Z</time></trkpt><trkpt lat="44.7354253" lon="7.9014535"><ele>290.0</ele><time>2026-05-06T13:26:16.881Z</time></trkpt><trkpt lat="44.7352395" lon="7.9014777"><ele>290.0</ele><time>2026-05-06T13:26:17.881Z</time></trkpt><trkpt lat="44.7350494" lon="7.9015033"><ele>290.0</ele><time>2026-05-06T13:26:18.881Z</time></trkpt><trkpt lat="44.7348622" lon="7.9015303"><ele>289.0</ele><time>2026-05-06T13:26:19.88Z</time></trkpt><trkpt lat="44.7346698" lon="7.9015578"><ele>288.0</ele><time>2026-05-06T13:26:20.881Z</time></trkpt><trkpt lat="44.7344762" lon="7.9015855"><ele>287.0</ele><time>2026-05-06T13:26:21.88Z</time></trkpt><trkpt lat="44.734287" lon="7.9016141"><ele>285.6666666666667</ele><time>2026-05-06T13:26:22.881Z</time></trkpt><trkpt lat="44.7340954" lon="7.9016394"><ele>284.3333333333333</ele><time>2026-05-06T13:26:23.881Z</time></trkpt><trkpt lat="44.7339016" lon="7.9016763"><ele>283.0</ele><time>2026-05-06T13:26:24.88Z</time></trkpt><trkpt lat="44.7337048" lon="7.9016971"><ele>282.66666666666663</ele><time>2026-05-06T13:26:25.881Z</time></trkpt><trkpt lat="44.7335106" lon="7.9017366"><ele>282.3333333333333</ele><time>2026-05-06T13:26:26.881Z</time></trkpt><trkpt lat="44.733314" lon="7.9017708"><ele>282.0</ele><time>2026-05-06T13:26:27.881Z</time></trkpt><trkpt lat="44.7331131" lon="7.9017954"><ele>283.0</ele><time>2026-05-06T13:26:28.881Z</time></trkpt><trkpt lat="44.7329191" lon="7.9018278"><ele>284.0</ele><time>2026-05-06T13:26:29.881Z</time></trkpt><trkpt lat="44.7327242" lon="7.9018621"><ele>285.0</ele><time>2026-05-06T13:26:30.881Z</time></trkpt><trkpt lat="44.7325413" lon="7.9018993"><ele>285.0</ele><time>2026-05-06T13:26:31.881Z</time></trkpt><trkpt lat="44.7323542" lon="7.9019354"><ele>285.0</ele><time>2026-05-06T13:26:32.881Z</time></trkpt><trkpt lat="44.7321651" lon="7.9019487"><ele>285.0</ele><time>2026-05-06T13:26:33.881Z</time></trkpt><trkpt lat="44.7319868" lon="7.9019292"><ele>284.0</ele><time>2026-05-06T13:26:34.881Z</time></trkpt><trkpt lat="44.7318086" lon="7.9018645"><ele>283.0</ele><time>2026-05-06T13:26:35.881Z</time></trkpt><trkpt lat="44.7316278" lon="7.9017783"><ele>282.0</ele><time>2026-05-06T13:26:36.881Z</time></trkpt><trkpt lat="44.7314452" lon="7.901692"><ele>281.3333333333333</ele><time>2026-05-06T13:26:37.881Z</time></trkpt><trkpt lat="44.7312734" lon="7.9016081"><ele>280.66666666666663</ele><time>2026-05-06T13:26:38.881Z</time></trkpt><trkpt lat="44.7311033" lon="7.9015321"><ele>280.0</ele><time>2026-05-06T13:26:39.881Z</time></trkpt><trkpt lat="44.7309206" lon="7.901489"><ele>280.0</ele><time>2026-05-06T13:26:40.881Z</time></trkpt><trkpt lat="44.7307302" lon="7.9014795"><ele>280.0</ele><time>2026-05-06T13:26:41.881Z</time></trkpt><trkpt lat="44.7305302" lon="7.901501"><ele>280.0</ele><time>2026-05-06T13:26:42.881Z</time></trkpt><trkpt lat="44.7303318" lon="7.90154"><ele>278.66666666666663</ele><time>2026-05-06T13:26:43.881Z</time></trkpt><trkpt lat="44.7301351" lon="7.9015805"><ele>277.3333333333333</ele><time>2026-05-06T13:26:44.881Z</time></trkpt><trkpt lat="44.7299326" lon="7.9016205"><ele>276.0</ele><time>2026-05-06T13:26:45.881Z</time></trkpt><trkpt lat="44.7297406" lon="7.9016451"><ele>276.0</ele><time>2026-05-06T13:26:46.881Z</time></trkpt><trkpt lat="44.7295607" lon="7.9016426"><ele>276.0</ele><time>2026-05-06T13:26:47.881Z</time></trkpt><trkpt lat="44.729392" lon="7.9016128"><ele>276.0</ele><time>2026-05-06T13:26:48.881Z</time></trkpt><trkpt lat="44.7292317" lon="7.9015465"><ele>274.6666666666667</ele><time>2026-05-06T13:26:49.88Z</time></trkpt><trkpt lat="44.7290793" lon="7.9014564"><ele>273.33333333333337</ele><time>2026-05-06T13:26:50.88Z</time></trkpt><trkpt lat="44.7289482" lon="7.9013584"><ele>272.0</ele><time>2026-05-06T13:26:51.881Z</time></trkpt><trkpt lat="44.7288037" lon="7.9012616"><ele>272.0</ele><time>2026-05-06T13:26:52.881Z</time></trkpt><trkpt lat="44.728658" lon="7.9011766"><ele>272.0</ele><time>2026-05-06T13:26:53.881Z</time></trkpt><trkpt lat="44.7284883" lon="7.9011319"><ele>272.0</ele><time>2026-05-06T13:26:54.881Z</time></trkpt><trkpt lat="44.7283114" lon="7.9011277"><ele>271.0</ele><time>2026-05-06T13:26:55.881Z</time></trkpt><trkpt lat="44.7281273" lon="7.9011617"><ele>270.0</ele><time>2026-05-06T13:26:56.88Z</time></trkpt><trkpt lat="44.7279533" lon="7.9012459"><ele>269.0</ele><time>2026-05-06T13:26:57.881Z</time></trkpt><trkpt lat="44.7277841" lon="7.9013597"><ele>270.33333333333337</ele><time>2026-05-06T13:26:58.881Z</time></trkpt><trkpt lat="44.7276267" lon="7.9014721"><ele>271.6666666666667</ele><time>2026-05-06T13:26:59.88Z</time></trkpt><trkpt lat="44.7274616" lon="7.9015718"><ele>273.0</ele><time>2026-05-06T13:27:00.88Z</time></trkpt><trkpt lat="44.7272891" lon="7.901651"><ele>273.0</ele><time>2026-05-06T13:27:01.88Z</time></trkpt><trkpt lat="44.7271151" lon="7.9017219"><ele>273.0</ele><time>2026-05-06T13:27:02.881Z</time></trkpt><trkpt lat="44.7269254" lon="7.9017713"><ele>273.0</ele><time>2026-05-06T13:27:03.881Z</time></trkpt><trkpt lat="44.7267289" lon="7.9018134"><ele>272.0</ele><time>2026-05-06T13:27:04.881Z</time></trkpt><trkpt lat="44.7265178" lon="7.9018653"><ele>271.0</ele><time>2026-05-06T13:27:05.881Z</time></trkpt><trkpt lat="44.7263032" lon="7.9019152"><ele>270.0</ele><time>2026-05-06T13:27:06.881Z</time></trkpt><trkpt lat="44.7260884" lon="7.9019654"><ele>268.5</ele><time>2026-05-06T13:27:07.881Z</time></trkpt><trkpt lat="44.7258633" lon="7.9020127"><ele>267.0</ele><time>2026-05-06T13:27:08.881Z</time></trkpt><trkpt lat="44.7256369" lon="7.9020622"><ele>267.0</ele><time>2026-05-06T13:27:09.88Z</time></trkpt><trkpt lat="44.7254079" lon="7.9021118"><ele>267.0</ele><time>2026-05-06T13:27:10.881Z</time></trkpt><trkpt lat="44.7251896" lon="7.9021593"><ele>264.6666666666667</ele><time>2026-05-06T13:27:11.881Z</time></trkpt><trkpt lat="44.724973" lon="7.9022081"><ele>262.33333333333337</ele><time>2026-05-06T13:27:12.881Z</time></trkpt><trkpt lat="44.724757" lon="7.9022592"><ele>260.0</ele><time>2026-05-06T13:27:13.881Z</time></trkpt><trkpt lat="44.7245529" lon="7.9023127"><ele>260.0</ele><time>2026-05-06T13:27:14.881Z</time></trkpt><trkpt lat="44.7243465" lon="7.9023656"><ele>260.0</ele><time>2026-05-06T13:27:15.881Z</time></trkpt><trkpt lat="44.7241463" lon="7.9024204"><ele>260.0</ele><time>2026-05-06T13:27:16.881Z</time></trkpt><trkpt lat="44.7239468" lon="7.9024664"><ele>260.0</ele><time>2026-05-06T13:27:17.88Z</time></trkpt><trkpt lat="44.7237549" lon="7.9025132"><ele>260.0</ele><time>2026-05-06T13:27:18.881Z</time></trkpt><trkpt lat="44.7235743" lon="7.9025561"><ele>260.0</ele><time>2026-05-06T13:27:19.88Z</time></trkpt><trkpt lat="44.7233989" lon="7.9025884"><ele>257.6666666666667</ele><time>2026-05-06T13:27:20.881Z</time></trkpt><trkpt lat="44.7232326" lon="7.9026271"><ele>255.33333333333331</ele><time>2026-05-06T13:27:21.881Z</time></trkpt><trkpt lat="44.7230784" lon="7.9026576"><ele>253.0</ele><time>2026-05-06T13:27:22.881Z</time></trkpt><trkpt lat="44.7229203" lon="7.9026607"><ele>253.0</ele><time>2026-05-06T13:27:23.881Z</time></trkpt><trkpt lat="44.7227601" lon="7.9026275"><ele>253.0</ele><time>2026-05-06T13:27:24.881Z</time></trkpt><trkpt lat="44.7225933" lon="7.9025598"><ele>253.0</ele><time>2026-05-06T13:27:25.881Z</time></trkpt><trkpt lat="44.7224262" lon="7.9024584"><ele>254.33333333333331</ele><time>2026-05-06T13:27:26.881Z</time></trkpt><trkpt lat="44.7222636" lon="7.9023302"><ele>255.66666666666669</ele><time>2026-05-06T13:27:27.88Z</time></trkpt><trkpt lat="44.722115" lon="7.9021665"><ele>257.0</ele><time>2026-05-06T13:27:28.881Z</time></trkpt><trkpt lat="44.7219711" lon="7.9020014"><ele>257.6666666666667</ele><time>2026-05-06T13:27:29.881Z</time></trkpt><trkpt lat="44.7218389" lon="7.9018382"><ele>258.3333333333333</ele><time>2026-05-06T13:27:30.881Z</time></trkpt><trkpt lat="44.7217096" lon="7.9016702"><ele>259.0</ele><time>2026-05-06T13:27:31.88Z</time></trkpt><trkpt lat="44.7215977" lon="7.9014926"><ele>259.0</ele><time>2026-05-06T13:27:32.881Z</time></trkpt><trkpt lat="44.7215047" lon="7.9013005"><ele>259.0</ele><time>2026-05-06T13:27:33.881Z</time></trkpt><trkpt lat="44.7214303" lon="7.9010788"><ele>259.0</ele><time>2026-05-06T13:27:34.88Z</time></trkpt><trkpt lat="44.7213765" lon="7.9008373"><ele>260.0</ele><time>2026-05-06T13:27:35.881Z</time></trkpt><trkpt lat="44.7213539" lon="7.9005733"><ele>261.0</ele><time>2026-05-06T13:27:36.881Z</time></trkpt><trkpt lat="44.7213542" lon="7.900306"><ele>262.0</ele><time>2026-05-06T13:27:37.881Z</time></trkpt><trkpt lat="44.721335" lon="7.9000337"><ele>262.3333333333333</ele><time>2026-05-06T13:27:38.881Z</time></trkpt><trkpt lat="44.7213166" lon="7.8997671"><ele>262.6666666666667</ele><time>2026-05-06T13:27:39.881Z</time></trkpt><trkpt lat="44.7212783" lon="7.8995069"><ele>263.0</ele><time>2026-05-06T13:27:40.881Z</time></trkpt><trkpt lat="44.7212166" lon="7.8992463"><ele>264.6666666666667</ele><time>2026-05-06T13:27:41.881Z</time></trkpt><trkpt lat="44.7211417" lon="7.898991"><ele>266.3333333333333</ele><time>2026-05-06T13:27:42.88Z</time></trkpt><trkpt lat="44.7210623" lon="7.8987474"><ele>268.0</ele><time>2026-05-06T13:27:43.881Z</time></trkpt><trkpt lat="44.7209784" lon="7.8985029"><ele>265.0</ele><time>2026-05-06T13:27:44.881Z</time></trkpt><trkpt lat="44.7208871" lon="7.8982529"><ele>262.0</ele><time>2026-05-06T13:27:45.881Z</time></trkpt><trkpt lat="44.720798" lon="7.8980068"><ele>259.0</ele><time>2026-05-06T13:27:46.881Z</time></trkpt><trkpt lat="44.7207098" lon="7.897746"><ele>259.3333333333333</ele><time>2026-05-06T13:27:47.881Z</time></trkpt><trkpt lat="44.7206281" lon="7.8974958"><ele>259.6666666666667</ele><time>2026-05-06T13:27:48.881Z</time></trkpt><trkpt lat="44.7205474" lon="7.8972455"><ele>260.0</ele><time>2026-05-06T13:27:49.881Z</time></trkpt><trkpt lat="44.7204653" lon="7.8969962"><ele>260.0</ele><time>2026-05-06T13:27:50.881Z</time></trkpt><trkpt lat="44.7203834" lon="7.8967398"><ele>260.0</ele><time>2026-05-06T13:27:51.881Z</time></trkpt><trkpt lat="44.7203069" lon="7.8964791"><ele>260.0</ele><time>2026-05-06T13:27:52.88Z</time></trkpt><trkpt lat="44.720224" lon="7.8962196"><ele>262.33333333333337</ele><time>2026-05-06T13:27:53.881Z</time></trkpt><trkpt lat="44.7201407" lon="7.8959624"><ele>264.6666666666667</ele><time>2026-05-06T13:27:54.881Z</time></trkpt><trkpt lat="44.7200532" lon="7.8957108"><ele>267.0</ele><time>2026-05-06T13:27:55.881Z</time></trkpt><trkpt lat="44.7199683" lon="7.8954561"><ele>267.0</ele><time>2026-05-06T13:27:56.881Z</time></trkpt><trkpt lat="44.7198896" lon="7.8952101"><ele>267.0</ele><time>2026-05-06T13:27:57.881Z</time></trkpt><trkpt lat="44.7197979" lon="7.8949644"><ele>267.0</ele><time>2026-05-06T13:27:58.881Z</time></trkpt><trkpt lat="44.7197015" lon="7.8947242"><ele>271.0</ele><time>2026-05-06T13:27:59.881Z</time></trkpt><trkpt lat="44.719575" lon="7.8944939"><ele>275.0</ele><time>2026-05-06T13:28:00.88Z</time></trkpt><trkpt lat="44.719442" lon="7.8942786"><ele>279.0</ele><time>2026-05-06T13:28:01.881Z</time></trkpt><trkpt lat="44.7193097" lon="7.8940524"><ele>279.0</ele><time>2026-05-06T13:28:02.881Z</time></trkpt><trkpt lat="44.719183" lon="7.8938341"><ele>279.0</ele><time>2026-05-06T13:28:03.881Z</time></trkpt><trkpt lat="44.7190618" lon="7.8936272"><ele>279.0</ele><time>2026-05-06T13:28:04.881Z</time></trkpt><trkpt lat="44.71894" lon="7.8934229"><ele>280.6666666666667</ele><time>2026-05-06T13:28:05.881Z</time></trkpt><trkpt lat="44.718812" lon="7.8932261"><ele>282.33333333333337</ele><time>2026-05-06T13:28:06.881Z</time></trkpt><trkpt lat="44.7186788" lon="7.8930364"><ele>284.0</ele><time>2026-05-06T13:28:07.881Z</time></trkpt><trkpt lat="44.7185311" lon="7.8928564"><ele>284.0</ele><time>2026-05-06T13:28:08.881Z</time></trkpt><trkpt lat="44.7183748" lon="7.8926854"><ele>284.0</ele><time>2026-05-06T13:28:09.881Z</time></trkpt><trkpt lat="44.7182089" lon="7.8925287"><ele>284.0</ele><time>2026-05-06T13:28:10.881Z</time></trkpt><trkpt lat="44.7180419" lon="7.8923707"><ele>284.6666666666667</ele><time>2026-05-06T13:28:11.881Z</time></trkpt><trkpt lat="44.7178787" lon="7.8922204"><ele>285.3333333333333</ele><time>2026-05-06T13:28:12.88Z</time></trkpt><trkpt lat="44.7177321" lon="7.892065"><ele>286.0</ele><time>2026-05-06T13:28:13.881Z</time></trkpt><trkpt lat="44.7175665" lon="7.8919374"><ele>287.0</ele><time>2026-05-06T13:28:14.88Z</time></trkpt><trkpt lat="44.7174099" lon="7.8918205"><ele>288.0</ele><time>2026-05-06T13:28:15.881Z</time></trkpt><trkpt lat="44.7172612" lon="7.8917188"><ele>289.0</ele><time>2026-05-06T13:28:16.881Z</time></trkpt><trkpt lat="44.7171149" lon="7.8916288"><ele>289.0</ele><time>2026-05-06T13:28:17.881Z</time></trkpt><trkpt lat="44.716988" lon="7.8915398"><ele>289.0</ele><time>2026-05-06T13:28:18.881Z</time></trkpt><trkpt lat="44.7168715" lon="7.8914568"><ele>289.0</ele><time>2026-05-06T13:28:19.88Z</time></trkpt><trkpt lat="44.7167553" lon="7.8913698"><ele>289.0</ele><time>2026-05-06T13:28:20.881Z</time></trkpt><trkpt lat="44.7166436" lon="7.8912871"><ele>288.0</ele><time>2026-05-06T13:28:21.881Z</time></trkpt><trkpt lat="44.7165269" lon="7.8912065"><ele>287.0</ele><time>2026-05-06T13:28:22.881Z</time></trkpt><trkpt lat="44.7164184" lon="7.8911544"><ele>286.0</ele><time>2026-05-06T13:28:23.881Z</time></trkpt><trkpt lat="44.7163102" lon="7.8911371"><ele>285.0</ele><time>2026-05-06T13:28:24.88Z</time></trkpt><trkpt lat="44.7162087" lon="7.8911667"><ele>285.0</ele><time>2026-05-06T13:28:25.881Z</time></trkpt><trkpt lat="44.7161199" lon="7.8912421"><ele>285.0</ele><time>2026-05-06T13:28:26.88Z</time></trkpt><trkpt lat="44.7160597" lon="7.8913648"><ele>285.0</ele><time>2026-05-06T13:28:27.881Z</time></trkpt><trkpt lat="44.7160362" lon="7.8914998"><ele>285.0</ele><time>2026-05-06T13:28:28.881Z</time></trkpt><trkpt lat="44.7160509" lon="7.8916576"><ele>285.0</ele><time>2026-05-06T13:28:29.881Z</time></trkpt><trkpt lat="44.7161045" lon="7.8918171"><ele>285.75</ele><time>2026-05-06T13:28:30.881Z</time></trkpt><trkpt lat="44.7161841" lon="7.8919613"><ele>286.5</ele><time>2026-05-06T13:28:31.881Z</time></trkpt><trkpt lat="44.7162921" lon="7.8920919"><ele>287.25</ele><time>2026-05-06T13:28:32.88Z</time></trkpt><trkpt lat="44.7164065" lon="7.8922277"><ele>288.0</ele><time>2026-05-06T13:28:33.881Z</time></trkpt><trkpt lat="44.7165375" lon="7.8923718"><ele>288.0</ele><time>2026-05-06T13:28:34.88Z</time></trkpt><trkpt lat="44.7166726" lon="7.8925096"><ele>288.0</ele><time>2026-05-06T13:28:35.881Z</time></trkpt><trkpt lat="44.7168008" lon="7.8926427"><ele>288.0</ele><time>2026-05-06T13:28:36.881Z</time></trkpt><trkpt lat="44.716931" lon="7.8927811"><ele>288.75</ele><time>2026-05-06T13:28:37.881Z</time></trkpt><trkpt lat="44.7170584" lon="7.8929046"><ele>289.5</ele><time>2026-05-06T13:28:38.881Z</time></trkpt><trkpt lat="44.7171689" lon="7.8930142"><ele>290.25</ele><time>2026-05-06T13:28:39.881Z</time></trkpt><trkpt lat="44.7172818" lon="7.8931128"><ele>291.0</ele><time>2026-05-06T13:28:40.881Z</time></trkpt><trkpt lat="44.717371" lon="7.8932052"><ele>291.0</ele><time>2026-05-06T13:28:41.881Z</time></trkpt><trkpt lat="44.7174538" lon="7.8932836"><ele>291.0</ele><time>2026-05-06T13:28:42.88Z</time></trkpt><trkpt lat="44.7175229" lon="7.8933627"><ele>291.0</ele><time>2026-05-06T13:28:43.881Z</time></trkpt><trkpt lat="44.717558" lon="7.8934532"><ele>291.0</ele><time>2026-05-06T13:28:44.881Z</time></trkpt><trkpt lat="44.7175619" lon="7.8935588"><ele>291.0</ele><time>2026-05-06T13:28:45.88Z</time></trkpt><trkpt lat="44.7175271" lon="7.8936494"><ele>291.0</ele><time>2026-05-06T13:28:46.881Z</time></trkpt><trkpt lat="44.7174671" lon="7.8936989"><ele>291.0</ele><time>2026-05-06T13:28:47.881Z</time></trkpt><trkpt lat="44.7173949" lon="7.8936784"><ele>291.0</ele><time>2026-05-06T13:28:48.881Z</time></trkpt><trkpt lat="44.7173206" lon="7.893608"><ele>291.0</ele><time>2026-05-06T13:28:49.881Z</time></trkpt><trkpt lat="44.7172378" lon="7.8935"><ele>291.0</ele><time>2026-05-06T13:28:50.88Z</time></trkpt><trkpt lat="44.7171428" lon="7.8933859"><ele>291.0</ele><time>2026-05-06T13:28:51.881Z</time></trkpt><trkpt lat="44.7170411" lon="7.8932602"><ele>291.0</ele><time>2026-05-06T13:28:52.881Z</time></trkpt><trkpt lat="44.7169457" lon="7.8931506"><ele>291.0</ele><time>2026-05-06T13:28:53.881Z</time></trkpt><trkpt lat="44.7168485" lon="7.8930371"><ele>291.0</ele><time>2026-05-06T13:28:54.88Z</time></trkpt><trkpt lat="44.716752" lon="7.8929387"><ele>291.0</ele><time>2026-05-06T13:28:55.88Z</time></trkpt><trkpt lat="44.7166547" lon="7.8928436"><ele>290.25</ele><time>2026-05-06T13:28:56.881Z</time></trkpt><trkpt lat="44.7165538" lon="7.8927458"><ele>289.5</ele><time>2026-05-06T13:28:57.881Z</time></trkpt><trkpt lat="44.7164506" lon="7.892647"><ele>288.75</ele><time>2026-05-06T13:28:58.881Z</time></trkpt><trkpt lat="44.716348" lon="7.8925455"><ele>288.0</ele><time>2026-05-06T13:28:59.881Z</time></trkpt><trkpt lat="44.7162476" lon="7.8924518"><ele>288.0</ele><time>2026-05-06T13:29:00.881Z</time></trkpt><trkpt lat="44.7161447" lon="7.8923505"><ele>288.0</ele><time>2026-05-06T13:29:01.881Z</time></trkpt><trkpt lat="44.7160435" lon="7.8922462"><ele>288.0</ele><time>2026-05-06T13:29:02.88Z</time></trkpt><trkpt lat="44.7159294" lon="7.892142"><ele>288.0</ele><time>2026-05-06T13:29:03.881Z</time></trkpt><trkpt lat="44.7158081" lon="7.8920456"><ele>294.25</ele><time>2026-05-06T13:29:04.881Z</time></trkpt><trkpt lat="44.7156895" lon="7.8919671"><ele>300.5</ele><time>2026-05-06T13:29:05.881Z</time></trkpt><trkpt lat="44.715574" lon="7.8918978"><ele>306.75</ele><time>2026-05-06T13:29:06.88Z</time></trkpt><trkpt lat="44.7154676" lon="7.8918317"><ele>313.0</ele><time>2026-05-06T13:29:07.881Z</time></trkpt><trkpt lat="44.7153594" lon="7.8917668"><ele>312.8</ele><time>2026-05-06T13:29:08.881Z</time></trkpt><trkpt lat="44.7152488" lon="7.8917024"><ele>312.6</ele><time>2026-05-06T13:29:09.881Z</time></trkpt><trkpt lat="44.7151422" lon="7.8916406"><ele>312.4</ele><time>2026-05-06T13:29:10.88Z</time></trkpt><trkpt lat="44.7150441" lon="7.8915936"><ele>312.2</ele><time>2026-05-06T13:29:11.881Z</time></trkpt><trkpt lat="44.7149459" lon="7.8915348"><ele>312.0</ele><time>2026-05-06T13:29:12.881Z</time></trkpt><trkpt lat="44.7148475" lon="7.8914591"><ele>312.0</ele><time>2026-05-06T13:29:13.881Z</time></trkpt><trkpt lat="44.7147594" lon="7.891375"><ele>312.0</ele><time>2026-05-06T13:29:14.881Z</time></trkpt><trkpt lat="44.714682" lon="7.8912845"><ele>312.0</ele><time>2026-05-06T13:29:15.881Z</time></trkpt><trkpt lat="44.7146118" lon="7.8911972"><ele>312.0</ele><time>2026-05-06T13:29:16.881Z</time></trkpt><trkpt lat="44.7145587" lon="7.8910986"><ele>312.0</ele><time>2026-05-06T13:29:17.881Z</time></trkpt><trkpt lat="44.7145145" lon="7.8909944"><ele>313.6</ele><time>2026-05-06T13:29:18.881Z</time></trkpt><trkpt lat="44.7144658" lon="7.890875"><ele>315.2</ele><time>2026-05-06T13:29:19.881Z</time></trkpt><trkpt lat="44.7144208" lon="7.8907484"><ele>316.8</ele><time>2026-05-06T13:29:20.881Z</time></trkpt><trkpt lat="44.7143772" lon="7.8906223"><ele>318.4</ele><time>2026-05-06T13:29:21.881Z</time></trkpt><trkpt lat="44.7143409" lon="7.8904893"><ele>320.0</ele><time>2026-05-06T13:29:22.88Z</time></trkpt><trkpt lat="44.714319" lon="7.890365"><ele>316.2</ele><time>2026-05-06T13:29:23.88Z</time></trkpt><trkpt lat="44.7142908" lon="7.890241"><ele>312.4</ele><time>2026-05-06T13:29:24.88Z</time></trkpt><trkpt lat="44.7142702" lon="7.8901085"><ele>308.6</ele><time>2026-05-06T13:29:25.881Z</time></trkpt><trkpt lat="44.7142496" lon="7.8899757"><ele>304.8</ele><time>2026-05-06T13:29:26.881Z</time></trkpt><trkpt lat="44.7142202" lon="7.8898579"><ele>301.0</ele><time>2026-05-06T13:29:27.881Z</time></trkpt><trkpt lat="44.71419" lon="7.8897226"><ele>301.0</ele><time>2026-05-06T13:29:28.881Z</time></trkpt><trkpt lat="44.7141449" lon="7.8895886"><ele>301.0</ele><time>2026-05-06T13:29:29.881Z</time></trkpt><trkpt lat="44.7140758" lon="7.8894741"><ele>301.0</ele><time>2026-05-06T13:29:30.88Z</time></trkpt><trkpt lat="44.7139977" lon="7.889388"><ele>301.0</ele><time>2026-05-06T13:29:31.881Z</time></trkpt><trkpt lat="44.7139146" lon="7.8893385"><ele>301.0</ele><time>2026-05-06T13:29:32.881Z</time></trkpt><trkpt lat="44.7138352" lon="7.8892866"><ele>299.8</ele><time>2026-05-06T13:29:33.881Z</time></trkpt><trkpt lat="44.7137532" lon="7.8892463"><ele>298.6</ele><time>2026-05-06T13:29:34.88Z</time></trkpt><trkpt lat="44.7136675" lon="7.8892022"><ele>297.4</ele><time>2026-05-06T13:29:35.881Z</time></trkpt><trkpt lat="44.7135873" lon="7.8891358"><ele>296.2</ele><time>2026-05-06T13:29:36.881Z</time></trkpt><trkpt lat="44.7135151" lon="7.8890446"><ele>295.0</ele><time>2026-05-06T13:29:37.881Z</time></trkpt><trkpt lat="44.7134469" lon="7.8889289"><ele>295.0</ele><time>2026-05-06T13:29:38.881Z</time></trkpt><trkpt lat="44.713401" lon="7.8887977"><ele>295.0</ele><time>2026-05-06T13:29:39.881Z</time></trkpt><trkpt lat="44.7133729" lon="7.8886741"><ele>295.0</ele><time>2026-05-06T13:29:40.881Z</time></trkpt><trkpt lat="44.7133601" lon="7.8885581"><ele>295.0</ele><time>2026-05-06T13:29:41.881Z</time></trkpt><trkpt lat="44.7133674" lon="7.8884453"><ele>295.0</ele><time>2026-05-06T13:29:42.881Z</time></trkpt><trkpt lat="44.7133869" lon="7.8883318"><ele>295.0</ele><time>2026-05-06T13:29:43.881Z</time></trkpt><trkpt lat="44.7134236" lon="7.888222"><ele>295.0</ele><time>2026-05-06T13:29:44.881Z</time></trkpt><trkpt lat="44.713464" lon="7.8881095"><ele>295.0</ele><time>2026-05-06T13:29:45.881Z</time></trkpt><trkpt lat="44.7135019" lon="7.8880037"><ele>295.0</ele><time>2026-05-06T13:29:46.881Z</time></trkpt><trkpt lat="44.7135443" lon="7.8879222"><ele>295.0</ele><time>2026-05-06T13:29:47.881Z</time></trkpt><trkpt lat="44.7135859" lon="7.8878388"><ele>295.0</ele><time>2026-05-06T13:29:48.88Z</time></trkpt><trkpt lat="44.7136653" lon="7.8876939"><ele>295.0</ele><time>2026-05-06T13:29:50.881Z</time></trkpt><trkpt lat="44.7137085" lon="7.8875962"><ele>297.0</ele><time>2026-05-06T13:29:51.881Z</time></trkpt><trkpt lat="44.713755" lon="7.8874972"><ele>299.0</ele><time>2026-05-06T13:29:52.88Z</time></trkpt><trkpt lat="44.713816" lon="7.8873843"><ele>301.0</ele><time>2026-05-06T13:29:53.881Z</time></trkpt><trkpt lat="44.7138838" lon="7.8872601"><ele>303.0</ele><time>2026-05-06T13:29:54.881Z</time></trkpt><trkpt lat="44.7139505" lon="7.8871151"><ele>305.0</ele><time>2026-05-06T13:29:55.881Z</time></trkpt><trkpt lat="44.7140228" lon="7.8869612"><ele>305.0</ele><time>2026-05-06T13:29:56.881Z</time></trkpt><trkpt lat="44.7141029" lon="7.8868118"><ele>305.0</ele><time>2026-05-06T13:29:57.881Z</time></trkpt><trkpt lat="44.7141854" lon="7.8866658"><ele>305.0</ele><time>2026-05-06T13:29:58.881Z</time></trkpt><trkpt lat="44.7142671" lon="7.8865311"><ele>305.0</ele><time>2026-05-06T13:29:59.881Z</time></trkpt><trkpt lat="44.7143695" lon="7.8864141"><ele>306.25</ele><time>2026-05-06T13:30:00.881Z</time></trkpt><trkpt lat="44.7144744" lon="7.8863067"><ele>307.5</ele><time>2026-05-06T13:30:01.881Z</time></trkpt><trkpt lat="44.7145942" lon="7.8862092"><ele>308.75</ele><time>2026-05-06T13:30:02.88Z</time></trkpt><trkpt lat="44.714723" lon="7.8861062"><ele>310.0</ele><time>2026-05-06T13:30:03.881Z</time></trkpt><trkpt lat="44.7148522" lon="7.8859957"><ele>310.5</ele><time>2026-05-06T13:30:04.881Z</time></trkpt><trkpt lat="44.7149785" lon="7.8858897"><ele>311.0</ele><time>2026-05-06T13:30:05.881Z</time></trkpt><trkpt lat="44.7151019" lon="7.8857758"><ele>311.5</ele><time>2026-05-06T13:30:06.881Z</time></trkpt><trkpt lat="44.7152107" lon="7.8856381"><ele>312.0</ele><time>2026-05-06T13:30:07.881Z</time></trkpt><trkpt lat="44.7153171" lon="7.8854821"><ele>312.0</ele><time>2026-05-06T13:30:08.881Z</time></trkpt><trkpt lat="44.7154149" lon="7.8853082"><ele>312.0</ele><time>2026-05-06T13:30:09.881Z</time></trkpt><trkpt lat="44.7155103" lon="7.8851516"><ele>312.0</ele><time>2026-05-06T13:30:10.881Z</time></trkpt><trkpt lat="44.7155957" lon="7.8849971"><ele>312.0</ele><time>2026-05-06T13:30:11.881Z</time></trkpt><trkpt lat="44.7156775" lon="7.88485"><ele>308.75</ele><time>2026-05-06T13:30:12.881Z</time></trkpt><trkpt lat="44.7157506" lon="7.8847134"><ele>305.5</ele><time>2026-05-06T13:30:13.881Z</time></trkpt><trkpt lat="44.7158115" lon="7.8845759"><ele>302.25</ele><time>2026-05-06T13:30:14.881Z</time></trkpt><trkpt lat="44.7158546" lon="7.8844361"><ele>299.0</ele><time>2026-05-06T13:30:15.881Z</time></trkpt><trkpt lat="44.7158637" lon="7.8842875"><ele>296.25</ele><time>2026-05-06T13:30:16.881Z</time></trkpt><trkpt lat="44.7158503" lon="7.8841427"><ele>293.5</ele><time>2026-05-06T13:30:17.881Z</time></trkpt><trkpt lat="44.7158179" lon="7.8839929"><ele>290.75</ele><time>2026-05-06T13:30:18.881Z</time></trkpt><trkpt lat="44.7157616" lon="7.8838524"><ele>288.0</ele><time>2026-05-06T13:30:19.881Z</time></trkpt><trkpt lat="44.7156884" lon="7.883711"><ele>288.0</ele><time>2026-05-06T13:30:20.881Z</time></trkpt><trkpt lat="44.715606" lon="7.8835879"><ele>288.0</ele><time>2026-05-06T13:30:21.881Z</time></trkpt><trkpt lat="44.7155246" lon="7.8834688"><ele>288.0</ele><time>2026-05-06T13:30:22.881Z</time></trkpt><trkpt lat="44.7154447" lon="7.8833478"><ele>288.0</ele><time>2026-05-06T13:30:23.881Z</time></trkpt><trkpt lat="44.7153666" lon="7.8832256"><ele>288.0</ele><time>2026-05-06T13:30:24.881Z</time></trkpt><trkpt lat="44.7152862" lon="7.8831112"><ele>288.0</ele><time>2026-05-06T13:30:25.88Z</time></trkpt><trkpt lat="44.7151955" lon="7.8829887"><ele>288.0</ele><time>2026-05-06T13:30:26.88Z</time></trkpt><trkpt lat="44.7151031" lon="7.8828693"><ele>288.0</ele><time>2026-05-06T13:30:27.881Z</time></trkpt><trkpt lat="44.7150226" lon="7.8827241"><ele>285.75</ele><time>2026-05-06T13:30:28.881Z</time></trkpt><trkpt lat="44.714936" lon="7.8825886"><ele>283.5</ele><time>2026-05-06T13:30:29.881Z</time></trkpt><trkpt lat="44.7148503" lon="7.88246"><ele>281.25</ele><time>2026-05-06T13:30:30.881Z</time></trkpt><trkpt lat="44.7147678" lon="7.882337"><ele>279.0</ele><time>2026-05-06T13:30:31.881Z</time></trkpt><trkpt lat="44.7146857" lon="7.8822247"><ele>279.0</ele><time>2026-05-06T13:30:32.881Z</time></trkpt><trkpt lat="44.7146134" lon="7.882114"><ele>279.0</ele><time>2026-05-06T13:30:33.881Z</time></trkpt><trkpt lat="44.7145461" lon="7.8819971"><ele>279.0</ele><time>2026-05-06T13:30:34.88Z</time></trkpt><trkpt lat="44.7144839" lon="7.8818681"><ele>279.0</ele><time>2026-05-06T13:30:35.881Z</time></trkpt><trkpt lat="44.7144362" lon="7.8817199"><ele>279.0</ele><time>2026-05-06T13:30:36.88Z</time></trkpt><trkpt lat="44.7144105" lon="7.8815564"><ele>277.25</ele><time>2026-05-06T13:30:37.881Z</time></trkpt><trkpt lat="44.7143956" lon="7.8813862"><ele>275.5</ele><time>2026-05-06T13:30:38.881Z</time></trkpt><trkpt lat="44.7143864" lon="7.881213"><ele>273.75</ele><time>2026-05-06T13:30:39.881Z</time></trkpt><trkpt lat="44.7143773" lon="7.881031"><ele>272.0</ele><time>2026-05-06T13:30:40.88Z</time></trkpt><trkpt lat="44.7143541" lon="7.8808588"><ele>272.0</ele><time>2026-05-06T13:30:41.881Z</time></trkpt><trkpt lat="44.7143215" lon="7.8807043"><ele>272.0</ele><time>2026-05-06T13:30:42.881Z</time></trkpt><trkpt lat="44.7142775" lon="7.8805682"><ele>272.0</ele><time>2026-05-06T13:30:43.881Z</time></trkpt><trkpt lat="44.7142325" lon="7.8804284"><ele>272.0</ele><time>2026-05-06T13:30:44.881Z</time></trkpt><trkpt lat="44.7141818" lon="7.8802978"><ele>272.0</ele><time>2026-05-06T13:30:45.881Z</time></trkpt><trkpt lat="44.7141311" lon="7.8801556"><ele>273.4</ele><time>2026-05-06T13:30:46.881Z</time></trkpt><trkpt lat="44.714082" lon="7.8800233"><ele>274.79999999999995</ele><time>2026-05-06T13:30:47.881Z</time></trkpt><trkpt lat="44.7140393" lon="7.8798903"><ele>276.2</ele><time>2026-05-06T13:30:48.881Z</time></trkpt><trkpt lat="44.7139846" lon="7.8797537"><ele>277.59999999999997</ele><time>2026-05-06T13:30:49.881Z</time></trkpt><trkpt lat="44.7139203" lon="7.8796301"><ele>279.0</ele><time>2026-05-06T13:30:50.881Z</time></trkpt><trkpt lat="44.7138377" lon="7.8795259"><ele>279.0</ele><time>2026-05-06T13:30:51.881Z</time></trkpt><trkpt lat="44.7137356" lon="7.8794551"><ele>279.0</ele><time>2026-05-06T13:30:52.881Z</time></trkpt><trkpt lat="44.7136182" lon="7.8794166"><ele>279.0</ele><time>2026-05-06T13:30:53.881Z</time></trkpt><trkpt lat="44.7135092" lon="7.8793905"><ele>279.0</ele><time>2026-05-06T13:30:54.881Z</time></trkpt><trkpt lat="44.7134045" lon="7.879359"><ele>277.5</ele><time>2026-05-06T13:30:55.881Z</time></trkpt><trkpt lat="44.713302" lon="7.879298"><ele>276.0</ele><time>2026-05-06T13:30:56.881Z</time></trkpt><trkpt lat="44.7132054" lon="7.8792168"><ele>274.5</ele><time>2026-05-06T13:30:57.881Z</time></trkpt><trkpt lat="44.7131186" lon="7.879112"><ele>273.0</ele><time>2026-05-06T13:30:58.881Z</time></trkpt><trkpt lat="44.7130646" lon="7.878974"><ele>273.0</ele><time>2026-05-06T13:30:59.881Z</time></trkpt><trkpt lat="44.7130254" lon="7.8788223"><ele>273.0</ele><time>2026-05-06T13:31:00.881Z</time></trkpt><trkpt lat="44.7129881" lon="7.8786712"><ele>273.0</ele><time>2026-05-06T13:31:01.881Z</time></trkpt><trkpt lat="44.7129421" lon="7.8785232"><ele>273.0</ele><time>2026-05-06T13:31:02.881Z</time></trkpt><trkpt lat="44.7128847" lon="7.8784029"><ele>273.0</ele><time>2026-05-06T13:31:03.881Z</time></trkpt><trkpt lat="44.7128035" lon="7.878301"><ele>272.0</ele><time>2026-05-06T13:31:04.88Z</time></trkpt><trkpt lat="44.7127022" lon="7.878233"><ele>271.0</ele><time>2026-05-06T13:31:05.88Z</time></trkpt><trkpt lat="44.7125926" lon="7.8781982"><ele>270.0</ele><time>2026-05-06T13:31:06.881Z</time></trkpt><trkpt lat="44.7124801" lon="7.8781938"><ele>269.0</ele><time>2026-05-06T13:31:07.881Z</time></trkpt><trkpt lat="44.712366" lon="7.8782026"><ele>269.0</ele><time>2026-05-06T13:31:08.881Z</time></trkpt><trkpt lat="44.7122545" lon="7.8782225"><ele>269.0</ele><time>2026-05-06T13:31:09.88Z</time></trkpt><trkpt lat="44.7121556" lon="7.8782284"><ele>269.0</ele><time>2026-05-06T13:31:10.88Z</time></trkpt><trkpt lat="44.712059" lon="7.8782333"><ele>269.0</ele><time>2026-05-06T13:31:11.881Z</time></trkpt><trkpt lat="44.7119711" lon="7.8782182"><ele>269.0</ele><time>2026-05-06T13:31:12.881Z</time></trkpt><trkpt lat="44.7118838" lon="7.8781786"><ele>267.4</ele><time>2026-05-06T13:31:13.88Z</time></trkpt><trkpt lat="44.7118031" lon="7.8781081"><ele>265.79999999999995</ele><time>2026-05-06T13:31:14.881Z</time></trkpt><trkpt lat="44.7117206" lon="7.8780092"><ele>264.20000000000005</ele><time>2026-05-06T13:31:15.881Z</time></trkpt><trkpt lat="44.7116373" lon="7.8779081"><ele>262.6</ele><time>2026-05-06T13:31:16.881Z</time></trkpt><trkpt lat="44.7115511" lon="7.8778194"><ele>261.0</ele><time>2026-05-06T13:31:17.881Z</time></trkpt><trkpt lat="44.7114572" lon="7.877758"><ele>261.0</ele><time>2026-05-06T13:31:18.881Z</time></trkpt><trkpt lat="44.7113421" lon="7.877731"><ele>261.0</ele><time>2026-05-06T13:31:19.88Z</time></trkpt><trkpt lat="44.7112332" lon="7.8777371"><ele>261.0</ele><time>2026-05-06T13:31:20.881Z</time></trkpt><trkpt lat="44.7111157" lon="7.8777851"><ele>261.0</ele><time>2026-05-06T13:31:21.881Z</time></trkpt><trkpt lat="44.710997" lon="7.8778568"><ele>259.75</ele><time>2026-05-06T13:31:22.881Z</time></trkpt><trkpt lat="44.7108842" lon="7.8779361"><ele>258.5</ele><time>2026-05-06T13:31:23.881Z</time></trkpt><trkpt lat="44.7107821" lon="7.8780209"><ele>257.25</ele><time>2026-05-06T13:31:24.881Z</time></trkpt><trkpt lat="44.7106848" lon="7.878081"><ele>256.0</ele><time>2026-05-06T13:31:25.881Z</time></trkpt><trkpt lat="44.7105825" lon="7.8781199"><ele>256.0</ele><time>2026-05-06T13:31:26.881Z</time></trkpt><trkpt lat="44.7104692" lon="7.8781386"><ele>256.0</ele><time>2026-05-06T13:31:27.881Z</time></trkpt><trkpt lat="44.7103549" lon="7.878126"><ele>256.0</ele><time>2026-05-06T13:31:28.88Z</time></trkpt><trkpt lat="44.7102384" lon="7.8780722"><ele>256.0</ele><time>2026-05-06T13:31:29.881Z</time></trkpt><trkpt lat="44.7101235" lon="7.8780063"><ele>255.0</ele><time>2026-05-06T13:31:30.881Z</time></trkpt><trkpt lat="44.7099957" lon="7.8779598"><ele>254.0</ele><time>2026-05-06T13:31:31.88Z</time></trkpt><trkpt lat="44.7098622" lon="7.8779286"><ele>253.0</ele><time>2026-05-06T13:31:32.88Z</time></trkpt><trkpt lat="44.709745" lon="7.8779133"><ele>252.0</ele><time>2026-05-06T13:31:33.881Z</time></trkpt><trkpt lat="44.7096422" lon="7.8779126"><ele>252.0</ele><time>2026-05-06T13:31:34.881Z</time></trkpt><trkpt lat="44.7095455" lon="7.8779391"><ele>252.0</ele><time>2026-05-06T13:31:35.88Z</time></trkpt><trkpt lat="44.7094553" lon="7.8779923"><ele>252.0</ele><time>2026-05-06T13:31:36.881Z</time></trkpt><trkpt lat="44.7093743" lon="7.8780815"><ele>252.0</ele><time>2026-05-06T13:31:37.881Z</time></trkpt><trkpt lat="44.7092898" lon="7.8781819"><ele>252.0</ele><time>2026-05-06T13:31:38.881Z</time></trkpt><trkpt lat="44.7091888" lon="7.8782736"><ele>252.75</ele><time>2026-05-06T13:31:39.881Z</time></trkpt><trkpt lat="44.7090841" lon="7.8783752"><ele>253.5</ele><time>2026-05-06T13:31:40.881Z</time></trkpt><trkpt lat="44.7089791" lon="7.8784861"><ele>254.25</ele><time>2026-05-06T13:31:41.88Z</time></trkpt><trkpt lat="44.7088836" lon="7.8785953"><ele>255.0</ele><time>2026-05-06T13:31:42.881Z</time></trkpt><trkpt lat="44.7087741" lon="7.8787098"><ele>252.75</ele><time>2026-05-06T13:31:43.881Z</time></trkpt><trkpt lat="44.7086591" lon="7.878811"><ele>250.5</ele><time>2026-05-06T13:31:44.881Z</time></trkpt><trkpt lat="44.7085274" lon="7.8788858"><ele>248.25</ele><time>2026-05-06T13:31:45.881Z</time></trkpt><trkpt lat="44.7083962" lon="7.8789451"><ele>246.0</ele><time>2026-05-06T13:31:46.881Z</time></trkpt><trkpt lat="44.7082607" lon="7.8790134"><ele>246.0</ele><time>2026-05-06T13:31:47.881Z</time></trkpt><trkpt lat="44.7081262" lon="7.8790739"><ele>246.0</ele><time>2026-05-06T13:31:48.881Z</time></trkpt><trkpt lat="44.7080003" lon="7.8791428"><ele>246.0</ele><time>2026-05-06T13:31:49.881Z</time></trkpt><trkpt lat="44.7078793" lon="7.8792056"><ele>246.0</ele><time>2026-05-06T13:31:50.881Z</time></trkpt><trkpt lat="44.707763" lon="7.8792629"><ele>243.5</ele><time>2026-05-06T13:31:51.881Z</time></trkpt><trkpt lat="44.7076422" lon="7.879307"><ele>241.0</ele><time>2026-05-06T13:31:52.881Z</time></trkpt><trkpt lat="44.7075157" lon="7.8793266"><ele>238.5</ele><time>2026-05-06T13:31:53.881Z</time></trkpt><trkpt lat="44.7073952" lon="7.8793293"><ele>236.0</ele><time>2026-05-06T13:31:54.881Z</time></trkpt><trkpt lat="44.7072721" lon="7.8793186"><ele>236.0</ele><time>2026-05-06T13:31:55.881Z</time></trkpt><trkpt lat="44.7071672" lon="7.8792967"><ele>236.00000000000003</ele><time>2026-05-06T13:31:56.881Z</time></trkpt><trkpt lat="44.7070616" lon="7.8792692"><ele>236.00000000000003</ele><time>2026-05-06T13:31:57.881Z</time></trkpt><trkpt lat="44.7069572" lon="7.8792304"><ele>236.0</ele><time>2026-05-06T13:31:58.881Z</time></trkpt><trkpt lat="44.7068532" lon="7.8791976"><ele>236.0</ele><time>2026-05-06T13:31:59.881Z</time></trkpt><trkpt lat="44.7067473" lon="7.8791717"><ele>235.75</ele><time>2026-05-06T13:32:00.88Z</time></trkpt><trkpt lat="44.7066366" lon="7.8791691"><ele>235.5</ele><time>2026-05-06T13:32:01.881Z</time></trkpt><trkpt lat="44.7065283" lon="7.8791926"><ele>235.25</ele><time>2026-05-06T13:32:02.881Z</time></trkpt><trkpt lat="44.706417" lon="7.879252"><ele>235.0</ele><time>2026-05-06T13:32:03.88Z</time></trkpt><trkpt lat="44.7063072" lon="7.8793354"><ele>234.75</ele><time>2026-05-06T13:32:04.88Z</time></trkpt><trkpt lat="44.7061959" lon="7.8794403"><ele>234.5</ele><time>2026-05-06T13:32:05.881Z</time></trkpt><trkpt lat="44.706086" lon="7.8795487"><ele>234.25</ele><time>2026-05-06T13:32:06.881Z</time></trkpt><trkpt lat="44.7059679" lon="7.8796514"><ele>234.0</ele><time>2026-05-06T13:32:07.881Z</time></trkpt><trkpt lat="44.7058488" lon="7.8797586"><ele>233.25</ele><time>2026-05-06T13:32:08.881Z</time></trkpt><trkpt lat="44.7057221" lon="7.8798703"><ele>232.5</ele><time>2026-05-06T13:32:09.88Z</time></trkpt><trkpt lat="44.7055985" lon="7.8799836"><ele>231.75</ele><time>2026-05-06T13:32:10.881Z</time></trkpt><trkpt lat="44.7054771" lon="7.8800939"><ele>231.0</ele><time>2026-05-06T13:32:11.88Z</time></trkpt><trkpt lat="44.7053575" lon="7.8802142"><ele>231.25</ele><time>2026-05-06T13:32:12.881Z</time></trkpt><trkpt lat="44.7052338" lon="7.8803275"><ele>231.5</ele><time>2026-05-06T13:32:13.881Z</time></trkpt><trkpt lat="44.7051178" lon="7.8804392"><ele>231.75</ele><time>2026-05-06T13:32:14.881Z</time></trkpt><trkpt lat="44.7050006" lon="7.8805617"><ele>232.0</ele><time>2026-05-06T13:32:15.88Z</time></trkpt><trkpt lat="44.7048794" lon="7.8806759"><ele>232.0</ele><time>2026-05-06T13:32:16.881Z</time></trkpt><trkpt lat="44.7047624" lon="7.8807916"><ele>232.0</ele><time>2026-05-06T13:32:17.881Z</time></trkpt><trkpt lat="44.7046445" lon="7.8808987"><ele>232.0</ele><time>2026-05-06T13:32:18.881Z</time></trkpt><trkpt lat="44.7045174" lon="7.8809958"><ele>232.0</ele><time>2026-05-06T13:32:19.881Z</time></trkpt><trkpt lat="44.7043935" lon="7.8810891"><ele>231.25</ele><time>2026-05-06T13:32:20.881Z</time></trkpt><trkpt lat="44.7042716" lon="7.881185"><ele>230.5</ele><time>2026-05-06T13:32:21.88Z</time></trkpt><trkpt lat="44.7041466" lon="7.881276"><ele>229.75</ele><time>2026-05-06T13:32:22.881Z</time></trkpt><trkpt lat="44.7040212" lon="7.8813662"><ele>229.0</ele><time>2026-05-06T13:32:23.881Z</time></trkpt><trkpt lat="44.7038921" lon="7.8814628"><ele>229.0</ele><time>2026-05-06T13:32:24.88Z</time></trkpt><trkpt lat="44.7037638" lon="7.8815558"><ele>229.0</ele><time>2026-05-06T13:32:25.88Z</time></trkpt><trkpt lat="44.7036388" lon="7.8816564"><ele>229.0</ele><time>2026-05-06T13:32:26.881Z</time></trkpt><trkpt lat="44.7035177" lon="7.8817783"><ele>229.0</ele><time>2026-05-06T13:32:27.881Z</time></trkpt><trkpt lat="44.7034048" lon="7.8819087"><ele>228.33333333333331</ele><time>2026-05-06T13:32:28.881Z</time></trkpt><trkpt lat="44.7032867" lon="7.8820575"><ele>227.66666666666669</ele><time>2026-05-06T13:32:29.88Z</time></trkpt><trkpt lat="44.7031705" lon="7.8821992"><ele>227.0</ele><time>2026-05-06T13:32:30.881Z</time></trkpt><trkpt lat="44.7030581" lon="7.8823433"><ele>227.0</ele><time>2026-05-06T13:32:31.881Z</time></trkpt><trkpt lat="44.7029475" lon="7.8824851"><ele>227.0</ele><time>2026-05-06T13:32:32.881Z</time></trkpt><trkpt lat="44.7028306" lon="7.8826299"><ele>227.0</ele><time>2026-05-06T13:32:33.881Z</time></trkpt><trkpt lat="44.7027159" lon="7.8827668"><ele>226.75</ele><time>2026-05-06T13:32:34.881Z</time></trkpt><trkpt lat="44.7026063" lon="7.8829086"><ele>226.5</ele><time>2026-05-06T13:32:35.88Z</time></trkpt><trkpt lat="44.7024956" lon="7.8830481"><ele>226.25</ele><time>2026-05-06T13:32:36.881Z</time></trkpt><trkpt lat="44.7023829" lon="7.8831899"><ele>226.0</ele><time>2026-05-06T13:32:37.881Z</time></trkpt><trkpt lat="44.7022683" lon="7.8833299"><ele>225.5</ele><time>2026-05-06T13:32:38.881Z</time></trkpt><trkpt lat="44.7021606" lon="7.8834589"><ele>225.0</ele><time>2026-05-06T13:32:39.881Z</time></trkpt><trkpt lat="44.7020614" lon="7.88358"><ele>224.5</ele><time>2026-05-06T13:32:40.881Z</time></trkpt><trkpt lat="44.7019697" lon="7.8837001"><ele>224.0</ele><time>2026-05-06T13:32:41.88Z</time></trkpt><trkpt lat="44.7018719" lon="7.8838185"><ele>224.0</ele><time>2026-05-06T13:32:42.881Z</time></trkpt><trkpt lat="44.7017825" lon="7.8839409"><ele>224.0</ele><time>2026-05-06T13:32:43.88Z</time></trkpt><trkpt lat="44.7016887" lon="7.8840645"><ele>224.0</ele><time>2026-05-06T13:32:44.881Z</time></trkpt><trkpt lat="44.7015926" lon="7.8841915"><ele>224.0</ele><time>2026-05-06T13:32:45.88Z</time></trkpt><trkpt lat="44.7014889" lon="7.8843177"><ele>224.0</ele><time>2026-05-06T13:32:46.881Z</time></trkpt><trkpt lat="44.7013822" lon="7.8844477"><ele>224.0</ele><time>2026-05-06T13:32:47.881Z</time></trkpt><trkpt lat="44.7012714" lon="7.8845704"><ele>224.0</ele><time>2026-05-06T13:32:48.881Z</time></trkpt><trkpt lat="44.7011651" lon="7.8846953"><ele>224.0</ele><time>2026-05-06T13:32:49.881Z</time></trkpt><trkpt lat="44.7010693" lon="7.8848126"><ele>224.0</ele><time>2026-05-06T13:32:50.881Z</time></trkpt><trkpt lat="44.7009702" lon="7.8849244"><ele>224.0</ele><time>2026-05-06T13:32:51.881Z</time></trkpt><trkpt lat="44.700887" lon="7.8850265"><ele>224.0</ele><time>2026-05-06T13:32:52.881Z</time></trkpt><trkpt lat="44.7008024" lon="7.8851334"><ele>224.0</ele><time>2026-05-06T13:32:53.881Z</time></trkpt><trkpt lat="44.7007254" lon="7.8852302"><ele>223.83333333333334</ele><time>2026-05-06T13:32:54.881Z</time></trkpt><trkpt lat="44.7006579" lon="7.8853192"><ele>223.66666666666669</ele><time>2026-05-06T13:32:55.881Z</time></trkpt><trkpt lat="44.7006046" lon="7.8853905"><ele>223.5</ele><time>2026-05-06T13:32:56.881Z</time></trkpt><trkpt lat="44.7005571" lon="7.8854519"><ele>223.33333333333331</ele><time>2026-05-06T13:32:57.881Z</time></trkpt><trkpt lat="44.7004812" lon="7.885564"><ele>223.16666666666666</ele><time>2026-05-06T13:32:59.881Z</time></trkpt><trkpt lat="44.7004162" lon="7.8856504"><ele>223.0</ele><time>2026-05-06T13:33:01.881Z</time></trkpt><trkpt lat="44.7002995" lon="7.8857081"><ele>222.8</ele><time>2026-05-06T13:33:03.881Z</time></trkpt><trkpt lat="44.7002111" lon="7.8857288"><ele>222.60000000000002</ele><time>2026-05-06T13:33:04.881Z</time></trkpt><trkpt lat="44.7001194" lon="7.8857474"><ele>222.39999999999998</ele><time>2026-05-06T13:33:05.88Z</time></trkpt><trkpt lat="44.7000184" lon="7.8857725"><ele>222.2</ele><time>2026-05-06T13:33:06.881Z</time></trkpt><trkpt lat="44.6999015" lon="7.8858222"><ele>222.0</ele><time>2026-05-06T13:33:07.881Z</time></trkpt><trkpt lat="44.6997744" lon="7.8858942"><ele>221.75</ele><time>2026-05-06T13:33:08.88Z</time></trkpt><trkpt lat="44.6996471" lon="7.8859698"><ele>221.5</ele><time>2026-05-06T13:33:09.881Z</time></trkpt><trkpt lat="44.6995284" lon="7.8860486"><ele>221.25</ele><time>2026-05-06T13:33:10.881Z</time></trkpt><trkpt lat="44.6993996" lon="7.8861251"><ele>221.0</ele><time>2026-05-06T13:33:11.881Z</time></trkpt><trkpt lat="44.6992683" lon="7.886203"><ele>220.75</ele><time>2026-05-06T13:33:12.881Z</time></trkpt><trkpt lat="44.6991403" lon="7.8862834"><ele>220.5</ele><time>2026-05-06T13:33:13.881Z</time></trkpt><trkpt lat="44.6990119" lon="7.886367"><ele>220.25</ele><time>2026-05-06T13:33:14.881Z</time></trkpt><trkpt lat="44.6988879" lon="7.88646"><ele>220.0</ele><time>2026-05-06T13:33:15.881Z</time></trkpt><trkpt lat="44.6987691" lon="7.886542"><ele>220.0</ele><time>2026-05-06T13:33:16.881Z</time></trkpt><trkpt lat="44.6986456" lon="7.886626"><ele>220.0</ele><time>2026-05-06T13:33:17.881Z</time></trkpt><trkpt lat="44.6985347" lon="7.8867027"><ele>220.0</ele><time>2026-05-06T13:33:18.881Z</time></trkpt><trkpt lat="44.6984116" lon="7.8867806"><ele>220.0</ele><time>2026-05-06T13:33:19.881Z</time></trkpt><trkpt lat="44.6982948" lon="7.8868421"><ele>219.6</ele><time>2026-05-06T13:33:20.881Z</time></trkpt><trkpt lat="44.6981842" lon="7.8868911"><ele>219.2</ele><time>2026-05-06T13:33:21.881Z</time></trkpt><trkpt lat="44.6980824" lon="7.8869399"><ele>218.8</ele><time>2026-05-06T13:33:22.881Z</time></trkpt><trkpt lat="44.6979869" lon="7.886973"><ele>218.4</ele><time>2026-05-06T13:33:23.881Z</time></trkpt><trkpt lat="44.6978945" lon="7.8870108"><ele>218.0</ele><time>2026-05-06T13:33:24.881Z</time></trkpt><trkpt lat="44.6978127" lon="7.8870373"><ele>218.16666666666669</ele><time>2026-05-06T13:33:25.881Z</time></trkpt><trkpt lat="44.6977386" lon="7.8870707"><ele>218.33333333333334</ele><time>2026-05-06T13:33:26.881Z</time></trkpt><trkpt lat="44.6976723" lon="7.8870965"><ele>218.5</ele><time>2026-05-06T13:33:27.881Z</time></trkpt><trkpt lat="44.6975733" lon="7.8871312"><ele>218.66666666666669</ele><time>2026-05-06T13:33:29.881Z</time></trkpt><trkpt lat="44.6975106" lon="7.8871587"><ele>218.83333333333334</ele><time>2026-05-06T13:33:31.881Z</time></trkpt><trkpt lat="44.6974302" lon="7.887183"><ele>219.0</ele><time>2026-05-06T13:34:14.881Z</time></trkpt><trkpt lat="44.6973349" lon="7.8872269"><ele>219.0</ele><time>2026-05-06T13:34:16.881Z</time></trkpt><trkpt lat="44.6972684" lon="7.8873615"><ele>218.99999999999997</ele><time>2026-05-06T13:34:18.881Z</time></trkpt><trkpt lat="44.697243" lon="7.8874709"><ele>218.99999999999997</ele><time>2026-05-06T13:34:19.88Z</time></trkpt><trkpt lat="44.6972218" lon="7.8876061"><ele>219.0</ele><time>2026-05-06T13:34:20.881Z</time></trkpt><trkpt lat="44.6972037" lon="7.8877428"><ele>219.0</ele><time>2026-05-06T13:34:21.881Z</time></trkpt><trkpt lat="44.6971801" lon="7.887875"><ele>218.6</ele><time>2026-05-06T13:34:22.881Z</time></trkpt><trkpt lat="44.6971594" lon="7.8880147"><ele>218.2</ele><time>2026-05-06T13:34:23.88Z</time></trkpt><trkpt lat="44.6971334" lon="7.8881533"><ele>217.79999999999998</ele><time>2026-05-06T13:34:24.881Z</time></trkpt><trkpt lat="44.697112" lon="7.8883086"><ele>217.39999999999998</ele><time>2026-05-06T13:34:25.88Z</time></trkpt><trkpt lat="44.6970931" lon="7.8884753"><ele>217.0</ele><time>2026-05-06T13:34:26.881Z</time></trkpt><trkpt lat="44.6970693" lon="7.88864"><ele>216.75</ele><time>2026-05-06T13:34:27.881Z</time></trkpt><trkpt lat="44.6970449" lon="7.8888066"><ele>216.5</ele><time>2026-05-06T13:34:28.881Z</time></trkpt><trkpt lat="44.6970189" lon="7.8889896"><ele>216.25</ele><time>2026-05-06T13:34:29.881Z</time></trkpt><trkpt lat="44.6969918" lon="7.8891821"><ele>216.0</ele><time>2026-05-06T13:34:30.88Z</time></trkpt><trkpt lat="44.6969597" lon="7.8893845"><ele>216.0</ele><time>2026-05-06T13:34:31.881Z</time></trkpt><trkpt lat="44.69693" lon="7.8895882"><ele>216.0</ele><time>2026-05-06T13:34:32.881Z</time></trkpt><trkpt lat="44.6969072" lon="7.8897901"><ele>216.0</ele><time>2026-05-06T13:34:33.881Z</time></trkpt><trkpt lat="44.6968787" lon="7.8899997"><ele>216.0</ele><time>2026-05-06T13:34:34.881Z</time></trkpt><trkpt lat="44.696846" lon="7.8902161"><ele>215.66666666666669</ele><time>2026-05-06T13:34:35.881Z</time></trkpt><trkpt lat="44.6968163" lon="7.8904416"><ele>215.33333333333334</ele><time>2026-05-06T13:34:36.881Z</time></trkpt><trkpt lat="44.6967956" lon="7.8906668"><ele>215.0</ele><time>2026-05-06T13:34:37.881Z</time></trkpt><trkpt lat="44.6967655" lon="7.8908989"><ele>215.0</ele><time>2026-05-06T13:34:38.881Z</time></trkpt><trkpt lat="44.6967346" lon="7.8911245"><ele>215.0</ele><time>2026-05-06T13:34:39.881Z</time></trkpt><trkpt lat="44.696704" lon="7.8913455"><ele>215.0</ele><time>2026-05-06T13:34:40.881Z</time></trkpt><trkpt lat="44.6966722" lon="7.8915646"><ele>214.66666666666669</ele><time>2026-05-06T13:34:41.881Z</time></trkpt><trkpt lat="44.6966342" lon="7.8917856"><ele>214.33333333333331</ele><time>2026-05-06T13:34:42.881Z</time></trkpt><trkpt lat="44.6965978" lon="7.8920064"><ele>214.0</ele><time>2026-05-06T13:34:43.881Z</time></trkpt><trkpt lat="44.6965565" lon="7.8922206"><ele>214.0</ele><time>2026-05-06T13:34:44.881Z</time></trkpt><trkpt lat="44.6965258" lon="7.8924547"><ele>214.0</ele><time>2026-05-06T13:34:45.881Z</time></trkpt><trkpt lat="44.6964986" lon="7.8926761"><ele>214.0</ele><time>2026-05-06T13:34:46.881Z</time></trkpt><trkpt lat="44.6964663" lon="7.8928975"><ele>214.0</ele><time>2026-05-06T13:34:47.881Z</time></trkpt><trkpt lat="44.6964348" lon="7.8931262"><ele>214.0</ele><time>2026-05-06T13:34:48.881Z</time></trkpt><trkpt lat="44.6964065" lon="7.8933582"><ele>214.0</ele><time>2026-05-06T13:34:49.881Z</time></trkpt><trkpt lat="44.6963773" lon="7.8935865"><ele>213.66666666666666</ele><time>2026-05-06T13:34:50.881Z</time></trkpt><trkpt lat="44.6963483" lon="7.8938147"><ele>213.33333333333331</ele><time>2026-05-06T13:34:51.881Z</time></trkpt><trkpt lat="44.6963163" lon="7.8940446"><ele>213.0</ele><time>2026-05-06T13:34:52.881Z</time></trkpt><trkpt lat="44.6962788" lon="7.8942713"><ele>212.66666666666669</ele><time>2026-05-06T13:34:53.881Z</time></trkpt><trkpt lat="44.6962484" lon="7.8945073"><ele>212.33333333333334</ele><time>2026-05-06T13:34:54.881Z</time></trkpt><trkpt lat="44.6962206" lon="7.8947388"><ele>212.0</ele><time>2026-05-06T13:34:55.881Z</time></trkpt><trkpt lat="44.6961933" lon="7.8949667"><ele>211.33333333333334</ele><time>2026-05-06T13:34:56.881Z</time></trkpt><trkpt lat="44.6961639" lon="7.8952094"><ele>210.66666666666669</ele><time>2026-05-06T13:34:57.881Z</time></trkpt><trkpt lat="44.6961284" lon="7.8954452"><ele>210.0</ele><time>2026-05-06T13:34:58.88Z</time></trkpt><trkpt lat="44.6960931" lon="7.8956818"><ele>210.33333333333331</ele><time>2026-05-06T13:34:59.88Z</time></trkpt><trkpt lat="44.6960565" lon="7.895919"><ele>210.66666666666666</ele><time>2026-05-06T13:35:00.881Z</time></trkpt><trkpt lat="44.6960236" lon="7.8961541"><ele>211.0</ele><time>2026-05-06T13:35:01.881Z</time></trkpt><trkpt lat="44.695989" lon="7.896392"><ele>210.33333333333331</ele><time>2026-05-06T13:35:02.881Z</time></trkpt><trkpt lat="44.6959561" lon="7.8966214"><ele>209.66666666666669</ele><time>2026-05-06T13:35:03.88Z</time></trkpt><trkpt lat="44.6959234" lon="7.8968652"><ele>209.0</ele><time>2026-05-06T13:35:04.881Z</time></trkpt><trkpt lat="44.6958874" lon="7.8971078"><ele>208.0</ele><time>2026-05-06T13:35:05.88Z</time></trkpt><trkpt lat="44.6958524" lon="7.897347"><ele>207.0</ele><time>2026-05-06T13:35:06.881Z</time></trkpt><trkpt lat="44.6958185" lon="7.8975868"><ele>206.0</ele><time>2026-05-06T13:35:07.881Z</time></trkpt><trkpt lat="44.6957848" lon="7.8978295"><ele>206.0</ele><time>2026-05-06T13:35:08.881Z</time></trkpt><trkpt lat="44.6957533" lon="7.8980664"><ele>206.0</ele><time>2026-05-06T13:35:09.881Z</time></trkpt><trkpt lat="44.6957165" lon="7.8983046"><ele>206.0</ele><time>2026-05-06T13:35:10.881Z</time></trkpt><trkpt lat="44.6956831" lon="7.8985403"><ele>206.0</ele><time>2026-05-06T13:35:11.881Z</time></trkpt><trkpt lat="44.6956478" lon="7.8987791"><ele>206.0</ele><time>2026-05-06T13:35:12.881Z</time></trkpt><trkpt lat="44.6956101" lon="7.8990167"><ele>206.0</ele><time>2026-05-06T13:35:13.881Z</time></trkpt><trkpt lat="44.695575" lon="7.8992553"><ele>206.0</ele><time>2026-05-06T13:35:14.881Z</time></trkpt><trkpt lat="44.6955412" lon="7.8994943"><ele>206.0</ele><time>2026-05-06T13:35:15.881Z</time></trkpt><trkpt lat="44.6955074" lon="7.8997339"><ele>206.0</ele><time>2026-05-06T13:35:16.88Z</time></trkpt><trkpt lat="44.6954696" lon="7.8999646"><ele>205.33333333333334</ele><time>2026-05-06T13:35:17.881Z</time></trkpt><trkpt lat="44.6954376" lon="7.9002046"><ele>204.66666666666669</ele><time>2026-05-06T13:35:18.881Z</time></trkpt><trkpt lat="44.6954065" lon="7.9004365"><ele>204.0</ele><time>2026-05-06T13:35:19.88Z</time></trkpt><trkpt lat="44.6953781" lon="7.9006348"><ele>204.0</ele><time>2026-05-06T13:35:20.881Z</time></trkpt><trkpt lat="44.69535" lon="7.9008245"><ele>204.0</ele><time>2026-05-06T13:35:21.881Z</time></trkpt><trkpt lat="44.6953254" lon="7.9009992"><ele>204.0</ele><time>2026-05-06T13:35:22.881Z</time></trkpt><trkpt lat="44.6953034" lon="7.9011632"><ele>204.0</ele><time>2026-05-06T13:35:23.881Z</time></trkpt><trkpt lat="44.6952817" lon="7.9013191"><ele>204.0</ele><time>2026-05-06T13:35:24.881Z</time></trkpt><trkpt lat="44.6952654" lon="7.9014732"><ele>204.0</ele><time>2026-05-06T13:35:25.881Z</time></trkpt><trkpt lat="44.6952531" lon="7.9016085"><ele>204.0</ele><time>2026-05-06T13:35:26.88Z</time></trkpt><trkpt lat="44.6952466" lon="7.9017295"><ele>204.0</ele><time>2026-05-06T13:35:27.88Z</time></trkpt><trkpt lat="44.6952571" lon="7.9018336"><ele>204.0</ele><time>2026-05-06T13:35:28.881Z</time></trkpt><trkpt lat="44.6952679" lon="7.9019293"><ele>204.0</ele><time>2026-05-06T13:35:29.881Z</time></trkpt><trkpt lat="44.6952899" lon="7.9020605"><ele>201.0</ele><time>2026-05-06T13:35:31.881Z</time></trkpt><trkpt lat="44.69529" lon="7.9021563"><ele>201.0</ele><time>2026-05-06T13:35:33.88Z</time></trkpt><trkpt lat="44.695312" lon="7.9022494"><ele>201.0</ele><time>2026-05-06T13:35:37.881Z</time></trkpt><trkpt lat="44.6952912" lon="7.9023574"><ele>201.0</ele><time>2026-05-06T13:39:52.881Z</time></trkpt><trkpt lat="44.6953554" lon="7.9023065"><ele>201.0</ele><time>2026-05-06T13:40:06.881Z</time></trkpt><trkpt lat="44.6953554" lon="7.9023065"><ele>201.0</ele><time>2026-05-06T13:40:06.881Z</time></trkpt></trkseg></trk></gpx>